GFSCGP_500_rhum_000.txt.gz
RH
62 63 54 86 38 7 15 32 32 26 24 14 28 39 42 42 47 51 51 39 39 35 35 32 28 23 18 14 6 3 3 4 5 6 6 6 7 7 7 7 7 6 6 7
84 75 74 91 23 7 14 22 23 28 18 11 28 43 45 41 45 42 40 37 36 35 31 27 19 14 7 2 2 4 3 3 3 3 4 5 5 5 5 6 6 6 7 6
88 90 88 75 12 5 14 17 28 27 17 12 19 43 44 40 38 38 37 34 32 30 25 15 9 1 3 4 3 2 1 0 0 0 0 0 0 1 2 3 3 4 4 5
96 84 70 26 3 5 12 17 17 11 10 12 14 30 41 45 42 39 38 35 28 11 3 1 4 6 6 5 5 4 4 4 4 4 4 5 6 6 5 4 5 7 9 10
78 74 29 5 2 4 6 14 10 8 7 7 15 22 27 31 29 23 12 8 3 0 3 7 8 9 10 13 14 14 15 14 14 14 14 13 12 12 13 14 14 16 19 20
45 31 6 2 1 2 2 3 3 5 6 8 11 16 17 19 14 5 3 3 6 9 10 10 10 10 13 14 16 18 20 21 21 20 20 20 21 22 23 24 25 27 27 27
16 7 4 2 2 1 1 2 5 8 10 10 11 12 11 10 2 2 4 4 4 5 7 9 11 14 16 18 22 23 26 28 30 32 34 35 36 37 39 40 40 40 38 37
9 5 3 3 3 3 4 6 7 9 9 10 9 6 5 3 4 4 7 11 16 21 22 24 25 25 27 33 37 36 37 38 39 39 38 37 34 31 28 26 24 23 23 23
8 7 4 4 4 4 4 6 8 8 8 6 5 8 7 9 22 28 27 25 28 32 34 39 40 43 44 44 42 40 37 32 28 24 22 21 20 19 18 18 18 18 17 17
13 14 7 7 8 8 13 14 14 13 13 17 17 22 28 27 34 38 44 44 50 49 47 43 40 38 35 31 27 22 20 19 18 17 16 15 14 14 13 14 15 18 20 23
26 23 23 20 20 19 19 19 20 21 23 27 28 42 52 48 46 47 44 41 38 32 28 25 23 19 17 15 14 15 15 17 18 20 24 25 27 30 37 39 45 45 44 47
38 32 28 24 22 23 28 33 38 40 40 47 46 47 47 45 41 36 32 28 22 18 17 14 13 12 13 15 18 32 32 34 40 44 48 48 49 48 47 48 48 47 48 49
68 44 36 30 30 33 42 50 52 54 52 50 46 39 35 32 28 23 19 16 15 18 18 20 25 32 36 36 37 47 46 46 48 51 53 55 58 61 62 63 61 58 54 52
82 71 64 59 68 66 63 63 60 53 40 33 32 29 27 26 20 19 22 20 28 29 28 35 37 38 37 30 26 26 24 21 20 25 34 38 41 42 43 46 58 66 64 62
92 88 83 81 77 70 64 48 36 34 25 29 26 22 26 23 34 52 48 38 32 20 16 12 9 8 8 8 8 8 9 10 11 14 19 22 29 33 34 41 43 48 48 44
61 57 57 51 48 45 39 28 27 25 25 23 29 43 46 45 47 38 30 18 10 9 10 10 10 10 10 10 10 10 10 11 11 12 12 15 21 27 31 36 37 39 45 50
30 29 28 27 26 26 26 32 38 46 59 53 48 39 35 29 18 12 12 13 12 11 11 13 13 13 12 12 12 12 12 12 13 13 17 24 26 26 29 41 45 44 48 49
29 28 26 25 24 23 36 58 43 24 17 16 16 13 12 11 14 14 13 13 15 14 14 15 16 16 15 15 15 15 15 16 16 16 22 30 52 60 65 64 60 62 70 64
13 15 20 35 41 53 38 18 19 20 17 12 10 12 14 15 15 15 15 17 18 18 18 18 18 17 15 13 13 14 14 14 15 26 50 67 79 88 86 80 79 77 75 80
89 82 58 52 47 36 23 17 13 11 12 12 14 14 15 17 19 19 19 17 18 19 19 18 17 14 12 11 12 12 17 36 60 78 89 88 95 88 72 77 88 90 94 89
36 25 24 19 20 20 16 16 18 19 18 18 18 19 22 22 20 20 19 19 20 19 18 15 12 11 11 14 20 33 56 84 88 96 100 100 96 90 90 89 90 87 81 77
27 25 24 22 21 20 21 23 23 23 25 26 26 24 23 23 22 21 19 18 16 14 12 10 9 11 24 46 69 82 88 93 94 97 99 100 100 96 88 78 70 61 53 46
30 27 24 23 23 27 26 26 26 30 30 26 25 24 23 22 22 21 19 15 12 8 7 11 24 48 82 98 97 98 100 90 87 93 92 81 66 50 43 38 32 27 23 19
31 30 29 28 32 34 33 34 32 31 29 27 27 27 27 25 22 20 17 12 9 10 29 41 79 100 100 100 100 94 89 89 87 70 52 48 47 48 40 30 24 20 16 13
35 32 30 30 36 31 35 35 35 33 33 34 32 26 24 22 19 16 13 12 16 34 67 98 100 100 100 89 86 92 84 66 53 52 54 54 44 33 28 23 20 16 10 8
40 39 37 38 43 44 42 42 40 39 36 28 27 26 22 16 12 12 15 25 43 67 79 98 100 86 78 88 97 80 61 54 54 55 45 34 29 27 26 23 15 9 8 8

GFSCGP_500_rhum_003.txt.gz
RH
30 40 23 29 48 45 37 27 17 41 49 40 26 30 26 31 37 41 50 58 59 51 44 39 37 35 31 25 16 8 3 0 2 2 2 3 3 3 3 4 5 5 5 5
30 25 26 54 52 33 34 30 13 35 36 32 23 24 23 28 40 42 47 49 49 44 40 37 32 29 19 10 4 0 1 1 1 0 0 0 0 0 0 0 0 0 1 2
25 25 43 51 48 37 56 27 12 26 26 26 26 17 16 40 45 41 44 42 40 37 35 35 27 8 2 1 2 3 3 2 2 2 3 5 5 6 6 5 6 7 7 7
70 86 57 51 44 61 71 18 9 15 15 20 26 24 17 31 44 42 39 38 39 38 36 25 6 0 1 4 6 8 9 10 10 11 12 12 13 14 14 15 16 17 19 20
81 69 59 51 67 57 62 12 7 14 17 25 15 16 18 22 32 44 39 33 26 15 9 2 1 5 10 12 12 11 11 12 14 17 18 18 18 18 19 20 23 25 29 31
88 80 66 73 75 75 31 4 5 10 18 26 11 10 14 18 23 27 22 16 9 3 3 6 8 9 10 10 12 15 18 20 20 20 19 21 23 27 31 33 34 35 35 35
86 84 85 84 75 40 3 2 5 8 13 12 10 12 13 12 13 11 7 2 3 4 4 8 11 16 20 21 21 22 25 28 30 34 36 36 34 31 27 24 22 22 22 23
83 88 79 60 39 3 1 1 2 4 6 5 6 6 6 8 8 5 2 3 8 17 22 24 28 32 35 38 38 39 38 34 28 24 20 18 16 16 16 16 16 16 16 16
90 58 43 30 5 2 1 0 1 2 4 6 8 9 8 5 3 4 12 20 31 41 40 43 42 36 32 30 27 23 19 16 14 14 12 13 13 15 18 21 23 27 30 30
33 12 13 9 3 2 2 3 5 7 8 8 10 16 10 17 23 26 28 45 48 45 38 31 26 23 19 18 17 15 14 15 18 21 25 30 35 41 43 45 48 48 50 49
17 11 6 4 4 4 5 6 8 14 14 18 23 26 33 48 50 47 45 43 38 30 26 24 20 15 15 15 21 31 32 32 33 28 20 16 17 18 16 17 22 30 37 44
12 11 6 8 8 13 16 21 24 27 30 42 50 52 51 47 43 40 39 34 23 20 18 17 18 30 32 29 20 11 6 6 6 7 7 7 7 7 8 8 9 11 13 21
26 23 26 20 25 24 26 32 41 49 54 52 49 43 43 39 35 32 27 25 24 25 34 43 46 37 14 7 6 7 8 9 9 10 9 9 9 10 10 10 10 11 13 16
52 52 44 46 52 52 49 53 57 56 55 42 38 36 36 34 33 32 28 29 42 45 35 21 13 10 9 8 9 10 12 12 11 11 12 12 13 14 14 14 14 14 16 17
87 85 83 76 75 71 73 63 58 51 37 41 36 34 48 34 35 41 41 42 36 23 13 13 13 12 12 12 14 14 14 12 12 12 13 13 13 13 13 13 14 15 18 23
93 91 83 82 75 63 43 40 35 32 33 33 37 48 36 32 24 13 12 14 13 13 14 14 14 16 17 17 16 15 14 14 15 16 17 16 14 13 12 12 12 13 22 51
72 62 55 52 39 33 33 36 37 41 51 39 25 15 13 12 14 13 13 13 14 16 18 20 20 20 19 18 18 17 17 17 17 16 16 15 14 12 10 11 17 33 50 66
34 32 31 31 32 32 39 47 56 49 14 17 14 14 12 14 14 15 17 17 19 21 22 22 20 20 21 20 19 18 17 16 15 14 12 10 11 14 21 36 54 66 78 86
20 21 21 23 29 44 59 55 40 24 18 18 14 14 18 22 23 24 25 25 25 24 23 24 23 21 18 16 17 17 16 15 13 10 11 17 30 46 59 66 72 74 73 73
59 61 56 64 61 57 45 38 30 23 18 15 18 23 25 27 27 26 26 25 25 26 25 22 20 18 17 17 15 12 10 9 8 12 22 42 64 73 74 74 72 74 75 70
72 57 43 36 28 24 25 24 22 22 22 23 23 24 26 28 30 30 28 29 28 24 22 20 18 17 13 12 11 10 10 12 21 42 68 76 77 72 71 67 64 55 45 37
33 32 30 29 29 27 26 25 24 24 23 26 27 30 33 33 32 31 30 29 24 22 20 18 17 15 12 12 14 23 34 53 71 77 71 70 68 66 62 50 41 39 38 31
33 34 33 33 33 32 30 27 28 28 29 33 38 40 39 35 33 31 26 23 22 21 20 19 15 12 14 27 42 48 61 76 75 70 74 74 66 52 42 42 46 44 40 36
35 35 34 34 38 39 40 36 34 39 46 47 48 44 39 37 32 28 25 22 21 19 16 12 11 16 38 52 66 75 83 81 73 71 71 60 51 50 51 46 44 40 37 31
36 36 38 41 42 41 46 46 50 51 48 45 41 39 37 32 29 27 26 22 18 15 12 11 19 39 55 69 86 96 92 82 79 70 66 64 60 50 44 42 38 32 25 18
40 41 41 44 46 49 53 54 52 48 43 39 37 34 31 30 30 28 24 19 16 14 12 15 35 54 73 87 94 91 85 80 71 63 59 55 47 38 30 25 19 14 10 10

GFSCGP_500_rhum_006.txt.gz
RH
51 61 39 30 26 42 33 26 33 38 20 40 43 45 48 46 32 19 36 40 46 56 62 56 45 40 37 36 33 27 18 8 1 1 1 0 0 0 0 1 1 1 2 2
54 46 38 41 56 36 36 30 33 45 17 36 51 51 37 24 28 35 36 41 46 54 55 48 43 38 34 32 25 13 5 1 3 3 2 3 5 6 7 8 10 11 11 13
49 48 80 50 49 25 30 32 31 50 21 18 43 51 34 23 18 37 44 46 50 49 44 40 37 37 36 28 9 1 2 4 5 8 10 11 12 15 18 19 18 18 18 18
46 43 53 42 32 35 29 34 30 58 21 19 36 37 32 25 17 32 44 44 43 41 39 39 36 32 24 7 1 6 9 10 10 10 13 17 19 19 19 20 22 26 28 30
40 42 45 45 41 48 41 45 50 64 15 17 31 32 27 28 19 22 36 40 40 37 32 26 14 5 3 5 9 9 10 14 18 19 20 22 24 30 32 33 32 30 28 25
46 44 52 43 43 41 52 55 70 64 13 11 21 27 26 21 16 20 24 31 30 26 17 8 5 6 6 7 12 23 29 35 36 34 33 33 30 26 22 18 16 17 18 18
54 64 66 50 40 48 47 48 61 49 21 7 16 26 26 26 15 17 19 21 18 7 3 4 4 10 20 30 39 38 38 36 32 28 24 19 15 13 12 13 16 20 24 26
54 48 88 53 49 53 52 59 58 25 9 5 11 20 17 15 12 11 12 11 6 4 6 13 25 41 43 39 35 33 29 25 21 17 15 14 16 22 28 30 26 21 17 13
98 93 60 58 51 60 52 58 27 9 2 4 7 6 5 5 6 9 7 5 14 17 19 41 41 39 33 31 27 24 20 17 16 19 26 28 23 13 7 7 7 7 7 7
95 83 73 77 84 69 44 17 9 4 2 2 3 7 8 10 9 8 14 26 33 35 45 41 37 32 27 24 19 18 20 25 24 11 6 6 8 9 10 9 8 8 8 9
88 87 83 80 67 39 30 8 3 3 3 5 8 9 12 20 32 38 43 44 44 43 37 32 27 23 23 22 27 31 28 11 8 9 9 10 11 11 10 9 9 10 11 11
93 90 51 38 19 10 4 3 4 5 10 15 24 34 46 52 49 46 44 40 34 29 26 25 26 31 37 35 23 13 11 11 12 13 13 13 13 12 11 11 12 12 12 13
49 22 8 10 14 5 4 5 11 18 26 32 48 55 54 44 42 37 35 35 36 35 29 26 32 38 22 14 13 13 14 14 16 16 16 15 14 14 14 14 14 13 14 15
24 17 8 14 14 14 16 25 32 37 47 62 52 42 39 38 37 35 34 36 36 37 36 28 18 15 14 15 17 19 20 20 19 17 17 17 16 15 14 12 12 13 14 15
33 38 38 36 41 41 39 37 48 60 60 53 40 39 40 40 38 38 36 24 14 14 16 17 17 18 20 21 22 23 22 20 20 20 18 15 13 12 11 11 11 12 10 8
73 69 80 76 68 70 77 75 66 55 42 34 35 44 50 43 21 13 13 16 19 22 24 24 25 26 26 25 24 23 22 22 21 18 15 12 9 9 9 9 8 7 7 8
88 92 88 91 95 94 90 72 59 47 38 38 40 34 16 12 16 19 25 27 28 28 27 26 24 24 24 24 23 23 23 20 15 12 10 8 8 8 7 8 8 8 10 16
93 86 86 89 91 72 53 45 46 41 37 42 32 11 15 21 26 29 29 28 26 26 24 26 28 27 26 26 25 20 17 13 10 9 8 8 8 8 10 12 19 32 41 46
42 39 36 33 32 32 32 33 36 47 43 26 19 22 23 23 25 26 26 26 29 32 32 32 32 30 26 22 18 15 11 10 10 10 10 9 10 17 30 42 51 48 46 44
18 19 20 21 20 22 31 36 47 39 30 27 26 26 25 24 24 28 29 34 37 37 34 31 28 24 20 18 13 11 12 12 12 11 12 20 40 54 59 59 58 49 38 33
71 77 74 76 65 58 49 42 29 30 28 28 27 26 27 28 31 32 36 36 35 33 30 25 23 22 20 14 14 14 14 14 13 18 37 54 63 70 74 71 63 55 55 50
76 71 57 51 37 34 34 30 31 31 31 31 34 33 32 31 32 35 36 35 32 28 26 26 26 23 17 17 16 16 15 15 23 39 56 69 78 85 78 71 66 54 44 37
72 54 37 37 36 35 35 35 35 35 36 37 36 37 38 39 39 37 34 31 29 29 28 27 25 20 20 19 18 17 16 22 42 60 74 81 81 76 70 55 45 38 31 24
61 47 41 34 36 37 36 38 38 40 40 42 46 48 48 45 41 38 35 35 34 33 30 29 25 24 22 20 18 15 20 44 61 67 75 81 78 64 52 39 27 21 19 17
39 37 35 36 40 41 43 42 42 44 49 53 55 56 53 48 46 45 42 40 38 36 34 30 27 23 20 18 17 23 44 58 70 80 81 68 55 38 25 20 19 16 11 10
39 37 39 42 45 45 44 45 46 49 58 63 66 64 60 55 52 48 47 45 41 36 34 29 24 22 19 17 27 42 59 71 77 74 62 39 24 20 19 16 11 10 13 18

GFSCGP_500_rhum_009.txt.gz
RH
80 66 52 40 32 28 30 27 24 34 37 46 18 36 37 48 50 50 48 38 21 27 44 54 63 64 55 48 40 38 36 31 22 11 4 2 2 2 2 6 10 11 14 17
83 65 57 48 39 38 29 27 26 36 30 44 19 34 38 43 47 39 22 11 22 40 44 52 60 53 46 42 38 35 32 25 9 1 2 5 7 11 13 16 19 20 20 22
74 75 58 48 44 43 34 26 31 37 30 53 24 27 47 56 49 23 18 18 40 44 48 52 50 45 40 36 34 26 20 9 1 6 8 10 12 17 22 25 30 32 32 32
71 67 63 60 54 42 44 33 34 37 38 51 33 18 45 52 44 27 21 30 46 42 41 42 40 37 34 27 21 10 4 2 7 10 17 23 27 31 34 35 33 30 26 23
65 68 59 53 48 53 67 51 34 34 37 30 41 16 28 33 33 26 24 21 36 44 41 41 38 30 24 17 7 3 6 9 21 30 34 35 36 36 32 28 24 21 18 17
70 66 66 58 97 60 88 48 37 31 33 21 32 15 24 30 29 26 20 19 24 31 32 32 29 20 10 4 5 17 32 35 36 37 35 32 29 25 20 16 15 16 18 18
70 61 53 58 88 74 72 42 33 32 30 32 37 15 15 26 27 28 22 19 19 21 24 22 17 6 3 15 32 40 39 38 36 35 30 25 20 18 19 19 13 8 8 8
59 64 54 83 48 48 58 40 37 44 39 47 42 25 9 15 22 23 17 15 16 17 16 14 6 6 26 43 46 41 36 33 28 23 21 20 22 11 6 6 7 9 9 10
47 48 49 45 44 49 45 34 54 48 44 43 40 18 6 8 11 12 11 11 10 9 8 5 12 38 48 46 39 35 29 25 21 22 29 21 9 10 10 10 11 12 12 12
52 50 46 47 52 57 40 71 62 47 41 41 30 6 5 7 7 6 8 9 9 7 16 39 47 48 44 35 28 25 25 31 31 21 13 12 12 11 12 13 15 15 16 16
62 62 60 58 48 44 51 51 48 41 32 17 7 4 5 8 13 15 19 25 32 42 46 45 42 36 29 25 32 48 40 22 14 12 14 15 16 19 20 19 18 18 18 15
66 96 89 68 70 64 61 76 50 30 16 8 5 9 14 23 32 45 50 51 49 44 37 33 35 33 31 41 42 31 18 14 15 18 19 20 22 22 21 21 20 18 15 12
84 87 100 99 95 85 80 64 34 18 4 5 14 25 40 50 57 59 51 43 37 35 36 36 37 37 27 20 16 15 17 19 20 22 23 24 23 23 22 20 17 13 9 9
96 98 96 82 68 70 45 19 6 5 10 19 31 57 72 58 52 44 40 36 39 38 38 25 14 14 17 22 22 21 20 23 25 25 24 24 23 21 18 14 10 10 10 9
97 97 96 77 29 20 18 11 13 19 28 38 60 70 62 50 44 41 44 48 41 18 15 18 24 26 24 23 25 27 28 28 27 26 25 22 19 15 11 12 12 10 8 8
34 26 24 12 11 25 22 28 25 31 42 58 69 60 46 40 43 46 40 11 16 21 28 28 26 27 29 33 32 31 30 29 26 23 20 16 13 13 14 12 10 9 9 8
51 54 47 43 39 40 43 45 53 72 75 58 46 36 43 69 56 23 18 21 27 29 29 31 32 34 34 34 32 30 28 25 23 22 17 16 16 15 12 11 11 10 10 14
88 72 69 84 89 78 72 93 92 89 79 67 76 65 58 54 16 17 23 28 28 30 34 36 35 34 31 31 30 27 26 25 23 19 18 18 15 13 13 12 11 12 21 41
88 98 86 100 94 75 90 91 71 58 52 46 46 61 33 20 24 25 28 30 33 35 35 34 32 33 32 30 28 28 27 24 22 21 19 16 15 14 13 12 17 36 50 60
66 76 78 92 78 77 68 56 46 40 32 46 52 33 28 28 29 32 36 38 37 38 38 37 34 32 31 31 31 29 27 25 24 22 20 18 16 13 12 23 43 61 67 67
22 19 22 26 30 26 23 26 34 45 42 36 32 31 32 35 39 40 38 39 41 40 38 36 35 34 35 35 33 30 27 26 25 23 20 17 12 15 34 52 63 62 56 47
75 72 70 72 73 73 61 53 41 34 33 33 34 36 39 40 40 41 42 42 42 41 40 39 40 39 38 36 33 31 28 27 25 21 16 13 17 38 52 56 48 31 22 20
78 75 74 61 49 38 34 34 34 35 37 38 40 40 40 40 41 44 46 48 49 52 50 47 44 43 42 38 35 33 29 25 20 16 13 20 43 53 47 29 22 20 19 18
74 76 76 59 48 39 35 36 37 39 39 39 41 41 42 44 45 50 52 55 58 58 58 55 51 48 44 40 35 30 24 19 15 12 18 38 48 39 25 23 21 19 16 10
58 62 61 60 56 48 39 36 37 40 43 42 43 46 45 50 57 57 57 61 64 66 63 58 55 50 44 40 31 22 17 15 12 19 36 48 42 28 26 23 20 16 10 12
67 60 51 41 37 38 39 40 41 41 42 45 47 48 51 59 60 61 64 66 69 71 66 62 56 50 42 28 21 19 15 12 18 29 48 48 33 29 28 23 18 10 12 14

GFSCGP_500_rhum_012.txt.gz
RH
74 70 48 57 65 57 39 26 28 30 25 24 30 37 21 35 28 27 39 48 55 50 43 26 14 29 50 63 56 56 46 40 38 35 30 21 7 2 3 5 8 10 16 20
85 69 68 79 71 57 41 27 29 30 23 26 34 38 22 37 41 44 47 45 36 17 12 24 40 46 61 62 57 49 43 39 35 31 20 5 4 8 9 11 16 22 26 31
78 73 74 78 69 56 41 30 29 30 27 29 35 39 17 34 39 46 52 31 19 18 31 36 46 52 54 52 46 40 37 34 22 10 3 6 9 13 20 25 29 35 38 37
73 98 78 83 72 53 38 40 36 28 25 30 28 37 23 22 45 58 51 35 20 23 44 47 49 49 43 37 36 32 26 16 5 5 8 14 26 31 36 40 40 38 35 29
77 74 97 79 67 54 64 48 48 33 26 28 40 38 24 18 40 50 41 32 23 22 31 39 43 40 37 29 28 23 8 4 6 16 30 34 40 43 42 39 34 25 20 17
89 92 95 89 70 69 75 65 53 39 30 23 41 32 34 17 24 27 25 23 24 20 23 22 23 25 26 27 18 5 4 8 21 30 37 40 39 36 30 24 20 14 9 8
98 89 74 78 68 62 68 87 53 46 31 20 37 33 32 18 20 23 25 25 24 19 17 19 20 22 21 13 6 4 17 28 37 44 44 38 29 23 26 25 14 11 11 14
78 79 74 74 57 63 97 76 47 41 31 23 26 31 38 19 11 14 19 19 19 19 16 17 17 16 12 6 8 23 38 45 48 42 34 25 26 27 16 12 12 14 15 17
70 67 71 75 69 94 87 78 69 48 35 22 27 41 43 27 8 8 12 14 16 14 12 11 9 7 10 22 39 48 47 44 34 25 28 32 18 13 12 14 17 18 19 20
77 70 70 74 66 70 66 86 60 48 42 30 28 33 35 17 7 7 8 8 7 8 8 10 14 28 49 51 47 44 35 28 30 34 31 16 15 19 20 19 18 20 22 23
76 76 69 66 49 48 56 50 42 46 40 34 32 34 25 7 4 12 17 16 14 13 17 30 50 54 46 39 34 34 35 34 28 17 18 21 19 18 18 19 20 21 22 21
63 65 64 58 52 58 60 56 58 50 50 52 39 29 8 7 11 16 19 19 25 36 54 57 46 38 35 37 39 34 18 18 22 22 21 21 23 23 23 23 23 22 21 20
61 54 55 53 55 58 54 53 60 55 68 50 33 15 10 14 24 40 44 47 58 60 49 39 38 40 44 29 16 23 25 23 23 22 21 23 23 24 23 23 22 22 19 17
70 65 58 52 54 57 59 71 70 77 68 39 23 8 19 32 40 48 60 64 52 41 41 46 51 30 16 24 25 24 24 22 21 22 24 25 25 24 25 24 22 20 19 17
95 85 86 100 83 81 96 100 98 92 28 13 14 19 37 38 56 64 64 46 41 45 54 32 17 22 27 25 24 25 23 24 28 29 27 26 26 27 25 24 22 20 18 15
96 96 96 98 98 97 82 82 50 20 8 5 12 35 54 65 63 62 39 46 56 50 15 20 25 26 26 26 29 31 33 32 31 29 30 30 29 27 26 23 21 18 15 14
99 99 98 99 97 87 40 27 21 15 18 35 34 56 72 67 39 43 73 73 59 19 20 26 29 31 34 36 38 37 34 33 32 34 32 30 30 28 26 22 19 17 14 12
83 69 74 43 34 25 17 30 29 32 41 52 69 67 46 70 81 78 71 67 22 24 29 32 36 39 42 41 39 37 37 38 37 36 34 33 31 29 24 20 17 16 12 9
97 84 76 72 48 41 29 38 59 69 79 91 91 89 78 71 72 67 42 25 28 32 36 40 45 45 45 44 44 44 44 42 41 40 38 34 31 27 22 20 17 12 9 12
89 88 82 78 98 94 97 98 96 97 89 93 94 83 62 63 68 38 29 31 34 40 46 49 51 52 53 52 52 51 49 48 46 42 38 34 30 26 22 17 12 9 14 28
86 90 89 93 92 84 82 88 95 90 72 61 47 48 56 53 35 32 34 40 45 45 47 51 52 54 53 52 52 53 55 52 47 42 38 34 30 25 17 13 10 17 34 34
73 60 59 54 53 49 43 38 37 39 45 55 51 44 35 33 35 40 44 44 45 48 48 51 53 50 49 50 58 61 56 52 46 42 38 34 25 18 14 12 20 42 42 36
73 72 88 90 88 92 89 80 66 56 46 37 34 34 36 40 43 45 44 46 47 47 47 51 51 51 57 69 66 60 56 51 46 42 36 26 20 16 13 23 44 48 42 40
51 65 76 82 76 65 52 42 36 34 35 36 38 40 43 45 44 43 46 47 47 49 54 53 58 70 75 70 64 59 54 49 46 38 29 23 18 15 24 45 55 49 43 40
33 33 39 52 66 71 61 50 42 38 38 38 39 41 43 43 44 46 47 49 59 58 58 69 76 76 75 70 63 57 52 49 40 32 25 19 15 23 38 50 54 50 44 35
44 35 24 35 60 60 55 48 41 38 39 41 42 44 47 48 46 46 58 65 63 66 74 78 80 78 72 64 58 54 50 41 32 26 19 15 19 34 46 48 52 50 42 29

GFSCGP_500_rhum_015.txt.gz
RH
69 86 82 76 71 72 55 46 34 42 28 17 20 24 27 35 26 33 29 37 44 43 45 53 52 48 23 11 22 54 63 62 52 44 41 39 36 24 13 4 7 9 11 14
87 83 89 95 88 70 60 50 41 37 28 17 20 23 28 33 25 34 34 44 42 41 45 46 27 11 33 41 50 62 63 55 49 45 41 34 17 7 4 9 12 19 26 32
70 86 96 89 82 64 62 58 46 36 28 21 21 23 35 33 29 38 49 49 49 45 28 14 22 31 44 61 60 57 52 47 44 39 22 8 6 8 10 18 30 36 42 45
94 99 97 89 84 73 65 57 47 39 28 26 22 21 51 39 22 36 40 47 54 48 20 23 41 46 47 48 49 44 48 47 31 16 6 6 10 19 30 38 43 45 40 31
96 92 82 93 76 74 69 58 47 38 29 26 22 22 48 50 20 28 41 56 52 45 22 24 35 44 46 42 44 47 41 28 12 4 5 12 29 40 46 48 40 28 24 24
100 83 84 89 88 83 69 59 47 39 34 25 28 23 55 51 23 19 29 40 34 25 25 24 24 29 33 37 36 33 23 14 4 5 19 34 44 48 45 34 26 25 22 14
95 83 95 73 70 76 64 54 54 48 36 24 30 24 41 37 29 18 20 24 21 18 17 18 19 19 23 25 21 16 11 6 8 19 40 50 48 37 29 30 25 14 15 20
93 75 84 98 83 80 65 70 59 41 38 30 30 24 35 35 34 18 17 20 22 22 21 20 18 18 17 14 10 8 9 19 34 52 51 42 29 30 34 23 16 20 21 19
66 57 57 88 96 84 77 82 78 54 41 33 30 28 29 43 40 32 19 10 10 15 17 15 13 13 11 10 10 20 44 53 49 39 32 31 33 27 19 21 21 21 18 16
87 62 62 73 83 96 90 93 64 61 54 34 30 33 38 40 39 35 28 14 7 7 8 9 12 12 14 26 50 56 52 39 36 38 32 22 20 22 22 20 18 17 16 16
80 84 70 61 68 72 64 60 81 74 56 32 31 37 46 40 33 27 12 5 8 11 14 16 22 28 54 64 55 43 38 40 29 20 24 24 22 20 18 18 18 18 19 21
81 76 90 76 83 77 65 91 82 75 54 47 46 52 53 38 22 10 6 6 12 18 22 32 51 68 62 44 41 45 32 21 25 25 23 20 18 19 22 22 23 23 24 25
84 78 77 90 84 70 62 53 55 58 66 43 42 39 50 38 26 12 14 16 26 41 61 68 62 48 43 50 38 23 26 27 24 21 20 22 24 25 25 26 26 27 29 30
88 90 81 73 62 66 63 53 51 59 58 50 45 63 58 27 11 12 14 30 43 69 77 55 43 47 51 22 25 25 24 23 24 26 27 28 28 29 31 32 33 34 32 30
80 73 72 70 61 60 56 58 65 66 68 68 78 77 29 17 12 18 28 44 74 72 52 44 58 33 21 25 23 25 28 30 31 32 33 35 36 36 38 39 38 36 33 31
76 89 80 78 69 70 62 63 65 64 67 72 84 46 17 17 16 28 52 81 72 42 49 73 46 58 36 23 29 32 36 37 40 40 41 43 42 44 45 45 41 37 35 32
96 92 89 85 87 97 72 75 84 90 95 82 56 16 15 22 35 60 75 54 44 59 78 83 52 24 29 34 39 43 44 45 46 47 46 46 48 52 51 47 41 38 35 29
99 100 96 99 95 86 92 81 72 65 57 28 16 19 32 49 75 57 54 70 79 80 69 31 28 33 40 45 46 46 47 50 51 50 50 52 57 56 51 45 42 38 30 22
98 96 93 94 93 79 74 55 26 24 29 24 29 41 62 73 59 78 86 88 78 62 33 30 36 45 46 46 47 49 53 53 53 54 57 59 59 54 48 45 39 29 21 16
96 96 98 74 82 71 91 77 53 36 36 56 86 87 82 91 91 82 67 78 62 34 35 40 46 47 48 48 50 53 55 56 58 61 64 63 56 51 46 38 26 16 12 12
98 99 89 91 89 82 96 98 97 98 95 96 87 80 82 73 59 58 71 53 36 36 42 46 46 46 48 48 52 56 56 61 62 65 65 58 54 46 35 24 16 14 13 11
97 93 100 88 86 88 91 94 86 83 78 73 73 67 48 51 55 54 39 35 37 42 44 44 46 48 48 57 58 55 56 61 69 67 60 54 47 34 23 19 17 15 12 13
92 75 73 64 52 57 56 56 65 58 56 75 62 64 61 44 36 35 37 41 41 43 44 47 47 50 62 57 53 56 66 72 64 59 55 46 34 25 22 19 15 12 14 27
69 83 90 89 89 87 83 80 80 74 71 42 35 34 35 36 38 40 38 40 45 47 47 47 56 66 60 58 58 64 65 62 58 54 45 34 28 25 20 16 13 14 30 46
41 44 36 31 33 50 69 76 74 57 45 40 39 38 38 39 39 41 44 48 49 47 48 60 68 63 62 64 63 60 58 52 48 43 35 30 26 21 17 15 13 23 55 59
46 45 45 44 38 23 23 38 61 65 61 55 49 42 40 41 43 46 48 48 48 56 65 70 65 68 68 63 56 48 42 39 36 34 30 26 22 18 16 14 19 53 62 61

GFSCGP_500_rhum_018.txt.gz
RH
71 54 62 73 56 65 83 74 58 54 49 29 20 33 22 17 28 30 26 33 33 43 49 50 48 41 47 54 55 30 28 38 51 68 66 55 44 42 39 22 10 6 9 11
94 58 64 100 81 79 82 71 59 58 48 31 24 24 22 20 22 33 27 32 30 39 46 46 42 43 44 45 23 30 44 49 60 66 59 48 44 37 16 8 7 10 13 29
69 52 93 99 87 79 84 72 59 64 48 30 28 26 24 22 21 30 28 28 36 44 46 45 43 42 28 14 23 59 64 61 61 57 51 46 27 12 7 9 22 36 42 45
76 99 95 89 85 78 86 70 67 64 51 32 29 24 26 24 22 28 30 33 43 47 47 45 32 15 19 35 43 50 60 65 65 52 40 22 12 8 12 29 38 48 47 38
93 98 92 98 78 81 86 76 76 65 54 36 30 25 29 24 22 31 26 41 46 44 52 53 37 21 32 43 48 57 62 59 54 35 20 10 9 20 35 49 53 43 33 30
100 91 97 87 96 96 94 82 73 63 56 39 30 26 37 29 30 38 24 29 37 41 56 55 34 23 32 39 47 54 49 37 25 14 8 10 27 48 54 49 36 31 35 33
91 98 80 85 97 93 96 83 71 63 54 38 31 25 39 36 46 46 29 18 23 40 38 25 20 21 23 30 34 32 26 18 13 11 16 44 53 51 42 34 39 41 27 20
84 100 95 76 69 71 81 77 66 56 49 35 32 27 35 43 53 47 36 22 18 20 21 20 21 20 19 23 21 17 13 11 18 33 57 49 38 37 38 34 23 22 23 19
73 80 97 86 75 83 71 68 66 60 46 37 41 30 37 33 34 36 35 25 15 18 20 21 18 15 16 15 14 12 14 32 56 57 42 40 39 26 23 25 22 19 19 22
96 78 98 96 86 71 71 73 68 56 50 45 50 37 35 35 32 32 37 36 29 17 9 8 9 10 10 11 14 29 55 58 45 42 39 26 23 26 24 20 20 23 25 25
66 73 84 97 91 69 62 82 67 57 56 47 49 38 30 40 46 43 39 37 31 22 15 10 11 14 18 26 46 64 51 43 41 27 24 27 26 23 21 25 27 28 28 29
75 72 81 73 93 99 98 97 80 67 61 52 50 52 43 41 47 42 36 32 25 17 7 10 17 21 38 62 57 45 48 35 25 26 26 24 24 27 28 29 30 32 33 32
68 70 70 77 73 83 84 85 76 69 59 71 72 49 42 47 61 56 38 24 14 9 14 23 38 55 72 54 46 48 30 24 25 24 24 27 30 31 31 33 35 36 35 36
79 74 71 62 57 65 60 73 72 82 76 58 54 66 59 59 85 63 35 23 15 16 28 43 64 74 54 48 46 26 26 30 28 27 31 33 35 36 38 40 40 40 42 45
91 77 76 71 75 69 72 93 90 72 66 60 66 82 73 62 59 46 33 16 14 27 44 69 73 51 59 54 49 63 47 28 32 34 37 38 40 42 43 44 45 47 51 57
88 86 87 85 74 73 69 73 73 66 58 46 45 43 64 75 71 42 26 13 21 42 70 80 51 61 80 81 66 32 30 36 38 42 42 44 46 47 49 48 50 59 65 57
91 94 97 93 83 76 71 65 62 59 55 52 48 79 77 73 57 26 15 26 45 64 69 51 66 77 81 60 31 32 38 43 45 45 47 48 50 52 51 56 63 67 57 48
97 98 89 93 79 61 70 70 67 59 57 57 64 77 70 52 24 14 23 36 58 60 64 80 85 85 46 32 35 41 46 47 47 48 49 55 54 55 62 68 67 57 47 36
96 92 88 86 77 76 74 75 82 78 76 77 77 71 30 17 21 28 52 68 64 70 78 86 86 64 38 36 43 48 48 47 48 51 59 55 57 65 70 63 55 44 35 28
74 98 87 82 83 85 95 84 78 76 53 34 31 27 28 43 53 67 71 74 83 94 78 76 68 39 38 45 50 49 48 48 52 64 59 60 66 62 56 50 38 32 27 22
79 85 99 96 98 87 93 82 76 74 85 82 68 57 74 97 81 89 97 95 80 66 81 50 37 40 47 52 49 47 48 54 66 61 64 64 58 51 39 32 26 15 13 13
95 97 98 95 85 84 95 100 99 90 90 93 90 90 83 91 97 88 58 59 70 51 37 38 42 47 49 47 47 48 58 66 62 66 60 52 40 33 26 17 14 15 17 17
99 98 97 92 93 90 96 96 89 71 68 70 71 69 59 57 62 82 58 39 36 38 41 45 45 46 47 48 51 63 66 67 62 52 41 33 26 17 17 18 18 19 20 21
92 87 78 71 69 81 97 98 99 98 97 100 96 91 74 51 39 35 36 38 39 41 42 43 46 46 48 60 67 67 65 51 40 33 31 20 19 21 20 20 19 22 23 21
81 70 81 84 74 61 55 62 74 80 80 77 62 46 41 40 39 40 42 42 41 42 44 45 45 59 65 64 65 53 38 32 32 28 23 22 21 20 19 19 21 23 21 18
77 65 46 40 40 43 41 29 18 17 25 44 62 67 67 64 55 46 43 42 43 43 42 57 64 64 64 55 41 34 32 27 25 24 22 20 19 19 18 20 22 20 18 27

GFSCGP_500_rhum_021.txt.gz
RH
47 39 25 28 41 40 55 56 50 46 75 62 51 29 38 29 21 26 23 29 25 30 38 45 56 62 57 51 45 44 49 56 56 31 23 43 65 67 56 46 42 32 11 8
96 74 33 31 43 60 58 71 52 67 70 63 54 34 38 24 19 26 30 31 25 32 35 40 54 51 47 47 44 46 45 41 22 34 47 60 65 58 48 44 31 10 8 18
90 53 56 52 58 99 96 71 59 73 73 69 52 37 35 27 24 22 28 34 27 33 32 34 39 47 47 46 46 39 25 11 68 63 64 63 60 55 45 27 10 8 28 44
97 93 89 70 76 69 65 69 62 89 76 73 52 39 40 32 24 23 23 30 30 30 27 32 44 48 45 40 26 14 23 33 42 60 68 62 52 40 22 9 9 29 49 52
65 100 96 61 93 97 67 72 70 94 89 72 50 37 37 32 26 24 23 26 28 30 33 44 46 46 48 46 21 28 40 44 58 64 56 47 31 16 10 12 29 52 50 40
99 100 85 58 99 91 65 77 97 97 93 66 50 42 35 34 30 25 24 26 28 31 39 45 45 47 55 50 23 31 46 54 56 47 34 22 15 14 24 46 48 41 38 37
100 100 78 86 98 98 98 100 99 95 84 63 56 44 51 30 28 27 26 30 32 24 36 41 40 49 54 24 22 28 35 36 32 25 18 14 17 33 50 43 40 38 30 24
100 99 100 98 90 88 85 76 92 81 72 61 53 41 38 32 32 30 29 34 40 26 20 26 35 39 26 20 19 21 22 22 17 15 17 27 54 50 42 39 26 25 26 23
81 88 97 96 98 98 93 77 96 82 67 74 49 44 33 35 35 41 44 48 44 32 21 19 21 21 20 20 18 17 16 14 16 34 62 53 42 41 30 25 28 26 24 27
100 97 62 97 97 94 90 73 94 83 66 57 52 48 43 35 33 45 50 48 40 33 22 16 15 12 10 10 10 10 13 22 44 62 47 44 34 26 28 27 24 25 29 31
100 98 99 80 88 70 88 87 80 68 60 75 67 62 42 40 37 38 36 35 36 38 36 33 27 19 13 10 12 17 29 55 55 47 44 30 27 27 25 26 28 31 34 35
99 98 97 85 86 76 57 73 77 68 58 60 52 57 52 50 39 39 40 39 40 40 36 30 24 16 8 11 17 38 63 54 47 41 27 25 28 32 28 31 34 36 38 40
99 94 97 98 97 87 78 82 77 72 55 64 74 63 59 52 52 53 51 46 39 34 30 20 11 11 16 26 46 64 55 49 38 27 35 45 40 29 34 37 38 41 45 46
93 87 98 99 97 98 79 68 71 67 62 66 64 78 70 62 64 61 60 52 43 37 32 23 16 19 26 39 65 58 55 49 57 64 48 30 31 37 39 41 44 48 49 49
84 79 79 71 73 78 95 96 96 95 84 78 84 84 84 95 85 62 48 43 52 48 30 14 18 29 46 71 64 58 68 74 66 42 31 34 40 41 43 47 50 52 51 45
74 82 84 85 80 83 78 73 65 66 76 68 83 71 76 65 54 65 46 44 50 48 28 13 23 41 70 72 57 75 75 67 43 33 38 41 43 44 48 50 55 56 52 56
84 78 83 88 76 69 68 61 61 57 52 67 60 70 70 54 70 60 50 65 71 37 17 21 38 63 64 64 74 81 71 56 35 39 44 44 46 49 50 57 57 56 58 51
93 96 87 85 81 62 52 61 60 59 62 65 62 63 54 47 47 51 63 78 41 16 16 45 62 62 62 76 83 83 60 37 39 45 48 47 49 51 60 58 60 52 42 30
97 90 90 87 91 83 86 74 71 69 70 65 59 53 51 49 64 69 65 40 17 23 51 62 65 70 85 84 86 79 40 42 47 50 49 49 50 62 62 55 43 32 24 16
96 99 91 89 87 86 85 77 71 67 80 78 76 76 80 84 83 51 29 33 41 55 66 70 76 91 88 87 60 39 46 49 52 51 49 56 62 61 44 32 27 22 20 18
91 85 84 86 83 86 94 92 90 85 82 76 66 46 36 35 39 46 49 76 92 93 96 94 61 73 75 41 42 47 49 52 50 50 62 63 48 33 26 24 22 19 17 17
96 96 85 92 94 95 94 98 97 94 92 90 90 96 88 87 86 85 83 93 93 86 64 68 69 42 40 45 46 49 50 48 57 63 58 39 31 25 19 17 18 17 14 15
94 84 95 97 100 98 97 100 96 96 94 92 84 82 81 79 76 77 62 60 66 80 70 41 40 43 44 46 48 47 48 64 63 47 35 30 21 18 18 18 17 17 18 18
95 99 95 97 97 98 98 93 83 77 76 76 90 90 92 86 85 86 72 46 37 37 39 40 42 43 44 47 47 63 64 57 39 34 29 20 20 20 20 20 22 20 18 18
93 97 99 94 91 79 88 95 91 88 85 82 80 78 75 70 56 47 45 49 53 55 48 44 43 44 46 61 69 60 44 36 34 29 22 23 22 20 21 24 22 21 20 18
96 98 78 88 91 63 42 42 41 37 28 20 16 16 23 38 56 66 67 64 55 49 46 43 46 60 74 66 51 38 34 32 28 24 25 21 20 21 21 21 22 21 20 14

GFSCGP_500_rhum_024.txt.gz
RH
69 61 44 33 25 20 17 17 30 30 24 26 30 43 52 52 46 28 22 23 28 34 27 29 29 29 33 56 62 63 58 49 44 43 46 42 27 27 48 64 64 54 50 46
88 58 43 57 38 27 17 13 22 51 37 38 44 38 57 49 48 30 25 24 25 25 37 26 32 36 44 53 60 56 53 49 42 40 38 44 54 55 64 61 56 53 44 25
96 71 79 75 56 44 25 15 24 52 57 54 49 36 48 57 46 31 27 26 29 30 27 26 31 35 38 50 50 48 48 44 41 32 13 19 44 60 62 60 54 41 20 11
100 90 95 82 64 52 33 17 40 89 77 55 64 33 52 61 42 36 28 25 28 36 32 28 34 33 32 36 45 49 45 42 20 20 34 41 53 61 55 45 30 17 13 14
85 72 94 96 82 62 25 27 70 98 98 76 72 41 50 59 41 32 28 26 24 30 36 30 30 31 30 42 48 44 48 35 25 38 43 48 49 42 31 24 16 12 30 43
86 90 100 75 98 64 26 85 66 53 79 83 57 45 51 60 42 36 31 23 22 26 33 31 30 32 41 47 46 49 48 34 26 31 34 37 28 25 19 14 16 28 45 43
84 93 100 98 86 42 36 99 97 96 89 76 50 64 67 60 45 36 32 24 24 25 32 31 28 36 48 47 40 44 39 25 24 23 23 22 19 16 14 27 48 47 41 28
99 98 100 89 60 34 77 100 96 58 84 90 60 69 60 55 42 34 28 25 24 25 41 38 22 28 36 37 37 36 23 20 20 21 17 16 13 18 46 50 46 34 28 30
100 96 100 98 100 92 98 97 99 97 82 62 60 71 60 55 42 32 28 27 28 26 40 44 29 20 18 21 22 20 20 20 16 14 11 12 24 57 51 46 29 30 30 28
100 100 100 97 99 99 96 94 88 83 87 83 82 72 60 56 41 33 30 30 35 36 46 42 30 22 18 18 17 15 12 10 10 13 24 40 57 50 42 29 29 30 33 34
99 95 96 98 88 95 98 97 91 71 73 91 81 68 55 48 39 32 32 44 52 52 50 41 35 29 21 20 20 18 15 12 16 32 54 59 48 41 28 28 40 38 32 36
100 100 100 93 98 98 99 96 78 78 78 94 81 59 51 52 46 43 39 38 40 40 39 38 38 39 38 29 21 16 12 18 36 59 61 50 41 35 48 50 31 34 38 40
100 100 81 62 96 98 98 93 83 65 88 92 70 62 47 54 53 50 45 41 44 42 40 38 37 34 29 22 13 13 23 36 51 62 58 52 69 71 46 30 36 41 42 46
96 98 98 96 62 71 74 82 94 82 89 74 63 55 64 65 60 57 54 53 49 44 42 41 39 35 32 23 15 20 37 56 63 62 66 73 70 46 35 38 42 43 48 52
98 98 98 98 97 96 78 80 91 74 69 68 80 68 74 80 71 58 54 48 45 42 38 39 47 49 37 21 18 30 48 69 64 66 76 74 63 41 38 44 44 49 52 58
100 100 97 90 95 96 91 88 81 80 71 62 74 85 82 78 79 76 83 66 56 52 46 46 57 50 36 22 17 41 70 66 71 86 81 68 40 39 44 46 49 53 59 57
100 100 85 88 87 87 79 82 75 86 82 82 78 88 93 89 85 72 60 53 48 56 59 57 66 50 30 22 45 64 66 80 92 89 86 52 41 45 48 49 56 59 56 33
80 82 91 92 87 86 83 74 72 70 65 62 76 81 86 73 70 64 61 52 50 57 67 75 53 27 18 48 62 75 85 92 91 79 41 43 46 49 49 60 60 50 30 21
97 93 88 98 88 87 80 72 70 67 59 52 53 71 59 61 68 63 55 54 59 71 66 45 22 28 55 65 71 80 92 90 67 41 46 47 48 50 64 60 41 31 21 16
54 74 80 84 83 94 94 87 75 62 70 66 67 64 56 66 58 57 62 82 78 56 32 37 57 69 80 89 90 71 79 50 43 46 46 48 53 66 56 37 31 22 18 19
62 77 80 83 80 81 99 97 82 77 81 80 79 71 73 67 68 71 69 60 47 40 59 84 90 91 82 72 83 69 42 46 45 47 49 66 65 49 35 32 25 22 19 12
78 82 85 90 80 96 93 96 100 99 93 80 78 79 75 66 50 41 58 65 76 85 68 66 63 71 87 73 42 44 45 45 47 57 72 58 41 33 30 26 24 18 14 16
85 86 94 98 98 97 98 98 95 96 98 97 96 91 85 78 78 84 84 76 71 70 76 86 79 57 40 42 49 44 46 51 73 70 51 35 32 29 27 23 17 16 19 24
92 92 92 95 95 94 100 95 90 89 90 90 88 93 78 77 81 80 80 78 76 73 40 38 41 44 50 50 47 46 60 77 62 45 36 33 30 26 20 17 17 22 28 28
97 97 93 91 95 98 99 97 93 84 95 96 91 86 77 68 64 61 63 64 64 64 62 62 60 53 48 45 50 76 74 60 43 37 34 31 24 20 19 19 24 27 33 32
95 96 94 96 95 96 81 84 84 63 44 34 32 31 26 19 16 16 18 28 50 72 76 65 52 44 46 70 78 68 56 43 39 36 31 24 21 20 20 22 26 36 40 41

GFSCGP_500_rhum_027.txt.gz
RH
63 48 40 65 58 41 37 36 31 33 33 35 27 24 16 17 31 37 53 43 29 22 36 28 17 24 29 29 38 58 62 68 69 64 54 49 43 41 34 52 61 62 61 56
59 38 80 89 78 63 53 46 35 28 27 29 31 26 23 21 23 41 57 44 30 21 25 47 27 25 29 32 33 36 58 63 61 60 53 46 40 18 24 45 56 55 53 52
85 69 100 100 99 81 62 46 34 25 21 20 23 32 24 16 18 45 54 49 33 22 24 32 38 34 28 32 40 48 56 59 53 51 47 39 19 25 40 44 51 55 50 34
88 94 96 100 96 93 74 59 54 34 20 17 29 28 28 18 23 45 54 52 40 23 30 33 32 30 26 31 36 42 52 47 49 48 44 25 28 39 43 46 46 41 26 20
92 86 100 98 82 100 71 81 60 48 26 16 23 45 24 25 22 41 47 50 33 22 29 44 36 30 29 34 34 34 36 48 47 47 51 35 28 32 35 32 28 23 16 12
99 100 97 92 87 94 81 88 68 57 36 39 14 42 36 26 26 33 49 52 36 24 26 35 37 41 30 31 32 34 44 46 47 48 53 34 27 26 25 23 19 14 15 39
100 100 90 95 85 88 100 99 78 56 33 22 35 66 65 38 34 40 53 51 34 25 27 32 32 38 30 30 34 39 44 45 41 46 43 22 21 22 20 16 13 20 48 51
82 67 68 74 59 89 72 97 66 40 24 17 96 97 52 50 53 48 56 50 36 26 25 29 28 34 28 24 30 35 40 38 36 31 22 21 18 15 13 13 31 55 53 41
95 93 98 100 100 99 72 91 37 24 26 79 89 85 56 59 62 58 49 42 35 30 29 27 28 45 36 19 18 23 24 23 21 21 19 13 10 11 21 45 56 53 39 31
98 97 100 100 100 85 80 69 43 72 98 99 99 70 35 35 64 54 45 37 33 28 27 29 40 48 38 24 20 19 19 18 15 13 11 12 15 30 55 59 53 38 32 40
100 100 100 100 64 38 65 68 90 100 97 98 81 51 55 78 65 56 45 36 31 32 32 34 43 48 44 32 24 18 18 21 20 17 16 18 33 68 62 56 41 57 64 40
71 61 68 94 85 96 94 98 99 94 98 96 87 48 51 74 60 50 41 35 34 38 46 51 50 47 42 37 35 34 30 25 20 14 21 38 62 62 63 57 66 67 43 45
98 98 100 99 96 98 95 98 98 98 100 96 77 67 77 66 55 45 41 40 39 40 41 39 39 39 38 41 37 30 24 22 22 21 24 41 71 66 76 83 74 62 47 42
99 98 98 99 97 99 97 97 91 99 93 96 92 75 65 54 53 49 48 47 44 42 39 37 39 38 37 40 40 36 31 24 19 22 41 78 70 80 86 85 81 57 44 46
96 99 100 51 98 97 98 88 94 98 98 95 94 88 67 63 59 56 54 51 47 46 45 44 42 40 42 47 58 50 33 27 24 49 81 73 93 98 94 91 50 45 51 50
99 99 100 74 62 95 96 91 94 98 95 90 97 92 88 68 64 72 67 63 66 64 62 58 56 57 57 60 64 40 31 32 54 71 69 92 95 98 88 45 55 50 54 68
96 98 98 98 96 85 75 76 77 92 100 98 92 84 86 73 73 72 77 78 71 65 55 54 58 59 64 76 51 31 29 51 69 74 87 95 97 79 50 58 47 63 68 54
91 87 88 94 96 96 90 93 84 97 97 93 95 95 70 59 64 70 79 83 73 57 54 51 53 61 83 65 30 26 52 70 75 86 94 93 70 49 50 49 71 65 47 33
83 82 82 86 95 93 87 83 88 85 82 86 85 97 88 72 69 66 70 69 64 58 53 55 72 66 35 29 47 71 79 94 94 84 87 53 49 49 56 76 60 41 32 29
76 83 87 93 94 91 81 81 74 80 72 57 64 68 68 70 72 72 66 64 61 62 79 80 60 43 56 79 96 99 93 84 92 62 46 51 47 71 77 56 38 33 30 25
72 84 79 84 88 87 93 91 93 89 71 64 61 65 60 62 63 67 74 72 72 70 57 43 53 85 92 88 82 82 90 80 44 45 46 49 78 74 52 38 34 31 26 21
55 54 69 87 95 94 89 86 92 89 80 70 68 73 80 87 82 77 66 48 51 73 83 89 89 76 78 90 92 79 46 43 54 48 54 81 70 48 39 36 31 27 21 18
57 74 87 93 97 95 90 90 88 87 87 84 84 81 85 86 80 73 73 78 82 84 79 74 84 92 85 47 40 43 55 55 46 71 80 64 47 41 37 32 28 23 19 19
84 84 94 94 96 97 98 91 92 95 92 88 91 95 91 86 77 71 76 78 81 85 77 72 64 49 48 58 63 58 48 54 81 72 64 49 43 39 35 29 24 20 21 21
84 82 97 100 96 92 97 88 93 95 90 86 84 90 90 87 86 68 51 41 37 37 43 52 60 72 77 68 50 46 75 76 71 62 50 47 41 36 30 25 22 24 26 27
99 99 100 95 90 90 88 97 97 96 93 94 61 43 34 32 37 30 21 21 22 26 35 52 65 64 52 44 61 80 71 72 62 54 51 44 38 33 26 25 28 31 32 36

GFSCGP_500_rhum_030.txt.gz
RH
44 38 42 58 55 44 42 44 40 37 40 39 30 23 20 19 17 15 19 23 31 44 39 31 25 34 27 17 18 29 32 55 62 71 71 71 66 56 51 40 23 38 52 53
52 45 51 66 64 54 49 44 38 43 39 36 34 22 21 20 16 17 17 22 30 45 38 32 33 35 29 17 22 30 32 48 62 67 66 69 58 52 45 25 28 38 44 45
56 54 59 61 63 55 50 47 55 47 40 36 32 25 24 25 23 18 14 16 23 38 39 32 28 35 33 29 37 30 36 36 39 60 65 61 52 48 37 25 33 39 41 39
52 56 62 72 67 97 65 76 82 72 56 44 39 25 24 29 23 19 20 16 20 27 39 32 27 30 38 42 40 28 35 47 53 58 64 52 50 47 46 30 30 34 33 28
67 73 96 78 88 100 76 100 98 93 81 63 43 30 20 24 20 16 20 16 21 40 39 33 34 29 27 36 31 27 31 40 45 57 49 49 46 48 52 36 27 24 25 24
72 73 79 98 100 100 92 100 100 100 100 78 46 35 18 20 16 19 20 19 28 52 38 34 34 32 35 37 34 29 34 36 38 42 44 45 43 45 48 31 24 23 19 14
35 36 40 71 100 100 100 100 100 100 98 48 50 42 13 14 17 26 25 23 36 53 43 36 34 36 36 38 43 29 28 35 36 38 41 39 38 43 34 24 22 15 13 16
29 43 61 81 100 100 100 100 100 100 89 71 62 44 13 13 13 36 26 24 40 57 45 39 35 31 29 31 42 28 24 32 36 37 37 33 31 24 22 16 12 13 20 40
44 63 81 67 76 96 82 96 78 99 100 83 56 34 26 23 14 52 26 28 38 54 45 39 33 27 28 31 44 29 19 23 28 25 22 21 21 18 13 14 17 22 49 58
50 75 100 100 97 79 67 93 100 99 98 69 37 31 20 17 17 51 32 33 58 51 42 38 29 27 30 40 50 34 22 19 19 20 20 16 14 19 18 18 25 59 64 64
74 87 100 100 100 100 100 85 83 74 63 34 28 21 17 68 53 48 49 68 56 46 40 37 33 32 34 50 39 28 24 22 19 18 23 25 24 19 18 35 64 69 66 72
95 100 96 100 99 89 61 92 57 54 59 51 34 46 77 63 60 67 89 69 52 42 38 36 37 46 52 49 42 34 29 30 34 33 29 22 18 24 37 66 81 71 72 79
100 100 100 91 92 73 98 64 52 56 57 96 100 90 82 62 61 79 70 62 46 44 41 44 53 57 53 48 42 41 39 36 31 30 30 27 25 31 52 83 73 72 85 92
98 98 98 99 100 98 96 98 87 94 94 100 98 94 85 60 76 66 53 46 47 48 51 49 48 46 46 47 45 42 43 45 48 48 40 32 28 39 72 66 73 92 98 85
98 100 100 97 96 100 88 98 97 99 99 97 97 96 97 84 78 67 66 59 54 52 51 51 49 48 48 50 50 53 55 54 52 46 35 29 35 63 69 87 97 100 86 69
99 99 99 98 98 98 89 99 97 97 100 100 97 98 93 90 71 69 73 69 64 65 63 58 56 59 61 62 61 61 63 62 56 43 30 34 67 74 88 100 100 84 62 70
99 99 100 74 99 94 98 100 98 97 98 98 97 94 96 91 78 74 72 76 77 77 82 78 65 59 57 57 59 59 74 72 43 27 54 76 81 96 99 96 76 78 64 76
98 97 98 92 74 77 74 80 84 78 81 82 91 92 90 93 96 92 88 86 90 92 81 67 61 58 56 58 68 76 59 36 42 70 84 98 96 95 90 63 58 52 82 68
79 83 82 95 94 96 95 85 75 78 94 97 67 62 74 77 76 96 93 96 90 80 73 67 61 56 62 73 59 39 41 71 88 98 97 93 97 52 50 58 60 82 66 43
62 71 87 70 82 84 89 95 96 95 96 90 80 73 74 69 94 98 86 75 71 67 64 60 61 76 76 57 48 77 94 93 92 96 98 80 46 58 55 63 84 63 44 41
75 62 61 77 78 77 84 81 78 89 87 86 82 72 76 88 91 72 58 60 63 67 72 72 64 51 44 63 90 84 80 93 98 86 46 49 59 49 78 80 60 46 43 40
81 64 66 84 79 83 87 96 95 77 75 74 66 61 63 63 66 74 78 77 72 63 55 53 69 80 88 92 87 96 99 61 43 50 59 52 57 83 74 58 48 47 40 33
72 59 57 67 80 87 95 97 98 95 92 81 84 87 89 88 88 87 80 75 74 77 82 85 79 78 80 86 88 56 48 65 72 66 50 72 78 73 57 52 50 42 33 26
50 56 81 86 86 90 93 97 97 98 99 99 99 99 99 98 93 89 77 72 76 78 83 85 78 64 59 54 57 65 72 70 52 55 80 75 74 61 57 51 42 31 27 24
60 84 86 94 90 100 95 95 95 99 100 100 100 99 99 96 91 86 86 73 44 24 19 20 22 27 35 52 66 68 55 45 79 76 78 76 67 59 51 41 30 30 25 24
88 85 90 85 90 97 95 92 94 97 98 98 96 94 96 90 73 39 34 28 24 23 26 30 38 52 65 68 58 43 60 88 68 83 80 70 59 52 40 32 34 29 25 22

GFSCGP_500_rhum_033.txt.gz
RH
14 14 17 28 30 26 29 27 30 43 42 43 36 26 22 25 22 14 13 12 15 17 23 43 49 44 29 30 33 17 21 29 33 64 67 71 72 74 69 62 53 47 30 26
17 19 30 42 47 45 38 35 32 30 42 36 37 28 24 20 18 20 17 13 12 12 16 23 46 46 34 28 40 32 17 17 29 35 61 66 73 70 68 57 50 43 26 30
23 26 37 42 50 54 55 51 55 54 61 53 36 22 26 24 23 22 19 17 14 12 11 16 39 47 36 28 39 34 19 25 32 34 48 63 65 64 64 53 50 50 37 32
22 37 54 55 51 60 51 67 72 69 70 60 49 18 24 25 22 19 18 17 14 14 13 15 29 45 35 30 40 41 30 39 32 40 41 41 57 65 60 52 49 54 52 41
47 54 57 50 55 71 48 67 75 84 85 76 55 44 18 27 22 19 19 20 16 15 16 15 36 49 33 29 33 43 47 42 27 36 48 54 56 62 53 48 50 51 51 37
55 36 23 18 32 49 75 86 98 100 100 84 57 61 23 28 25 24 23 27 22 19 17 14 36 49 30 29 32 38 45 34 29 30 37 46 51 50 45 44 42 46 39 27
17 12 11 13 19 26 38 94 100 100 100 66 72 88 22 28 34 27 24 25 27 24 21 13 29 53 35 34 46 51 50 41 29 30 36 38 39 39 40 38 36 34 25 20
13 14 24 33 36 35 25 81 100 100 98 87 94 67 29 33 38 29 24 23 22 23 21 14 40 56 41 36 48 50 50 52 32 23 30 34 33 34 33 29 26 23 17 16
18 16 39 58 67 70 45 41 84 100 100 100 81 46 42 36 42 25 23 22 21 25 20 14 43 55 43 34 39 40 44 49 35 20 22 24 24 24 23 24 21 17 22 21
26 30 49 70 100 100 98 68 83 85 91 100 63 50 38 42 38 20 14 14 34 28 22 18 49 52 43 34 35 36 40 47 36 19 18 20 21 22 20 20 23 24 19 23
29 39 59 84 100 100 100 96 55 75 90 78 44 31 43 54 43 32 23 18 44 38 29 45 57 45 35 34 33 35 50 51 37 23 21 20 19 23 29 26 22 24 28 33
75 45 93 98 100 82 84 100 100 87 52 59 41 23 41 44 37 30 24 50 41 40 46 61 51 45 39 39 37 51 55 31 29 25 22 28 32 29 28 30 31 33 30 47
92 93 93 99 100 100 100 97 95 100 84 60 47 28 32 27 22 23 37 77 68 67 61 52 48 42 40 40 46 44 40 35 31 34 36 33 36 43 43 36 30 31 49 59
96 97 99 98 100 100 100 100 86 72 90 44 28 48 30 27 25 36 70 80 78 63 59 59 54 53 54 58 56 47 41 41 40 40 45 52 53 49 39 32 32 49 65 77
96 97 100 100 99 98 94 96 99 80 85 83 96 78 78 92 97 73 88 86 65 61 74 75 71 63 59 53 49 46 46 50 53 53 55 58 58 46 33 28 66 76 85 96
98 98 100 100 100 100 95 94 100 99 99 97 98 96 96 99 89 95 94 91 84 81 77 72 60 55 53 54 56 55 57 58 55 58 68 74 56 29 46 77 90 89 94 81
100 100 97 98 100 100 98 98 89 96 97 94 99 96 98 98 96 88 96 94 78 66 63 64 64 63 64 68 63 56 53 56 60 71 81 50 36 66 88 94 92 96 53 53
98 100 100 100 99 98 100 96 96 98 98 98 96 98 98 88 94 94 96 96 81 80 86 85 80 74 65 57 54 54 54 59 73 58 37 56 89 95 97 97 90 49 53 54
94 96 100 99 100 97 90 88 89 90 98 98 99 79 73 97 98 99 98 98 97 95 93 84 78 73 65 61 58 60 75 62 44 61 88 95 92 96 97 60 49 55 53 80
74 85 76 75 72 93 95 82 68 89 99 93 94 97 99 98 96 98 98 97 95 88 86 85 78 71 64 63 73 76 62 56 88 91 85 95 100 69 49 57 55 57 87 72
83 71 76 76 78 82 88 93 93 83 98 96 95 87 83 94 98 89 92 85 88 85 78 71 68 67 75 74 60 49 70 97 92 94 100 67 50 66 65 54 72 82 70 60
73 69 83 84 75 87 89 87 89 90 84 90 85 86 85 83 85 78 95 94 76 69 71 72 67 54 57 70 87 91 87 88 93 71 55 74 78 61 58 81 80 73 62 50
61 70 66 59 89 81 80 91 98 96 84 92 96 86 72 68 71 76 79 83 80 74 68 68 75 86 86 79 82 82 71 60 66 78 79 71 50 75 79 82 76 61 51 37
50 66 64 54 63 90 88 88 88 97 98 90 85 75 72 81 89 93 90 84 80 77 79 79 78 77 62 49 48 50 57 64 73 71 52 58 84 74 86 78 61 51 38 37
54 49 52 64 82 96 90 87 93 96 95 95 94 94 92 91 92 93 94 92 91 81 48 23 22 23 26 32 43 57 70 70 54 52 87 71 74 86 77 62 50 42 40 34
64 58 71 82 83 86 79 86 90 95 96 98 98 98 98 98 98 98 95 55 33 29 26 25 30 42 53 66 73 70 52 51 84 92 60 80 87 78 63 50 46 42 35 28

GFSCGP_500_rhum_036.txt.gz
RH
10 9 9 12 13 13 11 13 16 20 22 23 29 22 21 22 17 15 16 15 14 9 13 20 16 20 51 50 45 34 31 30 17 33 38 51 85 77 80 80 78 73 61 52
13 15 16 16 17 15 14 16 17 21 35 33 28 19 23 22 15 18 15 14 15 11 13 16 12 17 39 55 45 38 32 42 27 21 28 33 66 73 73 81 74 71 58 51
20 22 22 23 23 20 20 23 30 36 50 46 37 19 22 28 24 24 22 18 18 14 16 14 13 14 21 52 50 42 28 43 36 17 20 30 38 63 69 75 69 66 56 51
18 23 25 24 21 27 31 41 50 47 48 40 60 22 22 22 23 25 27 24 21 19 19 17 14 14 15 39 49 46 29 30 38 27 34 33 36 43 58 61 59 66 56 52
26 28 25 22 42 50 45 49 54 53 53 50 40 48 14 26 26 22 22 25 24 24 24 22 17 15 17 24 48 46 32 39 42 37 41 33 42 45 46 55 62 62 53 49
27 23 30 49 44 31 23 20 20 29 48 43 36 57 20 23 27 35 27 24 26 27 28 27 21 16 15 28 54 49 33 32 40 46 43 28 32 44 50 50 53 52 46 44
29 42 45 27 12 12 11 16 16 13 12 10 20 52 21 26 30 36 41 30 30 27 24 27 24 19 16 34 56 50 34 31 37 42 39 31 34 35 37 38 39 41 41 40
44 40 15 14 15 21 30 33 36 29 23 22 21 15 9 29 38 43 45 41 32 27 23 28 26 21 18 36 57 49 41 36 40 50 43 33 28 30 36 38 37 35 32 26
33 12 18 20 20 34 36 40 80 92 79 42 27 18 20 16 39 52 52 46 37 30 26 28 30 23 19 48 60 50 46 49 55 52 50 42 26 24 27 26 25 23 26 26
14 17 22 27 32 42 69 95 97 100 100 86 39 29 63 39 43 53 58 48 39 31 26 26 30 26 24 58 58 50 44 45 45 42 48 46 29 19 18 21 22 24 27 28
18 19 33 38 65 94 100 99 100 98 100 100 72 35 69 44 48 50 61 44 30 29 30 28 29 26 54 64 55 47 44 40 41 42 52 49 30 22 21 21 26 30 30 34
23 22 33 58 91 99 99 100 100 100 89 100 98 41 47 82 62 62 43 39 28 24 40 35 30 36 67 67 52 44 42 40 42 42 61 41 22 23 27 33 32 36 44 44
33 35 44 58 86 100 96 100 100 100 100 77 93 38 40 100 83 78 54 23 18 40 49 37 32 38 66 63 54 44 42 43 43 64 34 26 28 37 37 38 50 53 44 40
27 44 68 89 98 100 99 96 100 100 100 94 61 38 51 100 99 52 38 27 37 61 57 51 49 66 64 55 50 45 43 46 48 32 32 37 40 42 54 62 63 50 44 40
32 48 93 97 100 99 98 94 96 100 82 32 39 52 99 99 51 35 31 68 77 77 70 73 76 70 57 51 46 48 46 40 38 40 43 45 54 64 75 78 65 41 54 84
45 94 98 99 97 97 100 93 100 95 34 28 46 88 79 32 30 26 59 100 95 75 83 87 79 67 58 54 55 48 48 47 47 50 57 66 72 82 91 72 39 72 95 98
96 97 96 97 99 96 99 96 86 92 100 71 92 100 97 42 32 29 67 84 95 96 86 96 95 78 67 59 52 51 52 55 62 64 66 70 76 87 52 52 93 100 95 92
100 98 97 92 95 90 96 97 98 62 60 52 97 76 74 60 53 78 73 78 96 94 90 92 76 62 58 60 69 70 64 59 59 64 68 79 65 47 83 99 96 99 74 53
99 100 79 91 79 79 86 80 94 86 68 76 77 96 95 92 95 97 96 81 76 78 75 68 67 78 87 80 71 67 64 64 65 76 76 54 69 98 96 99 88 53 67 70
94 96 87 92 77 73 82 69 80 80 97 92 98 95 98 95 98 91 84 80 79 82 89 97 100 100 96 82 73 70 68 78 82 70 63 94 99 98 99 61 68 79 64 63
92 92 100 100 100 85 72 79 68 76 76 94 98 98 97 98 93 81 92 96 95 95 97 98 99 92 85 81 77 85 87 72 64 93 99 94 95 73 68 82 78 57 76 80
80 82 83 96 100 100 98 82 85 80 83 90 93 96 95 92 92 85 80 83 91 95 93 90 87 88 88 91 76 65 89 97 92 89 85 66 69 80 80 60 64 80 78 82
75 75 73 64 66 96 100 100 98 90 86 80 80 78 75 68 70 97 99 99 98 97 95 92 81 64 65 89 94 84 87 84 58 50 55 66 76 63 55 86 71 79 82 69
62 70 66 53 54 59 90 96 98 100 98 95 92 90 87 82 96 99 98 97 98 92 83 85 88 88 84 84 65 39 31 31 41 60 73 68 55 88 80 66 86 82 68 59
55 56 50 45 51 61 88 83 96 97 98 99 96 96 97 98 100 99 98 98 99 99 97 97 81 41 25 26 29 38 52 65 74 70 52 77 94 64 72 87 80 69 66 62
45 44 43 45 58 82 91 96 95 97 95 98 100 100 100 100 99 98 99 98 97 86 44 31 27 23 24 32 45 57 69 66 65 80 95 80 62 76 87 77 73 74 68 53

GFSCGP_500_rhum_039.txt.gz
RH
9 9 10 11 10 9 8 9 9 13 17 17 14 9 12 16 16 17 20 18 16 12 14 22 17 21 16 16 26 56 57 49 36 33 31 17 31 49 63 67 80 78 84 82
10 10 11 12 14 14 15 16 18 19 20 19 18 15 12 12 16 17 21 22 23 17 16 18 23 18 17 16 19 41 61 53 44 31 34 20 32 49 70 78 77 78 81 77
15 14 16 19 20 19 16 15 17 19 20 19 19 14 16 14 13 18 18 27 25 21 18 20 20 18 16 13 20 30 58 57 47 36 35 36 22 47 63 75 78 75 79 78
17 18 18 17 16 22 22 24 24 22 22 21 23 16 15 18 18 21 21 21 34 31 25 24 25 20 16 13 20 23 42 59 51 40 34 41 20 28 43 43 53 73 69 69
16 18 23 25 26 27 25 25 27 33 37 34 29 33 15 17 20 24 39 34 25 38 35 31 30 29 23 18 17 21 24 50 56 46 38 44 34 38 47 46 41 47 55 53
36 35 30 29 29 29 31 44 44 32 19 21 19 16 24 26 26 26 35 47 39 28 36 36 33 31 27 22 18 16 18 32 55 50 43 53 44 43 34 37 46 50 55 56
31 29 30 31 39 48 36 15 13 15 16 16 14 17 9 10 11 19 26 39 50 39 30 32 33 31 32 28 20 19 20 39 59 49 38 46 47 45 32 29 37 41 45 42
27 30 37 50 41 17 18 21 18 23 31 30 28 20 22 27 21 17 11 29 50 58 42 31 32 32 32 32 24 22 25 52 61 49 38 37 42 41 33 33 33 36 38 38
31 31 46 21 13 18 23 29 35 38 46 55 40 41 38 31 50 37 20 10 39 54 43 42 36 32 30 31 24 26 32 62 63 47 42 40 40 48 45 30 24 23 24 24
31 43 20 16 26 38 48 54 74 94 96 95 72 63 36 50 50 36 27 16 25 53 47 39 36 32 28 31 25 23 25 51 62 45 48 55 54 57 60 49 31 21 23 26
55 32 20 32 57 49 59 76 96 100 99 99 98 66 60 67 49 29 47 42 33 58 51 42 33 29 32 29 26 22 24 45 61 50 63 57 52 56 65 58 30 27 31 38
61 14 31 39 44 63 75 90 100 100 100 100 100 52 96 70 49 64 94 68 61 57 52 41 33 29 33 29 25 24 39 58 60 49 51 52 52 59 76 47 28 33 41 40
22 31 35 40 62 76 77 98 100 100 100 98 100 51 85 79 56 89 100 89 74 53 43 37 30 26 30 31 29 37 61 63 57 48 50 52 55 72 69 30 35 41 46 64
28 41 35 62 69 95 92 99 99 82 46 74 96 44 67 55 80 97 100 98 82 41 36 27 24 24 29 32 37 68 68 66 57 49 54 54 67 70 34 38 44 59 75 85
32 35 69 84 88 98 99 98 98 78 20 23 52 35 25 52 98 100 98 80 54 31 41 41 31 31 32 35 58 69 68 68 58 54 53 66 52 34 42 54 76 89 99 90
35 65 84 96 98 96 99 96 93 37 32 37 36 66 76 100 100 93 72 41 35 62 62 46 43 46 47 57 70 72 71 69 58 57 62 34 38 53 77 90 98 100 85 48
51 75 86 86 91 94 88 99 96 74 21 41 81 97 90 91 72 48 50 57 73 70 70 73 74 74 73 76 68 66 64 60 56 37 40 55 76 90 94 100 99 54 67 98
81 89 76 75 81 76 77 100 85 66 29 28 45 40 45 37 41 79 100 84 71 72 69 74 79 80 78 70 64 55 44 40 48 63 75 83 92 95 97 76 58 92 98 96
85 83 68 77 82 90 89 81 98 83 62 89 67 29 28 26 25 42 83 78 96 97 96 88 78 82 82 64 50 55 69 74 72 73 81 87 90 88 68 77 99 96 94 67
84 85 76 74 76 84 89 82 100 88 78 95 94 94 52 58 56 61 97 98 100 100 98 99 98 94 95 97 95 84 78 76 79 81 87 89 78 69 94 96 92 70 76 79
87 88 84 76 80 86 87 86 93 99 99 95 96 97 98 98 97 91 99 99 94 96 95 96 96 97 98 98 96 90 86 84 88 91 74 76 97 94 86 66 70 75 65 67
86 73 80 79 80 82 90 92 98 99 100 100 98 96 94 95 96 98 96 97 96 97 98 98 96 93 90 90 88 87 92 81 75 95 96 89 67 52 56 71 70 62 86 76
88 78 75 74 59 55 87 90 96 98 98 98 100 96 96 88 99 98 98 100 99 92 88 91 91 87 89 89 82 81 97 96 91 69 40 38 48 68 74 60 75 88 66 77
68 70 55 60 64 50 50 88 90 98 97 97 95 93 100 94 99 99 98 91 86 87 94 92 87 86 93 96 96 89 56 31 34 42 52 61 69 65 70 90 72 67 81 80
53 58 55 54 54 50 52 88 91 95 100 95 95 91 89 80 79 74 71 69 68 77 92 97 96 95 70 35 29 30 34 34 39 50 60 67 79 86 81 65 71 84 83 84
34 45 53 54 48 48 72 91 98 91 94 96 94 93 92 91 86 86 85 84 88 94 97 69 36 34 31 30 30 29 29 37 47 56 75 83 83 71 66 77 85 85 85 68

GFSCGP_500_rhum_042.txt.gz
RH
12 11 14 12 10 9 8 8 7 7 8 6 6 4 5 10 13 10 13 15 18 20 21 16 16 18 23 17 17 19 33 69 64 53 49 43 31 39 30 33 51 67 95 93
10 11 12 12 12 10 9 8 8 7 9 7 6 5 9 11 14 16 14 12 14 19 23 21 16 18 20 25 17 15 21 39 69 66 56 47 35 34 46 44 61 85 92 87
13 13 15 14 12 11 12 10 16 15 15 14 13 7 12 12 14 15 18 16 15 17 24 29 24 18 18 24 23 16 18 24 32 58 62 54 46 35 34 26 52 76 88 90
16 17 15 14 14 16 16 18 17 17 18 18 17 13 12 14 15 17 22 21 17 16 20 30 30 25 22 22 25 23 15 20 21 39 59 59 51 37 43 37 29 59 74 79
17 18 18 17 18 17 19 21 25 24 22 20 20 23 7 16 17 23 20 21 23 20 17 23 35 28 24 24 21 23 15 18 19 25 61 62 54 40 40 54 56 59 69 65
18 17 19 26 32 34 31 26 28 28 32 27 25 21 12 16 16 18 22 27 30 29 25 23 28 33 24 22 24 22 17 17 18 20 33 64 62 48 46 57 61 59 57 61
30 36 40 39 32 27 27 31 39 35 22 19 16 15 13 16 15 15 15 21 14 27 33 30 33 30 33 23 27 27 22 18 17 19 20 54 64 52 62 69 64 43 42 42
42 38 30 31 30 34 40 38 18 16 16 23 24 18 25 30 26 19 21 28 19 13 20 37 37 33 34 31 32 30 26 21 18 18 20 50 63 50 52 64 60 38 41 54
24 28 31 33 40 44 25 16 19 27 40 46 46 39 38 62 55 45 47 40 29 16 13 20 39 42 29 35 35 34 32 26 20 19 21 61 68 50 44 58 62 42 38 37
29 30 34 48 45 16 16 27 45 60 63 72 61 58 56 70 72 74 58 51 32 16 18 12 36 48 33 34 37 36 34 29 23 20 23 64 70 50 47 61 79 79 71 61
27 32 44 54 21 20 34 49 69 96 93 99 85 44 82 92 99 99 93 65 43 38 30 12 32 51 43 32 34 35 34 30 23 21 25 56 64 51 59 78 82 83 90 82
29 31 54 23 29 41 43 67 89 100 100 98 94 22 97 100 100 74 93 74 38 36 27 40 42 54 47 36 37 33 33 28 24 24 25 65 65 59 81 72 70 82 97 76
33 49 26 38 52 51 85 100 98 99 99 87 86 32 84 90 99 96 88 60 43 28 34 70 60 56 46 40 34 30 31 27 26 24 34 76 68 62 76 68 67 76 93 43
48 30 37 46 64 88 99 95 100 98 91 84 32 24 30 62 76 69 56 46 95 82 55 69 61 52 38 33 31 32 30 28 27 29 64 80 69 64 68 66 71 90 49 50
32 38 57 71 100 98 97 96 90 100 85 26 30 48 31 32 38 75 85 99 97 91 78 60 48 39 33 30 30 30 30 31 30 50 79 80 69 69 69 68 84 48 50 66
31 71 79 95 93 88 82 99 92 86 77 43 48 72 80 70 95 100 97 83 90 84 58 41 35 31 29 31 33 34 37 37 40 67 81 80 76 75 75 74 48 53 78 100
60 68 93 82 80 72 87 99 96 78 33 45 68 80 88 100 100 100 97 97 91 89 80 56 34 30 31 36 38 40 42 50 76 86 93 87 79 78 54 53 70 94 100 100
96 73 80 77 72 83 72 100 94 79 49 41 64 63 66 64 58 68 56 64 87 79 80 61 51 46 43 43 48 52 72 87 84 81 81 76 59 58 76 94 94 96 96 74
77 84 88 73 69 70 77 93 98 83 90 54 35 49 65 61 88 98 80 99 98 88 80 83 84 86 84 82 85 84 84 86 80 67 54 58 94 98 91 91 96 79 88 99
87 94 72 65 77 74 72 78 94 94 93 91 29 26 27 29 31 99 89 94 85 88 91 96 94 87 85 77 70 68 60 57 61 93 98 97 96 95 92 81 88 98 91 68
77 81 68 70 70 78 75 75 91 91 97 98 94 61 45 61 63 78 89 96 98 98 100 99 93 88 80 80 82 89 96 98 96 96 97 96 86 76 94 94 79 52 62 76
76 77 68 57 64 76 82 91 80 94 98 94 100 98 100 96 84 84 98 98 96 99 97 98 99 98 99 98 98 97 96 97 95 91 77 85 88 78 51 43 61 76 68 72
73 70 64 63 62 58 79 89 95 90 89 98 99 98 99 97 100 97 95 97 98 97 100 98 96 97 87 84 86 91 82 80 86 87 68 37 34 47 68 71 66 77 90 76
59 64 66 66 78 75 56 74 81 96 89 82 95 96 96 98 98 99 98 100 99 98 90 85 83 74 76 80 83 84 84 57 27 28 32 40 50 57 62 78 87 79 71 68
47 52 65 71 69 57 50 76 87 86 96 90 81 86 95 92 90 95 98 95 93 87 87 85 84 87 87 70 37 25 24 26 27 30 37 45 53 64 79 77 74 71 73 76
39 43 53 61 57 48 52 92 95 88 97 96 93 95 95 97 93 94 96 97 97 94 89 88 79 42 30 30 33 35 32 30 33 37 43 54 72 76 75 72 72 78 75 72

GFSCGP_500_rhum_045.txt.gz
RH
39 34 41 36 26 22 16 12 10 10 9 8 6 5 5 6 6 7 8 9 10 10 12 14 14 14 16 20 21 20 15 17 22 35 56 56 51 48 47 51 42 54 41 28
39 33 29 19 16 13 12 11 10 11 10 8 7 5 5 5 5 6 8 10 14 16 15 12 15 17 17 16 20 22 20 18 18 21 37 55 50 50 49 56 58 62 69 70
25 23 21 18 15 13 12 11 11 10 9 8 6 4 6 5 5 7 10 11 10 12 14 16 14 15 19 18 18 22 21 24 19 19 21 24 28 64 58 54 49 49 54 74
16 18 18 16 15 14 12 12 12 10 9 9 8 6 7 10 11 13 14 15 15 16 15 15 17 15 14 16 17 20 22 25 26 18 19 18 25 47 64 57 58 63 68 59
16 16 17 18 19 16 15 14 15 15 16 15 17 18 7 12 12 12 14 15 18 20 18 17 17 17 17 19 18 21 21 20 25 25 17 20 15 19 54 66 60 56 54 74
17 18 19 20 19 18 17 17 21 24 25 19 18 19 9 12 15 15 14 14 13 14 20 23 20 20 18 18 19 21 25 24 21 26 18 18 14 18 37 65 64 60 64 71
21 20 20 18 18 23 26 35 29 24 20 15 20 17 11 12 15 15 21 22 21 17 11 12 22 24 21 21 22 22 28 28 22 24 17 17 14 21 23 46 73 66 82 77
21 20 22 33 34 35 30 23 31 25 24 21 17 9 11 20 23 28 37 38 31 26 17 13 11 15 28 24 29 23 33 32 27 26 18 14 18 19 24 37 67 66 60 63
26 30 40 41 35 27 25 32 33 28 20 15 15 20 23 28 50 58 46 38 40 45 39 25 17 13 14 28 28 31 34 37 33 31 22 18 18 21 27 35 64 62 51 49
45 45 36 28 30 30 29 35 29 19 22 26 23 25 54 60 74 66 53 36 31 40 57 41 26 16 14 14 30 41 38 45 39 35 28 21 21 22 23 49 71 65 52 61
43 28 30 31 30 33 40 27 22 30 37 60 45 29 81 95 77 42 22 21 36 64 56 54 39 29 19 11 25 48 41 47 40 38 30 25 23 23 25 54 70 64 60 78
30 32 29 35 41 40 21 32 47 67 89 90 82 28 99 90 48 30 20 21 50 99 72 77 60 39 17 12 28 51 46 46 42 41 34 29 24 23 27 50 72 60 80 97
35 30 35 47 35 24 36 71 82 80 87 78 90 50 96 34 35 28 27 38 78 74 70 81 59 40 21 18 57 59 52 44 44 44 38 32 27 26 40 65 73 72 91 96
28 23 43 32 30 44 77 85 86 97 85 69 56 30 55 52 50 57 44 68 56 80 88 64 47 35 28 48 72 65 52 44 46 45 39 35 29 35 42 75 79 75 81 78
19 45 37 25 72 80 84 94 100 99 98 57 34 48 73 93 86 91 95 100 94 62 54 37 36 37 60 75 63 54 47 46 46 53 39 35 35 35 60 85 84 78 78 79
29 44 27 57 77 77 94 100 100 100 73 32 41 56 67 86 82 100 100 100 100 97 73 47 49 93 73 49 47 46 48 58 51 47 55 43 37 48 82 88 92 83 81 95
46 27 41 84 76 75 88 92 96 80 44 34 42 53 66 79 95 96 99 96 96 95 77 64 96 65 56 44 43 44 46 48 48 47 46 46 46 80 95 96 89 93 92 61
33 26 72 95 79 82 84 76 86 78 69 30 39 52 53 91 90 87 96 96 93 90 95 99 94 78 44 39 41 46 49 46 46 48 52 80 91 97 95 97 94 65 75 98
29 85 87 83 81 77 79 75 76 90 89 87 42 35 40 44 83 79 93 97 96 88 82 87 78 65 48 42 44 57 51 51 48 58 65 98 97 98 86 61 81 99 98 98
58 94 85 78 81 73 70 79 76 88 97 80 47 42 27 43 98 97 99 97 99 89 94 92 94 92 68 67 62 71 66 76 94 97 94 78 64 60 92 100 98 97 98 100
94 89 76 76 72 79 78 83 90 96 91 90 89 78 87 48 73 94 97 83 88 87 90 92 94 97 96 93 93 94 91 80 75 72 67 80 100 99 97 96 99 97 75 60
74 84 74 74 74 64 72 83 86 93 98 98 99 86 97 90 95 89 95 97 93 86 84 87 91 87 81 77 74 72 74 76 88 99 98 97 96 98 95 72 53 61 71 66
67 81 78 55 51 57 53 78 86 87 92 98 98 97 93 100 98 99 97 98 99 97 96 97 92 88 87 95 98 98 98 98 97 95 100 87 53 41 50 57 58 58 65 72
67 68 62 56 62 62 59 52 90 91 98 89 92 97 98 99 100 100 100 94 94 97 98 97 95 94 92 94 94 97 99 90 56 36 31 35 38 42 45 51 57 65 73 73
58 67 65 62 65 66 57 51 74 94 96 94 94 92 95 95 99 97 98 98 97 91 97 97 93 98 99 91 53 30 30 32 33 33 35 36 38 42 49 64 73 73 70 68
51 48 53 51 52 61 54 54 96 98 95 98 98 98 94 95 88 90 92 91 92 91 96 98 96 87 41 33 37 43 47 48 44 40 35 37 47 67 74 73 70 68 67 66

GFSCGP_500_rhum_048.txt.gz
RH
23 19 18 29 25 27 18 13 20 23 23 19 14 10 10 10 7 10 8 7 9 9 13 10 11 11 11 13 12 15 18 17 18 15 12 13 23 22 42 54 54 59 64 68
26 28 50 30 26 30 21 28 35 32 27 19 14 9 7 7 6 5 6 6 6 6 5 6 6 8 8 9 12 14 16 17 19 18 16 14 16 17 22 50 58 58 59 64
39 48 48 48 46 47 42 34 25 20 16 12 10 7 7 6 6 6 6 6 5 5 5 5 6 7 8 10 13 12 13 18 16 22 20 15 17 13 18 29 37 55 69 70
46 48 47 45 36 28 23 18 16 14 13 11 10 6 6 6 5 6 8 8 8 8 7 8 8 8 8 10 14 15 14 18 20 19 20 18 20 19 21 31 37 49 62 71
41 39 33 29 26 20 18 16 15 14 12 10 9 7 4 5 6 8 10 11 14 14 14 14 13 12 12 13 15 16 16 16 23 20 23 18 22 27 27 31 31 30 48 70
25 21 23 22 20 18 17 18 17 15 12 8 9 12 4 8 9 12 14 14 15 13 13 13 13 12 13 11 11 16 18 18 21 23 26 21 20 27 26 22 28 27 29 62
21 24 23 20 19 19 18 18 17 16 15 13 16 13 10 13 13 13 14 14 12 15 15 14 12 10 11 12 17 17 19 21 19 24 30 28 22 24 26 23 26 26 31 52
21 21 21 21 20 19 19 20 32 22 18 18 15 11 12 12 11 15 18 22 27 28 28 27 31 23 17 15 13 13 20 21 24 22 37 40 27 27 30 27 26 28 32 38
24 21 21 21 22 27 32 31 28 23 21 16 15 15 12 17 19 29 33 30 36 62 58 52 47 40 39 34 30 18 13 20 27 27 40 37 32 32 33 28 26 28 34 45
22 22 23 31 38 36 33 29 24 24 23 22 16 14 22 47 56 48 48 55 62 63 46 27 21 17 16 20 37 23 21 12 27 38 32 35 38 36 34 28 25 29 35 47
25 27 37 43 38 30 25 25 26 27 26 24 17 29 72 76 85 74 68 69 58 46 30 25 19 16 12 14 19 30 17 13 23 37 31 46 47 40 35 30 27 28 34 46
45 51 50 35 28 26 23 31 32 22 33 39 58 24 84 87 64 52 43 49 48 42 34 31 28 30 28 37 53 39 17 14 21 33 48 59 53 46 40 33 30 35 40 52
55 47 32 32 29 21 28 29 24 36 61 76 63 67 97 43 48 61 65 80 70 65 80 73 46 61 81 100 95 62 31 14 23 52 68 60 55 49 42 38 35 42 40 58
40 36 34 29 19 29 28 46 60 71 67 69 70 36 40 53 79 81 81 96 88 100 98 89 63 56 74 100 95 78 40 24 66 82 69 59 56 52 44 49 42 46 46 76
37 30 25 17 34 37 48 86 90 79 75 66 54 31 35 43 70 78 83 100 100 99 81 99 65 75 87 93 98 82 50 66 88 77 64 59 59 49 44 44 44 46 62 91
34 19 16 49 33 31 81 82 83 78 83 65 36 37 32 34 70 67 93 83 93 100 90 69 50 49 48 51 40 34 69 89 75 68 64 65 61 50 50 46 54 49 94 100
33 10 34 37 34 73 87 78 74 76 100 74 65 48 34 25 34 62 91 94 75 67 74 47 30 36 38 36 49 88 95 70 72 69 67 65 85 85 62 57 55 99 100 99
13 18 44 29 43 71 77 76 79 80 91 86 85 52 31 26 76 56 70 99 90 82 67 62 68 77 70 70 93 89 61 67 69 71 67 82 90 76 60 65 100 99 92 94
13 45 24 40 69 77 75 88 86 82 86 85 71 60 41 45 97 72 66 69 88 86 79 77 78 82 82 82 66 55 64 67 66 69 56 55 49 77 91 86 95 99 100 73
54 32 57 75 76 76 87 96 86 98 90 84 92 88 64 63 95 89 63 96 80 75 79 67 54 54 50 50 52 58 62 56 56 52 53 60 68 99 100 98 89 72 96 99
45 27 70 71 74 78 90 95 88 97 96 86 89 90 91 66 68 98 88 68 98 97 87 86 71 67 63 76 75 67 100 59 85 88 100 99 98 91 78 96 98 98 96 83
30 59 82 74 79 88 89 84 88 89 99 100 93 83 86 92 78 92 100 96 93 72 71 78 97 100 98 93 98 99 97 97 97 99 92 82 79 98 100 96 75 56 55 64
38 73 87 79 75 59 55 53 70 83 95 100 92 93 84 97 89 100 86 81 90 97 93 85 71 72 89 94 93 92 84 76 76 77 86 95 93 60 38 44 51 51 51 59
54 72 83 80 67 59 51 50 49 77 86 99 98 77 98 90 94 97 92 91 99 98 93 96 95 91 89 94 96 94 96 98 97 78 52 36 36 38 40 44 46 58 74 76
62 65 77 74 64 57 58 62 51 74 92 94 100 91 89 98 98 98 99 96 96 92 96 95 90 90 94 95 92 69 40 33 36 38 42 42 38 40 49 64 76 76 70 63
60 59 69 62 78 53 61 57 50 93 97 91 100 96 97 99 95 97 97 97 99 96 95 96 98 99 78 40 39 44 49 53 53 48 42 40 48 68 80 78 74 65 60 62

GFSCGP_500_rhum_051.txt.gz
RH
21 18 17 21 20 19 15 16 22 23 17 15 12 8 10 12 9 10 10 10 9 9 11 9 8 10 11 11 10 11 14 10 8 16 19 19 20 12 14 24 20 40 57 67
20 19 34 19 18 16 12 15 20 23 18 13 12 9 11 15 10 10 11 10 9 8 8 8 7 7 8 8 10 10 9 12 10 12 13 17 20 23 22 33 32 35 33 49
23 29 30 24 22 24 21 20 24 21 20 14 11 9 15 15 14 13 11 8 8 7 6 6 6 6 7 7 8 9 10 10 11 11 11 18 27 36 32 42 45 29 20 22
28 23 22 29 42 38 30 25 33 38 35 23 20 10 14 15 13 10 8 7 6 6 6 6 6 6 5 6 7 7 9 9 9 11 13 13 14 21 30 20 34 34 41 50
37 37 38 50 56 45 43 44 38 31 26 23 18 13 11 11 8 7 7 6 7 7 7 7 7 8 9 9 10 12 13 14 12 11 13 15 16 22 30 38 47 50 54 55
41 53 61 58 51 41 33 28 22 19 16 15 13 11 8 8 7 6 6 7 11 13 13 14 14 13 13 13 13 13 14 15 14 14 14 15 19 23 28 52 53 53 47 54
44 55 47 38 31 26 22 20 18 16 13 11 10 9 7 7 8 8 10 13 12 13 13 12 12 11 10 10 11 12 14 16 20 19 13 14 16 27 34 41 58 56 38 40
38 35 31 25 25 22 21 20 18 15 13 13 10 6 8 13 15 16 16 18 20 17 16 17 18 20 21 21 19 18 15 12 11 19 20 19 17 22 39 46 56 56 54 51
29 29 26 24 22 22 22 21 20 21 20 14 16 12 14 16 16 19 17 21 27 34 39 39 41 44 54 51 42 32 31 20 12 12 12 25 23 28 42 55 64 64 58 52
26 26 25 24 23 24 26 26 26 28 22 18 15 14 14 26 31 27 31 36 28 24 22 21 22 36 56 60 63 56 49 37 29 20 22 14 31 50 48 59 66 57 42 38
24 24 26 27 26 24 32 35 28 24 20 18 15 14 45 38 38 52 42 31 33 41 40 41 35 40 42 31 27 25 35 43 43 34 27 24 26 53 53 63 64 46 43 43
25 24 28 29 34 38 35 26 21 18 22 25 20 26 64 65 61 32 34 53 62 60 55 47 55 64 60 34 40 40 26 17 17 30 33 23 26 54 59 71 60 52 49 45
27 28 39 43 45 34 27 23 26 26 24 29 30 73 62 45 28 25 37 44 59 76 78 77 82 80 87 71 61 49 30 19 13 29 30 19 30 64 66 68 62 55 49 50
41 52 50 43 34 28 21 27 34 27 54 62 71 64 56 34 28 26 34 53 84 82 81 90 95 100 94 67 52 37 34 28 38 82 40 18 38 65 67 70 63 57 52 60
57 47 37 32 31 19 30 41 30 65 80 64 65 74 48 38 31 34 51 53 54 67 90 100 100 88 81 57 78 83 92 100 93 94 49 33 64 70 69 71 66 57 60 83
41 36 32 28 16 22 29 32 89 81 74 61 79 76 55 35 30 52 45 40 62 83 56 68 64 65 62 76 80 80 99 100 99 69 36 54 81 76 78 73 66 71 74 54
32 36 23 14 27 32 46 81 78 84 76 77 77 62 41 35 46 59 53 55 64 72 47 32 33 44 60 82 86 96 99 95 67 43 50 82 79 76 70 67 99 86 56 52
41 45 16 20 36 31 57 87 90 80 67 84 82 64 38 57 57 55 60 87 73 73 73 35 33 34 34 32 38 64 75 70 73 84 83 76 64 76 95 96 76 60 59 58
47 46 12 42 29 40 85 85 84 82 87 92 84 75 47 66 85 76 73 97 93 90 90 76 74 72 68 79 91 91 86 88 86 79 78 75 97 91 74 84 69 97 90 100
42 12 46 35 72 84 82 84 90 94 96 90 83 83 48 54 64 82 83 68 88 70 71 57 76 95 98 98 97 92 88 89 96 100 99 98 69 75 68 80 90 99 99 97
16 42 45 45 92 84 80 89 94 98 87 83 76 75 76 67 61 71 86 93 72 88 96 88 91 52 52 55 68 76 90 98 97 86 64 90 98 98 99 98 100 98 91 94
38 56 35 79 90 79 75 77 72 88 94 83 74 79 72 61 66 68 80 75 89 98 75 97 96 98 93 100 92 98 98 95 99 85 82 100 98 98 93 92 94 94 77 48
58 48 75 84 84 78 62 69 53 54 72 87 78 70 85 76 72 75 72 72 76 92 94 90 89 100 100 99 99 97 99 99 97 98 99 100 100 100 98 66 48 44 44 44
61 48 80 79 78 64 74 74 65 56 58 83 89 91 97 78 82 82 82 76 67 70 74 89 97 96 94 88 80 81 84 92 100 100 95 79 70 52 43 39 37 39 56 71
58 60 76 78 83 75 74 71 72 58 60 84 86 90 90 96 84 77 76 97 83 80 76 82 95 98 97 98 98 90 76 49 39 37 41 47 48 44 41 46 61 74 77 70
55 68 67 68 79 72 73 71 55 50 74 94 92 92 94 94 100 92 91 86 88 86 86 88 89 90 83 47 36 40 48 62 70 68 64 57 54 58 67 77 79 72 65 66

GFSCGP_500_rhum_054.txt.gz
RH
67 55 49 69 65 42 21 16 14 12 10 8 7 7 9 12 11 10 9 11 10 9 9 8 8 9 9 9 10 10 10 7 17 37 48 49 50 52 39 31 34 25 27 29
41 42 36 34 25 22 18 15 15 14 10 8 9 7 12 13 11 10 10 12 16 12 10 10 10 10 10 12 11 10 10 10 5 6 11 16 28 38 44 43 52 61 36 44
34 33 29 24 22 20 18 17 17 15 12 8 11 9 13 15 11 11 12 13 14 16 13 12 11 10 10 9 9 9 8 8 7 5 8 20 32 30 38 52 58 63 55 45
36 35 46 25 21 21 17 18 17 14 14 10 11 7 15 14 14 14 14 16 19 16 14 13 11 10 10 9 8 8 7 6 4 5 5 5 12 14 16 21 29 32 40 37
62 51 39 25 29 25 26 25 23 18 15 13 15 9 17 19 20 20 20 19 16 12 10 9 8 8 7 6 6 6 6 6 6 5 5 5 6 6 10 17 29 35 52 77
43 40 38 34 28 32 47 49 38 31 25 14 21 13 14 15 15 15 14 12 10 9 8 7 7 6 6 7 8 8 9 13 15 14 12 10 9 11 12 13 25 32 40 53
37 40 44 42 34 46 53 47 39 32 26 20 18 15 14 12 11 10 10 9 8 8 7 6 6 8 10 12 13 13 13 13 14 14 13 12 12 12 13 15 17 34 41 58
49 55 62 53 54 49 37 31 25 20 18 16 14 12 12 11 14 11 10 9 9 9 9 10 11 12 14 14 12 12 12 12 12 11 10 11 11 12 14 17 19 28 43 52
45 50 52 50 40 32 25 21 20 18 15 12 12 11 16 17 20 18 16 15 13 12 12 14 22 28 29 32 30 36 31 21 18 15 13 12 12 12 15 24 26 38 44 54
40 42 35 31 28 25 22 21 21 21 17 17 18 20 20 18 16 15 16 19 26 27 26 22 19 17 20 23 24 27 40 49 46 34 23 20 18 10 10 16 30 47 56 66
34 35 28 26 26 24 22 26 31 31 27 23 19 22 24 23 18 19 29 30 27 22 21 22 27 28 32 34 36 39 38 29 43 61 50 34 27 15 16 54 41 64 65 65
32 28 28 25 23 25 30 35 34 27 23 20 22 34 29 23 26 42 32 25 20 28 36 38 59 66 56 55 47 79 71 56 40 60 74 58 45 24 31 54 52 64 80 77
27 26 27 26 32 42 43 32 27 22 22 29 25 68 59 46 54 40 30 24 28 37 45 48 59 68 68 56 92 86 72 62 44 28 30 46 55 56 53 55 77 66 76 78
27 28 31 41 44 41 32 29 24 21 34 26 79 69 69 56 47 41 37 34 46 42 38 50 30 26 61 96 100 97 89 75 57 41 34 19 48 62 68 53 69 59 73 78
31 47 53 52 40 32 30 24 18 33 34 61 78 63 61 62 60 35 29 51 48 44 47 43 17 26 56 98 97 88 71 83 74 85 56 28 68 76 54 32 44 74 83 69
61 56 46 36 32 31 22 26 29 35 74 62 54 72 64 55 24 33 41 44 44 48 51 26 23 22 33 75 90 57 41 43 53 56 58 49 52 55 28 21 31 81 71 70
58 41 34 32 26 17 31 31 45 77 67 62 70 81 66 30 47 46 49 56 57 54 54 28 22 36 49 71 74 65 78 83 80 84 88 58 50 32 26 42 70 72 68 69
36 33 40 36 14 21 31 40 69 73 70 81 94 79 38 54 62 50 52 56 52 60 58 56 22 26 45 54 95 99 95 96 99 93 98 66 37 29 60 74 75 87 88 85
33 39 51 38 19 35 33 72 85 80 83 93 90 92 74 47 56 53 48 51 55 64 71 60 78 66 41 42 58 91 94 81 99 78 70 46 58 84 83 82 98 91 99 82
44 45 41 31 39 34 77 93 92 91 91 95 83 89 78 72 59 53 61 66 55 64 78 73 56 93 96 89 95 86 82 80 79 86 88 89 93 100 99 98 97 95 96 100
46 40 21 53 43 71 90 94 93 82 85 82 83 80 79 75 68 61 68 58 79 67 64 69 72 80 71 86 97 97 96 96 99 100 98 99 98 99 93 91 99 99 93 97
28 20 40 46 54 88 88 90 70 65 75 74 78 80 76 79 68 67 72 63 71 66 68 67 76 92 94 96 97 96 98 99 98 94 95 99 98 94 93 93 98 98 99 97
31 39 58 43 90 94 85 64 64 58 53 61 76 76 73 86 77 74 71 77 72 64 68 68 69 73 92 92 91 87 93 93 93 94 98 98 94 95 100 97 83 59 59 64
43 45 59 66 98 100 72 68 65 67 49 62 87 81 84 99 89 81 73 68 75 79 76 73 70 69 79 86 90 96 95 92 90 94 95 98 93 77 62 55 54 45 42 54
50 53 62 73 96 95 72 72 68 56 42 48 88 85 82 94 94 81 84 84 75 82 90 90 92 90 89 91 91 94 85 63 45 44 47 54 64 61 52 55 60 63 66 65
39 52 54 73 81 92 81 66 69 47 42 56 88 86 94 97 99 96 91 96 98 95 96 93 91 96 94 59 41 45 58 77 79 75 75 75 72 66 62 62 64 66 64 64

GFSCGP_500_rhum_060.txt.gz
RH
94 97 83 67 44 34 29 26 25 24 19 14 14 12 14 16 14 14 13 14 14 12 11 9 10 11 8 8 9 9 7 6 6 7 8 12 30 38 46 50 53 59 61 59
100 98 94 94 77 47 34 29 26 24 22 17 14 11 11 12 12 13 13 13 12 12 10 9 10 11 10 8 8 9 8 7 6 6 7 8 10 17 35 52 63 73 76 76
100 99 99 96 97 94 54 35 32 26 24 19 17 13 14 13 10 9 9 9 10 10 10 9 9 10 9 8 9 9 9 8 7 7 7 7 8 9 13 33 44 45 64 62
100 98 99 100 99 100 100 97 60 40 24 19 17 12 16 15 13 11 8 7 7 8 9 9 8 11 11 10 12 10 9 9 9 10 9 9 10 11 13 16 18 28 38 43
90 100 100 99 100 99 98 100 100 85 46 25 19 13 18 15 13 12 10 8 7 8 8 10 11 11 10 10 12 12 10 10 11 10 10 12 12 13 14 14 15 13 14 34
100 100 98 94 95 92 76 84 75 40 25 20 19 15 19 15 14 13 11 10 9 10 12 12 13 12 12 13 16 16 16 15 14 13 12 12 11 10 10 9 9 11 11 10
98 99 99 97 93 82 38 27 24 22 20 18 20 18 21 18 16 17 18 16 13 14 15 15 15 15 16 17 17 16 15 14 13 11 10 9 8 8 7 6 5 6 7 19
89 90 96 86 82 53 38 31 24 22 20 22 23 22 24 21 19 20 19 18 16 16 16 16 15 14 14 13 13 12 11 10 9 8 8 8 7 7 6 6 6 5 5 8
99 95 72 62 64 60 64 53 35 31 26 31 29 26 27 22 18 16 15 14 13 13 12 12 11 11 10 10 10 9 10 10 11 10 10 10 9 8 7 8 7 7 6 7
93 99 90 87 86 88 66 56 47 34 36 34 27 23 22 20 17 15 14 14 14 13 11 10 9 9 10 11 11 12 13 17 21 24 23 23 23 20 19 17 14 14 12 12
72 60 66 63 53 56 56 67 49 41 31 27 23 25 28 23 18 19 18 15 14 12 11 11 11 12 11 12 18 23 24 21 21 26 30 32 33 34 34 34 36 37 27 18
67 57 62 68 72 72 68 54 41 31 26 25 33 31 27 23 22 19 18 17 15 14 16 21 28 26 24 18 16 18 28 31 27 18 13 15 17 23 43 43 39 34 37 49
55 54 59 58 56 50 40 32 28 29 35 38 35 29 24 20 17 18 17 17 17 18 21 25 24 19 26 31 31 27 20 17 20 24 21 20 20 19 19 18 28 32 34 38
48 48 45 39 36 33 30 28 31 32 37 34 31 26 23 18 21 27 26 33 36 35 25 19 22 30 26 29 26 19 17 21 26 27 32 40 66 67 54 69 92 79 63 53
43 38 34 32 32 35 37 40 43 39 32 30 25 33 20 28 40 47 41 42 28 28 31 25 36 33 26 27 26 18 21 19 22 33 58 67 71 78 100 100 100 100 89 83
35 31 28 29 38 43 47 45 40 33 28 26 31 50 52 65 54 51 52 31 33 38 35 38 34 30 26 24 29 21 29 28 36 62 43 68 82 88 100 100 81 91 90 85
29 29 34 48 54 52 43 36 31 26 28 33 68 74 60 57 62 52 30 41 40 39 35 32 34 33 27 26 30 25 26 35 59 86 54 70 85 98 100 96 90 85 94 99
28 36 53 55 46 37 32 28 24 31 41 67 75 67 73 78 55 33 52 46 45 55 39 32 41 41 30 27 35 31 34 50 57 77 89 56 76 100 97 96 86 72 100 98
56 61 58 43 37 42 35 24 33 38 75 79 73 85 81 71 55 41 44 55 55 57 48 50 52 45 46 41 39 43 58 46 38 62 83 49 52 65 83 100 73 70 78 79
66 59 44 36 39 44 38 33 37 74 87 81 91 84 74 76 71 54 60 56 49 57 51 45 46 56 57 55 49 49 53 52 48 32 35 68 63 61 78 84 86 98 92 91
53 45 42 39 37 43 39 44 81 93 90 96 90 82 81 81 80 69 63 52 50 56 55 42 52 52 59 59 57 60 60 57 62 64 96 67 50 46 59 67 88 99 100 99
56 53 53 41 42 42 44 72 90 87 86 79 80 74 72 73 70 70 68 59 53 52 56 60 59 56 56 53 56 60 65 67 69 69 78 87 97 100 99 99 98 98 98 99
54 48 45 44 40 40 40 82 90 75 56 55 55 53 74 75 76 75 77 72 60 56 56 60 60 59 64 64 61 62 64 72 72 78 83 91 91 89 87 85 77 72 68 64
37 34 35 37 42 40 51 88 84 58 64 63 49 49 63 73 80 99 91 82 71 66 63 64 64 65 72 77 75 70 67 64 63 64 68 71 73 72 70 67 67 69 70 71
51 40 36 41 40 44 54 85 76 64 63 66 48 51 75 76 81 86 91 88 84 87 75 74 71 70 74 74 52 41 49 70 78 78 79 81 82 80 78 76 74 72 72 68
55 57 48 49 29 53 75 93 83 74 67 62 48 71 91 87 94 98 99 94 92 87 81 83 86 81 83 50 46 62 80 83 85 80 80 76 76 77 79 80 80 77 69 63

GFSCGP_500_rhum_063.txt.gz
RH
87 98 86 79 73 40 32 31 31 30 22 18 21 16 14 14 16 16 18 17 17 14 13 10 8 7 7 8 9 8 8 10 9 8 8 15 15 19 36 40 54 59 62 80
99 95 100 99 82 53 36 32 31 29 25 18 16 23 20 18 17 16 16 15 14 14 14 13 11 10 9 8 8 10 8 9 10 10 10 8 8 12 22 32 45 54 60 74
100 98 100 100 88 72 47 35 31 30 27 24 19 14 16 16 16 16 14 14 14 13 14 14 12 11 9 9 8 9 10 8 9 11 10 8 8 8 9 10 13 23 34 54
100 99 99 100 96 97 77 44 37 32 28 24 22 19 22 16 13 12 12 12 12 12 11 11 10 10 10 9 8 8 11 10 8 9 10 9 8 9 10 10 12 12 15 18
100 98 100 98 99 100 100 96 52 39 31 26 22 20 20 16 14 14 12 10 10 9 8 8 8 8 8 8 8 8 10 10 10 10 11 10 9 9 11 12 13 15 16 16
100 99 98 100 100 100 99 99 97 58 36 24 21 19 23 17 15 14 13 12 12 11 10 9 8 8 8 8 8 8 9 10 11 12 14 15 16 14 12 12 14 15 17 19
100 99 100 100 99 98 95 97 99 100 74 45 33 28 24 18 15 14 13 12 11 11 10 9 9 10 9 10 11 11 11 12 13 14 15 14 15 14 13 12 12 12 13 13
100 94 100 99 98 97 95 96 90 80 62 40 29 24 21 19 17 15 14 14 13 12 11 11 11 12 12 12 14 15 16 15 15 15 14 14 14 13 11 10 9 9 8 8
100 100 93 98 95 95 91 64 46 36 33 28 26 23 25 23 19 17 16 16 16 15 14 14 14 15 14 13 12 11 10 9 9 9 9 8 8 8 8 8 8 9 10 9
98 98 98 93 85 90 82 61 49 36 31 34 31 30 27 24 22 19 17 16 16 15 14 13 12 12 11 10 10 9 9 10 10 11 12 13 14 16 17 19 18 18 18 17
100 100 86 81 78 79 72 63 62 54 42 42 38 30 26 22 20 19 18 16 15 14 13 12 11 10 9 10 11 12 12 15 20 22 22 22 22 25 30 33 34 34 31 32
81 95 97 87 83 83 82 84 68 61 52 41 32 26 22 21 20 19 17 15 14 12 11 11 11 10 10 11 14 20 18 22 28 30 29 25 20 20 18 18 24 31 48 53
78 66 70 75 74 73 83 83 73 57 43 29 26 28 24 22 19 16 19 16 16 15 14 13 13 14 14 18 18 20 21 17 16 16 16 19 22 26 25 19 20 24 23 21
85 67 67 74 76 76 78 84 79 49 30 38 35 31 24 20 21 21 20 21 22 22 23 26 26 22 17 16 22 19 18 17 14 17 22 19 20 38 28 27 38 44 55 51
62 61 66 60 45 42 35 32 30 38 43 37 30 28 22 24 23 22 27 35 34 34 31 23 22 25 24 26 22 16 19 16 12 14 24 38 40 33 34 45 48 60 71 68
51 49 37 35 35 37 38 42 47 47 39 34 30 25 22 20 23 37 43 40 34 30 26 29 30 27 28 25 19 20 16 20 15 20 33 35 22 46 58 47 62 94 96 100
35 33 32 32 38 44 48 49 45 38 32 29 25 25 30 46 58 50 41 43 28 26 34 35 28 27 32 21 23 26 19 24 16 19 18 18 33 49 68 71 96 99 100 100
30 31 36 47 55 55 44 39 34 30 27 27 28 44 68 63 53 53 46 40 45 39 38 38 36 41 42 33 34 34 33 32 22 19 16 27 46 58 66 89 100 100 100 100
29 33 53 58 49 40 37 32 26 24 33 42 63 77 68 78 73 61 35 46 46 45 43 49 49 51 41 48 36 38 39 34 33 27 24 26 47 57 74 86 79 76 85 94
46 56 60 55 39 38 45 40 27 33 46 77 83 77 87 86 81 76 62 57 52 49 54 53 42 41 42 50 38 42 42 43 47 45 32 33 30 35 39 40 61 97 98 58
63 64 60 45 39 38 40 41 33 40 69 96 92 91 90 80 78 76 69 58 60 55 55 45 47 50 54 49 43 42 45 46 48 54 48 55 67 82 89 92 96 100 98 100
66 60 53 47 45 37 34 42 45 64 87 93 88 86 82 77 71 68 69 64 68 60 55 56 53 49 51 51 50 49 49 52 55 60 69 69 76 77 84 90 93 97 96 94
71 65 58 55 54 43 36 42 54 90 97 86 70 70 61 64 70 68 71 78 74 64 62 60 61 53 54 58 57 55 56 55 60 64 66 68 70 71 70 70 68 66 67 66
57 55 52 46 41 39 38 39 54 92 88 64 68 50 52 68 76 75 90 88 85 77 72 67 62 56 60 64 67 64 57 54 63 71 71 70 71 72 74 72 72 72 70 69
42 42 42 33 33 36 37 38 62 91 71 69 64 48 45 65 75 84 89 96 95 87 88 78 71 68 67 68 47 42 54 76 80 79 74 72 68 71 77 82 81 78 75 69
40 51 47 52 30 37 44 46 62 87 73 70 67 49 61 85 87 90 90 97 99 100 97 85 81 77 75 67 50 58 76 87 84 81 77 73 71 73 74 73 73 72 68 66

GFSCGP_500_rhum_066.txt.gz
RH
23 32 93 87 95 100 62 47 36 36 31 38 25 23 29 34 24 20 21 24 22 19 18 15 12 12 11 11 10 11 11 11 10 10 10 10 10 10 10 12 38 35 40 52
32 25 86 100 100 98 68 46 37 36 33 29 29 24 20 24 27 22 19 17 18 17 16 14 13 11 12 11 10 10 10 10 11 11 12 11 11 10 9 12 18 25 30 48
28 37 96 100 99 98 79 45 39 36 33 31 26 35 37 23 20 20 20 16 16 16 14 13 12 11 11 10 10 10 10 9 8 9 12 10 9 10 10 10 11 12 21 30
46 66 99 98 100 97 71 44 38 36 34 30 27 22 20 22 20 19 16 14 14 15 15 14 13 12 11 10 9 10 10 10 9 8 9 11 10 10 11 10 10 10 11 14
90 100 97 100 96 94 90 55 40 37 33 30 28 26 20 18 17 18 25 22 16 15 14 13 12 11 11 10 10 9 9 9 9 8 8 10 10 10 12 12 11 10 10 10
100 100 100 100 99 98 100 88 55 39 34 31 27 26 24 22 19 16 14 15 15 13 12 11 10 9 9 8 7 7 7 7 8 8 8 9 10 11 13 16 14 12 11 11
100 96 100 99 99 100 100 99 82 56 43 33 29 26 22 21 19 17 15 14 12 12 11 11 10 10 9 8 8 7 6 7 7 8 10 12 13 14 16 18 17 18 18 18
93 96 94 100 100 100 98 93 98 92 60 44 37 29 24 23 18 17 15 14 13 12 11 11 10 10 10 9 9 8 8 10 12 13 14 14 16 16 16 15 14 12 12 11
100 98 100 100 100 99 100 100 98 100 100 96 67 47 35 27 21 18 16 14 13 12 12 12 12 12 11 10 10 10 12 13 13 12 10 10 9 9 8 9 9 10 11 12
100 97 99 93 100 100 100 94 93 99 96 86 44 34 28 25 21 18 17 16 16 16 15 14 13 12 12 12 12 11 10 10 9 8 8 10 11 12 13 14 16 19 21 22
95 91 88 90 94 95 98 97 76 68 67 39 34 30 26 24 24 22 20 19 18 17 16 14 14 13 12 12 11 10 9 9 10 12 14 16 18 20 22 25 30 37 41 43
96 93 100 94 92 92 96 90 73 62 50 42 39 34 30 26 26 24 22 21 20 17 16 15 14 12 11 10 9 10 11 12 14 16 20 15 15 15 17 19 19 20 22 23
90 96 99 87 80 77 79 77 68 65 62 56 43 35 29 25 23 21 20 18 17 15 14 12 11 10 10 11 11 11 11 15 20 17 13 12 13 14 16 26 28 29 33 38
78 75 82 79 76 74 73 75 78 69 64 52 37 31 28 24 21 21 23 19 16 16 15 14 14 14 14 13 13 16 15 21 18 14 13 12 9 11 19 24 20 21 25 28
82 76 76 81 80 76 75 79 82 78 50 42 33 33 30 26 25 25 24 21 20 19 17 16 20 23 23 20 20 18 20 18 16 15 13 10 6 9 12 16 25 39 36 33
76 68 83 91 63 75 73 78 70 75 66 54 43 36 30 27 26 24 22 22 22 26 32 34 32 31 29 26 27 25 20 19 17 15 15 10 8 12 18 26 41 53 59 52
66 64 52 50 46 50 41 39 39 43 41 40 37 32 28 24 21 22 30 41 40 37 31 29 34 31 30 28 29 21 19 21 22 16 15 16 13 12 18 28 51 56 68 89
48 45 38 37 38 42 46 48 46 44 40 34 31 29 26 25 34 47 48 42 42 32 27 31 38 38 32 37 36 29 26 22 24 21 22 22 23 22 26 30 36 41 55 63
35 35 36 48 56 50 47 42 37 34 31 27 27 28 29 54 55 51 52 52 36 45 43 41 41 41 48 49 39 36 28 27 30 27 27 27 32 36 34 36 40 55 56 66
32 32 47 55 55 44 41 42 35 26 24 29 40 48 66 67 73 79 70 54 50 48 46 48 47 46 41 38 44 36 31 37 37 36 36 35 38 45 49 52 60 64 66 68
41 52 61 60 54 41 40 41 41 29 28 45 79 85 80 88 89 82 80 71 64 55 49 50 48 43 44 46 46 42 38 44 46 47 46 39 49 51 56 65 73 76 80 85
60 64 64 61 50 43 41 36 40 43 43 82 96 98 96 92 89 79 77 72 66 63 54 52 51 47 48 57 49 45 42 44 49 58 56 59 59 59 62 66 68 68 68 70
70 66 62 58 53 51 51 40 36 41 61 92 100 93 90 86 80 76 69 70 67 65 65 58 55 51 48 48 48 53 53 52 55 67 65 63 62 61 60 58 56 57 61 62
73 71 69 64 59 54 52 45 37 41 65 96 99 70 62 59 69 71 67 68 71 76 77 73 71 63 56 57 58 62 63 60 61 63 62 60 63 59 56 54 55 59 63 65
49 52 56 56 53 46 43 40 39 37 59 100 82 77 55 46 48 60 69 78 89 92 88 87 80 69 66 68 63 52 45 49 63 69 68 67 64 58 56 59 62 64 63 60
33 43 45 49 44 40 34 36 38 38 54 100 82 79 67 53 79 81 83 84 84 92 97 95 92 84 80 76 60 50 53 68 78 84 83 76 67 64 64 64 64 61 56 54

GFSCGP_500_rhum_072.txt.gz
RH
100 94 72 52 60 43 55 91 95 97 71 43 37 56 89 97 98 96 94 90 80 69 52 39 32 30 32 29 22 20 17 12 19 17 15 14 12 17 16 19 18 17 21 16
85 92 70 76 82 68 82 99 97 100 92 49 42 36 75 81 94 99 97 95 84 77 68 50 40 35 32 26 24 23 19 13 11 10 11 13 11 10 10 21 18 11 11 22
65 66 66 63 61 52 58 81 72 100 95 57 43 36 37 68 84 95 98 94 83 83 70 56 47 38 33 28 26 25 20 14 12 12 11 11 12 10 9 10 10 12 15 18
72 73 80 92 51 50 60 89 100 100 87 65 54 40 38 41 82 96 97 94 96 80 74 54 38 32 29 28 28 26 21 16 12 12 12 10 10 10 11 11 11 11 10 9
97 78 61 72 39 36 47 94 93 100 88 89 69 48 38 40 63 85 69 90 83 84 76 59 37 21 22 21 21 20 18 16 14 13 12 12 10 10 10 11 11 11 11 11
76 87 61 48 40 41 76 96 100 100 100 96 76 56 40 36 50 80 33 42 43 59 70 60 36 38 36 24 14 12 13 13 12 11 11 11 11 10 9 9 9 9 10 10
70 62 44 34 34 44 99 99 99 100 100 84 78 67 44 36 41 79 47 28 29 25 24 34 51 52 54 36 22 14 12 11 11 11 11 10 8 8 7 7 7 8 10 11
52 43 37 36 36 75 100 100 97 94 84 78 75 62 47 37 34 69 76 45 38 40 43 26 20 18 17 17 17 16 18 14 10 9 9 9 8 8 8 8 8 10 12 14
53 37 31 58 96 100 96 90 100 100 100 99 78 61 50 38 34 37 75 52 26 25 47 42 23 19 19 22 25 26 18 13 10 10 10 10 10 9 9 9 11 12 10 8
73 62 90 99 93 99 98 100 97 100 100 99 80 62 49 39 34 32 42 56 34 24 20 18 17 15 14 14 13 12 11 11 11 10 10 10 10 11 11 10 9 9 11 11
98 100 100 100 99 94 93 99 98 97 100 100 88 65 51 41 34 30 28 26 24 22 20 19 17 16 14 14 13 13 12 11 11 12 12 12 11 10 9 9 11 14 8 6
92 99 100 98 98 100 100 100 98 96 95 90 99 85 76 48 39 33 30 26 25 22 21 19 18 17 16 14 13 13 13 14 14 13 12 11 10 8 10 12 13 8 6 5
76 76 72 69 71 89 95 97 98 95 99 98 99 84 93 64 68 56 41 37 31 26 25 23 20 18 16 14 14 16 15 14 13 12 10 8 9 10 11 14 9 7 5 5
67 64 58 54 69 81 90 96 99 99 99 96 86 86 64 46 37 37 34 33 29 25 22 21 21 20 19 18 17 16 15 13 11 9 9 9 10 11 14 13 8 8 6 8
57 62 60 61 66 74 79 83 93 98 91 79 68 84 74 45 36 33 31 29 29 27 25 24 23 21 20 18 16 14 12 11 11 10 10 11 12 15 16 12 8 8 9 10
68 75 68 77 80 71 70 73 77 86 94 84 77 71 65 56 46 37 30 28 26 24 22 21 20 18 16 14 13 13 13 12 12 14 15 14 15 19 15 12 10 11 9 14
84 81 71 72 73 72 70 68 68 69 73 78 71 68 62 57 41 34 30 28 25 22 20 19 18 17 16 15 16 15 16 19 21 20 18 20 23 20 17 15 12 12 15 19
60 68 73 76 84 80 70 73 77 77 78 83 76 66 56 40 37 36 35 32 28 26 23 21 20 19 17 16 19 25 27 30 28 26 24 24 21 20 20 19 17 18 16 26
47 55 68 65 66 65 78 60 67 65 64 71 81 68 59 51 44 37 32 28 24 22 22 21 23 26 28 30 30 31 33 28 30 32 29 26 22 24 25 24 24 25 28 35
40 53 62 49 40 42 64 72 72 56 52 50 48 47 44 38 33 32 28 29 38 43 40 37 37 36 33 32 34 38 37 42 43 36 32 29 32 35 29 32 33 35 38 40
36 47 52 37 36 50 68 68 61 52 47 42 39 35 32 31 32 33 38 55 64 67 57 46 38 41 44 45 46 45 41 38 43 39 34 37 41 42 41 39 44 45 44 47
36 35 34 33 43 58 63 60 52 58 50 41 35 33 33 45 54 58 70 79 87 85 78 67 61 53 54 54 49 44 43 50 45 40 39 39 41 45 52 52 51 50 48 42
45 42 49 47 58 58 60 60 55 44 42 46 44 41 50 84 93 89 84 90 87 84 81 72 65 57 59 58 50 47 54 52 50 45 44 50 54 57 59 56 54 52 45 40
75 63 60 58 60 61 59 56 50 47 51 43 44 58 81 100 100 96 91 87 84 81 80 80 74 66 59 58 55 51 48 47 46 47 54 65 67 65 63 58 56 50 47 46
85 84 76 72 68 66 64 62 61 57 55 54 44 47 80 99 100 93 83 71 72 78 75 74 75 77 75 66 62 62 58 52 52 57 60 66 71 71 66 67 61 55 53 52
28 36 56 65 67 64 63 63 60 58 53 48 44 41 56 98 98 81 56 58 73 75 72 86 92 93 88 84 80 74 68 66 64 56 58 71 74 71 73 80 74 72 61 58

GFSCGP_500_rhum_075.txt.gz
RH
100 100 94 64 71 60 36 21 26 66 64 84 86 51 51 85 97 96 90 79 95 77 56 48 45 40 33 29 26 24 21 22 25 29 40 39 33 27 19 13 19 35 21 21
100 90 95 99 94 95 78 36 24 66 94 91 97 72 50 59 92 99 100 97 93 95 66 48 44 38 35 31 27 26 26 25 22 20 17 20 22 25 23 21 23 22 14 21
99 85 98 100 92 82 81 44 50 82 89 79 74 78 56 39 70 98 99 96 82 86 84 61 45 42 37 35 33 33 32 30 25 20 19 14 14 13 13 10 10 17 27 30
90 92 100 100 91 81 79 60 63 70 95 69 59 53 65 40 36 88 89 93 88 74 83 78 71 47 49 48 42 38 35 30 25 22 20 17 14 12 12 11 10 9 9 11
56 92 100 93 88 78 68 62 61 68 75 69 51 52 54 46 35 49 92 92 91 79 68 76 77 77 70 62 64 52 37 30 26 23 22 18 16 13 11 11 12 12 12 11
93 95 100 98 81 70 62 58 68 99 100 87 52 55 50 50 34 35 52 91 78 81 83 87 79 75 70 56 41 52 39 29 26 24 21 18 15 13 11 10 10 12 12 10
73 96 83 87 73 56 51 56 86 99 100 75 99 74 50 54 40 34 39 72 87 92 92 83 76 82 81 57 28 21 20 18 16 18 17 15 13 11 9 10 9 9 8 8
75 97 75 69 75 70 56 65 56 79 74 76 75 62 51 56 43 37 36 72 73 48 38 44 54 71 83 54 43 50 54 34 17 14 13 12 12 11 10 9 8 8 8 8
97 70 60 68 74 56 36 83 100 99 85 98 85 69 76 63 44 40 37 63 84 48 29 30 27 26 24 35 40 30 22 18 16 14 16 15 11 10 9 9 10 9 9 10
95 85 69 43 32 28 35 72 100 92 92 81 65 80 77 70 61 49 41 46 95 77 32 30 31 30 44 39 23 20 21 25 28 27 19 14 11 11 11 10 10 10 10 10
38 33 28 29 56 66 87 80 79 81 100 84 78 76 80 69 60 56 44 37 58 94 70 41 25 22 26 29 21 18 16 15 14 13 12 12 11 11 12 12 11 10 9 9
74 61 58 91 91 87 88 84 84 77 87 100 100 82 93 74 62 49 41 36 36 61 82 67 35 26 23 20 19 17 15 14 14 14 13 12 13 13 13 11 10 9 10 12
98 99 96 98 97 84 72 66 69 87 92 89 97 80 99 98 89 53 45 37 33 31 31 36 25 23 21 20 19 18 17 16 14 14 14 15 14 13 11 10 9 10 12 13
72 68 70 72 74 81 86 83 94 86 97 88 77 73 100 99 97 76 60 48 37 33 31 30 31 24 24 24 23 20 18 16 16 16 16 14 13 11 9 9 10 12 14 10
61 57 56 54 53 56 68 77 84 83 85 83 81 96 99 98 68 44 46 60 48 46 40 36 31 27 24 22 20 19 18 18 17 16 14 12 10 9 10 11 13 16 14 9
46 54 57 54 53 56 66 77 86 90 86 86 82 74 90 98 82 53 39 36 35 36 34 31 29 27 25 23 22 20 18 17 14 12 11 11 11 12 14 15 16 17 13 11
46 61 65 61 64 67 67 72 75 81 89 89 76 82 84 92 99 97 76 45 35 32 29 27 25 24 22 20 18 16 15 13 13 15 17 18 18 16 16 21 23 18 16 15
70 72 72 72 68 72 71 71 71 72 73 76 76 77 77 86 92 69 49 38 34 30 28 27 24 21 20 19 17 16 16 17 21 26 25 23 21 22 22 21 20 22 22 20
76 60 59 71 72 71 74 70 70 74 76 79 80 82 74 72 52 42 39 38 36 34 30 26 24 22 20 19 19 20 22 25 31 32 28 27 29 28 28 25 26 28 28 33
70 46 52 66 61 63 69 77 64 67 65 62 65 80 82 61 56 53 47 40 34 29 25 24 23 22 23 28 32 33 30 31 36 32 32 37 34 33 32 32 36 35 38 38
50 40 48 65 48 40 54 74 83 75 65 64 52 51 52 54 47 40 35 33 32 32 45 53 48 41 42 40 38 40 38 40 41 40 47 45 36 34 38 42 43 43 45 46
42 37 41 57 39 40 64 88 92 84 78 55 45 42 40 38 34 33 36 36 48 66 75 76 69 54 50 46 46 49 48 46 44 44 47 43 40 40 44 47 55 56 54 49
50 40 43 38 37 42 64 80 81 73 54 69 51 44 38 36 37 54 72 73 75 75 86 84 78 70 63 56 56 60 52 48 53 52 52 48 49 51 56 65 64 56 54 53
78 62 52 48 52 50 61 62 59 67 64 51 46 44 51 57 67 91 96 96 92 85 89 84 83 79 70 63 65 59 55 52 56 56 54 54 57 64 72 68 65 61 60 55
93 88 79 71 66 64 66 67 62 60 58 57 57 54 44 52 76 91 100 93 94 91 88 82 79 78 77 74 70 66 62 62 57 54 58 63 67 67 68 71 72 73 70 66
78 91 81 77 76 77 74 72 68 66 64 60 57 53 51 45 59 92 100 98 92 81 82 83 80 78 81 84 85 80 77 73 72 68 67 64 64 66 71 76 78 81 84 80

GFSCGP_500_rhum_078.txt.gz
RH
100 100 98 88 81 52 31 17 16 28 49 80 74 79 90 95 99 96 90 87 90 90 94 94 59 51 37 31 32 29 26 24 23 23 24 24 32 34 32 30 26 31 24 17
100 93 99 100 96 76 60 30 18 42 64 65 98 88 82 82 80 91 97 96 96 95 88 79 76 50 43 40 35 35 33 30 27 28 39 39 30 38 44 38 31 24 24 28
90 100 98 100 94 86 73 46 41 28 28 37 50 64 92 63 66 71 82 90 96 83 82 82 74 58 48 44 40 38 34 31 27 25 28 24 22 22 22 21 20 21 26 30
94 100 100 100 97 100 94 80 61 41 25 22 37 33 53 68 64 46 58 80 86 80 74 74 79 76 64 46 44 40 35 32 30 31 31 30 27 23 20 19 26 40 24 18
96 100 100 100 98 98 94 100 81 62 64 61 57 40 39 56 64 50 43 57 98 78 74 73 79 81 73 66 53 41 38 33 29 30 33 32 31 26 22 20 16 14 13 12
100 100 100 100 100 98 89 99 73 71 69 58 70 58 33 44 43 60 42 38 92 89 74 72 73 81 83 63 52 58 64 51 47 44 44 47 44 28 22 21 18 15 14 12
100 100 100 100 100 100 94 100 98 93 73 33 50 47 23 39 36 43 49 38 63 92 74 79 79 77 80 85 84 73 63 64 67 63 63 48 28 22 22 20 17 15 13 12
100 100 100 100 98 83 82 77 64 56 42 39 49 36 29 48 50 52 50 38 41 75 79 79 76 84 90 89 93 94 89 73 47 37 59 51 42 25 16 15 12 11 11 12
98 99 83 100 91 89 79 65 66 56 50 46 42 39 52 63 61 57 54 40 35 54 97 92 98 100 100 93 95 96 91 66 41 47 39 28 17 16 13 12 11 11 9 9
84 97 92 85 89 76 74 60 54 69 85 50 39 38 55 85 81 68 63 41 37 41 96 71 42 42 59 66 72 86 97 81 56 47 43 26 17 15 15 16 16 12 10 10
100 100 97 98 82 85 71 67 42 84 78 71 58 43 62 96 87 77 74 56 43 44 80 91 72 34 30 29 28 33 35 45 43 21 19 21 26 27 24 18 13 11 10 11
86 88 71 50 39 35 41 29 41 49 57 70 63 49 82 97 84 80 73 62 54 43 47 96 77 38 25 24 25 30 51 36 26 19 18 17 16 15 13 12 12 11 13 12
47 43 32 30 38 59 36 38 57 58 59 64 67 61 78 92 90 70 73 62 57 46 40 52 92 77 70 44 28 24 27 26 19 18 16 15 14 14 13 13 14 14 13 11
100 100 93 94 97 95 90 80 77 80 66 61 68 74 90 85 90 98 68 65 52 45 39 36 66 78 89 72 42 27 24 21 19 18 18 16 15 14 16 15 14 13 12 9
98 92 99 94 76 73 74 69 60 59 64 60 63 72 91 95 97 100 96 68 58 46 39 36 41 58 36 48 29 26 24 24 22 20 18 17 17 16 15 13 12 10 10 11
55 53 54 53 54 52 50 60 78 69 62 63 57 72 87 98 100 83 52 61 68 71 58 49 42 42 35 37 34 27 25 23 21 20 18 17 15 13 12 11 11 12 13 15
48 43 57 64 61 55 45 48 57 72 77 76 62 87 96 95 99 95 57 46 44 40 37 41 41 40 36 36 26 25 24 22 20 19 17 15 13 14 14 15 16 18 19 23
40 44 58 64 62 59 64 68 68 70 70 73 78 81 93 92 97 95 99 97 88 67 40 33 30 29 28 26 24 22 20 19 18 16 16 17 16 20 23 20 20 24 27 26
64 70 72 65 65 65 67 71 72 70 68 68 69 70 75 82 93 100 91 78 53 40 36 33 30 29 27 24 22 21 19 19 19 19 20 25 29 27 25 25 27 28 26 26
78 79 66 54 62 68 69 70 72 72 69 71 68 67 66 77 81 82 58 45 41 39 39 36 32 29 26 25 24 23 24 25 27 31 32 34 31 28 33 34 34 32 33 35
79 79 57 48 63 63 53 63 80 71 68 66 61 62 68 83 78 61 58 56 51 44 38 32 29 29 30 27 29 32 39 39 36 33 37 39 40 42 43 36 37 40 42 43
83 70 44 43 64 54 43 54 74 79 80 81 72 60 52 54 58 66 56 44 39 36 33 37 51 59 61 55 49 43 42 45 46 46 46 44 47 47 41 42 48 45 48 54
67 49 42 44 58 47 42 73 87 98 95 88 70 55 46 42 43 39 38 40 44 44 48 64 77 88 82 73 66 57 56 56 57 54 50 54 54 51 48 48 50 53 58 60
73 59 46 45 44 40 48 68 95 98 94 67 83 90 54 50 43 42 46 77 90 86 82 85 95 92 89 81 72 69 73 72 63 59 64 63 60 55 55 57 62 66 65 62
93 82 69 57 55 57 59 62 67 72 67 86 67 61 58 49 55 69 85 96 98 97 98 96 98 95 91 86 79 74 75 70 62 64 65 62 60 60 63 70 73 72 70 70
98 100 94 86 80 76 70 67 68 70 68 65 65 62 58 55 52 47 64 86 96 100 94 95 95 96 93 90 89 87 80 75 73 72 68 65 65 71 74 76 80 80 76 76

GFSCGP_500_rhum_081.txt.gz
RH
92 99 99 100 90 70 34 18 14 22 40 63 74 73 86 81 99 97 95 97 98 99 98 98 97 93 69 47 39 34 31 47 59 58 51 41 42 44 48 24 17 18 17 21
94 85 100 98 96 87 51 27 16 17 31 45 47 63 90 97 88 90 95 96 96 99 96 96 96 85 72 52 43 35 32 29 27 29 36 40 41 46 37 26 32 51 54 42
86 89 100 100 100 89 80 44 22 16 18 28 65 57 66 78 86 93 94 95 92 82 88 85 86 96 77 65 51 44 39 33 34 38 36 36 42 44 35 42 32 43 71 67
100 100 100 100 100 92 99 66 35 21 16 18 28 30 57 73 77 83 86 91 80 73 79 76 76 76 93 80 62 53 42 39 38 34 30 29 33 33 38 41 41 42 46 50
100 100 100 100 98 99 99 90 50 27 18 15 22 24 32 56 68 60 64 82 93 85 73 76 78 79 86 92 83 57 50 46 40 37 34 30 27 26 25 30 30 29 23 20
100 100 100 100 100 100 100 99 67 43 32 20 17 16 14 21 33 54 66 63 59 86 84 80 73 71 77 86 88 90 57 49 45 41 38 36 34 32 32 33 34 37 36 25
100 95 100 100 100 100 100 100 100 82 59 27 22 19 23 20 24 38 51 57 57 45 58 69 67 70 79 87 93 86 89 79 59 43 39 37 35 40 43 43 41 37 30 26
100 100 100 100 100 90 96 94 86 71 45 38 34 21 22 41 40 35 40 43 57 46 43 64 76 68 62 75 88 92 84 73 74 68 66 60 56 49 51 52 57 31 26 23
100 100 100 100 100 100 97 82 81 61 47 43 33 24 30 49 46 47 43 38 42 56 39 44 92 89 76 72 76 79 86 85 69 64 63 63 66 68 60 62 66 48 30 17
99 96 100 100 100 97 99 87 82 70 68 40 26 27 28 50 65 62 54 49 50 59 45 37 67 90 86 77 75 87 90 90 90 88 90 86 50 36 32 29 25 19 17 15
100 100 100 99 94 84 86 74 62 64 48 32 25 29 38 43 55 69 58 51 54 63 45 40 48 99 98 93 97 93 96 98 100 93 88 88 53 54 46 40 30 20 17 18
97 99 100 96 99 91 94 90 65 53 32 28 42 37 56 56 55 64 70 67 60 64 45 43 43 81 94 59 60 65 94 93 94 86 90 93 79 40 26 21 20 24 27 22
90 98 97 98 97 94 78 67 54 48 30 32 36 30 51 62 65 94 91 86 85 70 48 45 45 47 95 80 49 29 30 30 30 38 30 28 35 34 22 20 22 18 15 13
73 77 72 51 46 39 35 32 48 47 26 34 37 41 50 61 72 77 92 92 83 78 64 52 44 44 81 91 66 43 32 27 24 24 46 48 27 20 18 17 16 14 14 13
70 66 49 33 38 60 66 61 39 22 37 44 64 43 66 67 66 87 88 100 94 83 68 62 50 42 42 84 97 95 77 69 40 28 25 31 20 19 19 17 15 15 15 15
100 100 100 98 96 91 95 96 85 70 62 59 56 61 76 69 87 94 96 88 97 100 80 49 48 43 38 40 72 67 73 77 60 40 30 22 21 21 19 17 17 16 15 13
73 70 66 66 67 62 56 58 66 76 74 62 61 83 69 76 92 100 96 86 87 75 85 96 64 47 41 37 47 76 43 64 48 28 25 23 21 20 19 17 15 14 14 16
55 62 48 56 67 60 60 57 55 52 54 63 74 86 100 98 97 98 100 95 86 63 74 78 64 62 54 57 46 59 37 41 34 24 24 22 20 19 16 16 16 19 18 19
50 52 44 50 69 67 63 62 62 57 54 52 57 68 85 90 93 96 98 100 100 98 79 54 40 37 35 36 35 65 61 36 24 22 20 19 18 17 19 23 26 26 25 29
53 61 65 71 71 62 67 66 67 70 64 57 53 55 62 67 74 95 94 95 98 82 53 61 46 42 37 34 31 29 27 26 22 21 21 21 22 24 31 35 34 33 33 33
74 78 74 72 62 54 64 68 68 67 68 67 64 65 72 74 74 77 82 90 71 48 49 47 42 38 36 33 31 27 26 25 24 27 28 31 36 39 41 39 37 41 38 36
79 82 84 77 55 51 65 60 57 67 76 74 73 66 65 65 68 83 80 62 62 66 57 50 40 35 33 41 47 47 44 38 36 42 44 42 43 43 43 50 50 44 38 43
91 88 87 75 47 48 62 52 49 66 80 86 85 84 68 57 54 54 58 68 64 45 39 37 36 39 56 73 77 70 57 50 48 45 48 48 52 54 53 52 48 44 50 52
100 90 72 52 48 51 59 46 55 81 99 100 95 90 66 57 46 44 45 44 43 45 47 53 57 70 86 95 90 79 73 66 60 60 63 63 58 56 60 55 52 52 52 58
100 96 80 58 53 57 51 47 65 82 97 100 89 72 86 87 58 58 53 48 50 72 94 96 98 88 96 97 97 89 78 78 81 80 71 64 66 70 64 60 58 60 68 70
100 100 96 85 68 68 65 60 65 71 84 92 77 96 96 88 76 70 54 60 80 96 98 100 100 99 98 100 99 99 94 85 83 78 71 68 70 67 63 63 68 75 75 72

GFSCGP_500_rhum_084.txt.gz
RH
99 94 94 100 88 92 76 63 38 16 18 20 33 57 47 47 73 78 47 83 96 90 99 92 96 96 96 94 95 97 97 98 97 92 79 73 74 70 45 33 50 54 37 24
99 83 100 100 100 100 77 54 36 17 17 18 42 70 56 58 59 99 72 99 96 96 93 96 91 97 96 96 95 94 96 94 98 99 94 85 80 69 55 54 63 66 77 67
77 77 99 100 100 95 88 63 51 23 16 19 33 66 66 54 66 78 92 97 98 96 98 100 98 97 95 96 96 95 89 76 65 64 69 78 80 75 68 57 47 56 70 74
96 86 95 100 100 99 99 73 61 28 17 16 21 32 69 64 59 64 60 69 96 89 98 96 97 98 96 94 95 96 74 49 43 40 36 37 40 40 40 38 50 59 55 53
54 100 97 100 100 99 100 100 98 37 19 15 16 18 29 56 48 43 49 61 80 91 97 92 96 97 100 93 92 95 95 91 62 44 37 36 39 44 45 45 51 45 41 49
75 100 100 99 100 100 100 97 98 65 28 17 15 16 16 32 42 56 58 47 82 93 96 96 94 89 79 84 97 96 89 82 80 67 45 36 34 33 32 31 30 28 27 38
100 100 100 100 100 100 98 100 98 94 48 27 17 16 16 24 30 40 56 66 68 81 92 97 94 85 84 77 83 96 99 96 86 69 59 54 46 38 35 33 31 29 27 28
100 100 100 100 98 100 100 100 85 69 57 32 24 22 16 24 18 22 25 36 53 71 78 83 91 82 81 76 72 81 98 95 96 92 71 54 50 46 42 40 40 39 40 42
95 98 97 90 99 97 99 90 74 65 61 48 38 29 22 35 39 32 30 34 43 54 57 61 59 56 58 66 70 70 73 83 91 86 89 91 82 58 49 45 48 53 51 57
79 100 100 100 90 97 99 100 78 57 57 57 46 36 29 35 42 28 32 35 38 37 43 46 58 48 50 66 75 64 60 60 68 79 86 86 81 78 70 62 66 68 68 60
97 99 100 100 100 100 95 84 71 68 56 53 47 41 35 42 50 47 43 40 39 40 39 42 58 59 46 44 70 90 94 89 81 81 87 88 86 74 66 70 75 72 47 38
90 95 100 100 75 93 85 91 80 71 58 47 38 32 33 49 48 56 58 51 54 54 42 37 44 61 44 43 71 93 93 86 80 84 86 90 94 96 95 94 90 55 54 48
94 100 100 100 87 74 67 75 75 67 56 43 30 20 41 51 59 53 48 53 65 63 64 55 48 58 53 40 65 100 99 88 90 94 93 91 89 91 92 85 87 78 60 27
98 95 100 100 90 86 80 87 86 72 53 39 24 27 39 55 60 59 55 60 72 86 74 67 69 66 52 42 43 65 98 78 76 75 86 88 81 76 80 62 45 53 60 42
100 99 97 97 99 96 98 94 81 62 57 43 32 22 38 52 42 51 57 73 80 91 83 92 87 69 48 46 45 51 81 87 55 38 29 29 27 26 30 38 47 44 22 21
80 94 81 70 42 44 36 36 42 38 32 38 37 27 49 59 59 74 76 81 89 89 92 85 87 67 53 48 45 55 77 92 93 70 72 61 38 29 29 35 54 46 20 18
70 97 70 57 44 59 79 96 83 81 65 47 23 56 50 71 71 72 70 83 88 97 98 94 92 78 70 57 50 43 53 59 79 85 82 84 73 62 44 40 36 26 20 18
99 98 90 91 87 83 84 85 65 66 77 72 82 86 79 88 83 82 86 100 95 88 97 100 100 90 69 58 52 45 43 43 55 75 56 73 81 72 37 32 23 21 20 18
35 52 64 49 48 54 62 65 56 52 53 50 56 65 74 82 87 97 96 100 98 97 95 97 96 100 100 95 90 80 65 54 53 80 57 45 64 30 26 24 21 20 17 18
43 50 69 59 49 58 69 65 63 60 56 50 56 58 62 64 72 94 88 88 90 100 100 93 86 72 60 55 52 54 46 47 68 53 68 75 39 24 23 21 19 18 21 27
53 52 51 62 73 77 68 62 68 67 59 61 64 66 67 68 64 62 70 75 88 97 97 97 91 94 76 70 54 41 36 34 37 46 54 53 25 23 22 22 23 27 34 41
70 69 79 79 78 79 61 56 65 63 60 70 70 68 69 74 78 77 80 83 79 73 83 89 66 52 48 45 40 48 46 36 30 35 38 46 42 32 28 34 41 44 46 48
100 90 89 89 83 80 66 52 65 58 52 71 79 79 77 69 64 61 62 78 84 73 65 71 72 52 46 40 41 46 47 50 46 42 41 38 46 48 46 48 53 56 62 58
100 95 100 96 88 82 55 49 62 53 54 74 87 90 90 88 73 58 56 55 57 61 63 53 43 45 47 54 60 76 94 88 74 61 51 53 53 53 56 64 60 60 60 57
100 100 100 98 81 62 49 49 64 49 57 82 100 100 99 100 91 70 64 54 50 48 45 46 63 84 80 72 84 99 100 97 91 86 81 74 74 75 71 66 68 69 66 68
97 100 100 100 88 68 62 61 59 56 69 86 98 100 99 95 91 96 86 73 68 70 73 78 99 100 100 98 98 100 100 100 92 89 92 88 81 74 73 82 78 72 71 76

GFSCGP_500_rhum_087.txt.gz
RH
49 49 91 94 99 88 100 89 68 42 21 19 19 17 29 25 21 39 50 62 96 83 96 95 95 96 89 73 75 97 96 93 90 94 84 82 82 70 61 50 43 34 29 25
52 50 99 100 100 96 85 94 80 44 26 19 20 18 24 24 25 34 49 53 64 98 94 92 100 97 96 99 74 88 96 96 100 96 96 94 93 86 76 66 66 64 41 43
53 78 97 100 100 99 92 91 83 52 28 21 18 18 17 21 23 29 39 57 53 59 77 84 99 98 96 97 96 94 95 95 97 97 95 96 96 96 95 90 79 74 71 81
61 62 96 100 100 98 100 100 88 60 49 69 27 15 16 19 27 25 32 44 74 63 64 80 87 93 99 94 98 97 97 94 93 91 93 97 92 95 95 94 87 79 69 65
100 100 95 98 95 98 100 100 100 90 70 55 26 17 16 17 23 40 45 58 64 96 93 72 86 96 87 92 94 95 97 96 95 95 96 97 93 93 87 87 83 77 61 42
71 66 100 82 100 100 100 98 98 95 62 62 29 16 16 17 28 64 72 66 76 90 92 99 100 93 80 87 98 97 93 96 96 96 96 95 95 71 47 41 41 44 45 46
61 67 100 96 100 100 100 100 97 82 74 58 30 16 15 18 20 36 60 64 68 69 64 70 91 96 100 100 93 82 96 96 95 95 96 93 79 56 52 50 47 46 41 39
69 96 100 94 100 100 99 98 73 60 52 52 32 18 17 20 21 24 37 50 54 62 54 46 78 91 97 97 92 92 92 96 86 82 86 93 95 95 92 86 53 49 46 39
73 100 100 100 100 100 95 89 78 72 67 63 43 24 21 19 20 21 22 23 36 50 59 57 50 98 100 99 92 93 96 87 81 80 86 91 91 92 86 71 62 55 50 45
93 99 100 100 99 100 100 83 77 69 64 66 59 42 28 26 19 21 28 23 16 17 24 39 49 61 95 100 98 97 94 85 78 80 87 92 89 90 94 90 77 58 53 52
73 99 100 100 88 100 100 75 66 63 63 58 61 56 48 53 26 27 34 31 30 38 43 43 48 52 64 90 95 94 96 86 77 72 77 79 87 86 82 79 81 85 87 83
68 96 100 100 95 81 69 71 76 72 63 58 62 68 66 52 38 35 35 37 40 39 34 37 36 31 30 46 67 71 76 64 66 85 84 80 78 79 88 92 87 82 82 74
76 89 100 91 64 52 58 68 74 65 68 66 63 69 73 55 44 48 45 49 51 48 54 54 51 44 41 30 34 62 61 50 49 66 96 98 83 77 87 94 95 93 93 89
80 78 94 94 99 96 85 75 80 76 72 68 67 74 63 50 54 55 52 48 48 50 48 47 49 57 61 50 35 38 63 48 45 72 94 98 96 90 86 89 91 85 91 91
100 100 92 100 96 78 81 80 70 62 74 69 66 57 53 39 45 51 39 41 44 45 44 50 62 53 51 62 62 64 65 51 43 58 76 96 88 92 95 98 96 94 86 72
100 100 100 95 89 84 76 70 66 67 72 64 67 68 60 33 28 39 42 45 45 44 47 62 75 76 76 86 88 73 54 49 44 47 62 78 83 52 42 43 32 34 34 34
99 100 95 85 92 86 76 80 82 76 73 65 54 49 45 40 29 36 49 51 56 60 64 74 82 88 89 89 74 65 53 49 48 54 67 82 72 81 77 56 52 37 32 29
88 98 100 92 66 47 52 54 55 61 58 49 62 65 32 31 26 33 52 63 68 73 74 72 75 90 100 97 91 70 58 52 47 49 66 74 81 82 87 84 76 72 58 56
100 92 100 100 99 86 87 90 84 82 66 63 68 76 63 65 49 66 76 71 81 86 80 74 80 87 99 100 100 95 83 66 56 49 42 47 63 74 70 62 74 71 66 52
43 52 75 91 66 56 56 58 63 62 53 52 57 53 54 55 62 64 62 86 92 91 92 94 94 90 100 97 100 100 97 93 83 69 56 50 54 54 74 47 60 56 30 26
36 35 37 49 69 52 51 60 64 60 55 59 60 62 60 53 53 52 59 77 80 92 96 99 100 100 92 94 83 82 71 59 62 68 66 56 72 66 65 66 81 28 25 24
59 45 40 39 43 59 68 72 66 56 60 62 62 64 65 64 65 69 74 78 79 81 88 94 99 100 98 94 96 75 76 69 48 40 36 38 60 50 56 70 39 29 34 38
87 71 58 58 69 70 68 70 66 56 64 60 62 74 74 73 72 73 79 81 84 90 86 70 72 73 90 88 60 50 49 43 46 58 53 49 47 57 65 71 73 77 59 47
95 99 100 90 80 77 78 78 76 53 63 52 54 77 82 83 86 85 73 64 61 62 73 86 85 78 77 62 50 46 45 50 73 86 86 71 55 50 51 52 55 57 57 60
90 95 95 91 92 94 83 80 62 48 62 58 58 78 92 100 99 99 82 74 65 56 55 56 55 55 61 68 70 67 64 76 96 99 97 89 83 70 65 64 67 70 76 71
93 99 100 100 97 100 91 67 58 53 63 57 57 76 97 100 100 99 100 90 85 81 76 71 70 64 76 97 100 100 100 99 100 100 96 90 94 92 87 83 82 76 73 75

GFSCGP_500_rhum_090.txt.gz
RH
55 52 48 84 100 96 72 99 94 78 61 46 20 18 21 24 20 16 15 15 29 80 95 90 98 92 95 96 67 74 68 94 92 98 98 93 91 67 70 71 63 59 54 46
65 50 44 77 100 94 59 64 93 92 54 33 21 18 20 20 20 18 16 14 25 83 83 86 89 96 93 95 96 73 71 63 95 97 96 97 96 93 80 68 70 65 59 49
72 65 67 81 96 95 92 75 90 97 85 66 21 19 19 18 18 20 19 15 19 36 82 100 92 86 100 97 95 94 80 69 63 84 94 93 97 96 97 96 96 77 77 77
65 52 60 83 100 100 99 84 95 99 80 67 33 20 19 18 18 19 18 18 23 36 48 82 96 90 100 95 97 92 99 90 68 72 96 97 96 96 97 96 95 95 95 96
60 58 74 99 89 100 100 96 100 100 96 76 66 41 20 20 18 17 17 21 30 45 52 52 66 99 98 91 98 93 89 91 98 94 97 97 98 96 96 96 96 96 96 96
62 94 100 100 100 100 100 100 100 100 100 69 77 58 22 24 19 16 19 28 41 42 45 56 63 71 87 90 90 95 95 92 92 85 88 95 97 95 96 96 95 95 96 96
57 100 100 86 99 100 100 100 100 99 90 70 65 46 39 34 15 17 20 36 52 53 62 53 62 88 66 64 73 89 95 98 93 94 88 97 92 100 98 94 95 96 94 73
95 98 100 98 100 100 100 92 93 68 61 63 66 50 48 26 17 17 19 32 67 58 64 76 69 88 91 87 78 84 86 88 91 97 99 97 96 97 96 95 92 97 95 88
59 97 100 100 100 100 100 90 80 78 66 57 60 56 45 19 16 17 16 17 34 64 72 75 69 67 78 95 98 100 99 99 93 95 93 91 93 96 95 96 98 99 90 70
59 71 97 100 100 100 100 98 81 75 72 68 64 64 43 21 17 17 17 18 20 32 46 58 60 54 56 70 93 91 90 93 99 97 94 96 82 80 77 77 86 91 93 94
60 76 100 100 100 100 78 78 79 73 82 76 69 70 57 32 22 20 19 18 23 22 21 37 53 54 55 53 71 91 94 99 90 86 84 89 86 88 86 80 80 84 88 90
89 98 100 100 94 75 74 84 83 89 90 91 82 76 72 51 28 36 38 26 26 32 34 30 26 26 36 57 70 72 91 99 99 93 96 100 96 86 82 78 77 81 81 82
92 100 100 100 100 96 100 79 66 72 78 84 86 79 82 87 56 61 52 32 29 32 34 31 39 43 40 33 24 25 34 52 89 98 97 100 96 97 95 86 87 76 77 76
80 96 97 90 100 100 95 78 79 86 90 94 97 100 100 89 77 63 48 37 35 35 35 40 44 51 44 41 36 35 33 26 30 59 85 95 96 87 73 80 81 79 87 84
62 92 88 83 80 70 63 75 76 64 80 94 100 96 94 78 67 60 47 40 46 39 36 33 34 38 43 43 42 38 45 44 33 35 44 69 64 57 56 62 88 90 84 84
86 76 85 78 84 83 63 70 71 77 79 81 86 100 90 69 58 46 38 42 42 39 37 38 40 41 43 52 57 59 50 57 48 51 57 67 54 50 74 76 73 90 83 86
90 92 80 77 89 87 89 86 85 84 81 70 75 96 77 66 54 37 33 42 40 36 35 37 42 45 60 70 76 85 70 72 76 71 62 56 50 46 48 55 83 76 61 59
94 94 92 93 85 88 85 78 80 84 79 76 70 66 62 60 48 46 40 27 31 34 38 43 47 58 71 71 76 91 86 82 80 76 54 52 50 54 56 68 78 74 79 72
87 86 96 100 98 85 72 58 58 56 68 68 69 64 58 50 44 39 28 25 25 28 38 51 60 68 71 69 73 99 97 90 78 66 58 52 52 58 70 87 88 86 79 76
85 77 91 98 98 84 75 69 87 85 77 71 64 56 56 64 71 48 47 49 50 53 63 69 75 83 86 84 77 89 100 100 98 88 79 68 61 54 46 43 49 67 76 76
47 74 79 91 95 87 81 75 57 58 59 63 60 55 50 53 58 55 57 63 61 56 70 88 96 96 100 89 90 86 92 99 100 100 98 94 87 79 73 66 60 62 59 70
51 39 32 31 44 66 65 51 50 53 56 55 60 60 58 58 59 57 57 65 63 64 67 82 98 100 99 96 93 97 94 92 81 74 59 51 50 58 52 55 48 65 64 66
72 56 44 45 41 46 47 56 61 60 55 54 62 61 64 69 70 69 68 66 67 72 78 82 86 89 93 89 93 100 95 75 94 92 82 82 83 66 50 42 76 72 56 61
86 86 82 64 56 61 70 72 69 68 69 55 61 60 59 71 77 77 77 75 70 70 70 71 84 88 76 69 72 72 77 68 60 51 54 64 78 80 80 68 66 68 81 93
88 94 95 92 88 81 80 78 77 80 77 55 62 55 55 76 84 90 91 90 83 74 66 63 61 64 69 75 74 67 55 57 60 63 76 95 95 94 95 89 80 74 73 72
89 92 91 93 95 91 84 89 86 76 62 50 59 61 57 75 88 97 96 90 92 81 75 68 64 92 80 66 64 64 81 94 96 93 90 100 100 100 100 98 92 85 79 84

GFSCGP_500_rhum_093.txt.gz
RH
93 61 94 100 100 85 97 100 100 94 89 98 89 33 25 21 17 17 18 17 18 20 20 20 12 29 62 92 82 86 86 81 75 80 81 90 98 92 84 47 32 36 47 60
100 63 69 96 100 98 84 79 98 100 97 98 100 69 25 23 22 16 17 16 17 22 20 19 12 33 52 89 100 94 92 93 80 61 76 89 90 92 94 93 72 35 42 50
99 84 58 70 100 100 100 75 72 91 84 99 100 100 42 22 25 19 16 15 20 24 19 20 13 57 98 79 92 100 96 93 92 56 56 90 98 97 96 93 94 93 73 58
100 93 53 64 100 100 100 98 93 98 76 93 95 91 70 24 24 21 18 16 19 18 16 17 10 18 96 99 93 98 94 96 92 91 59 52 71 92 91 94 96 96 94 90
100 82 46 55 99 100 99 96 100 80 94 100 96 86 51 22 18 19 22 20 20 19 18 17 12 21 53 96 90 79 90 93 90 94 95 77 66 52 83 95 96 94 90 96
96 97 58 62 96 100 100 98 100 100 100 100 98 80 44 23 30 21 21 18 18 20 19 20 15 22 38 79 84 83 82 87 97 96 84 87 92 76 69 70 83 96 96 99
96 92 45 100 92 100 100 100 100 100 98 85 97 83 57 27 30 23 19 19 18 18 17 16 15 20 44 57 97 98 90 95 99 97 97 79 82 98 96 91 97 97 97 97
82 92 76 100 100 100 100 100 100 96 84 88 89 67 69 50 23 24 20 19 17 16 17 20 23 23 33 55 63 74 94 99 94 90 94 82 92 98 97 95 94 95 89 96
83 100 90 100 100 100 100 100 98 93 100 100 72 60 60 60 32 22 21 16 16 17 20 31 40 44 32 46 53 76 76 82 93 88 84 84 91 94 97 92 94 96 93 96
90 100 100 100 100 100 99 99 100 97 93 100 82 67 61 56 49 43 29 20 16 16 18 39 50 48 57 84 74 81 90 67 61 65 68 76 83 85 91 94 95 94 97 95
60 97 100 100 100 99 99 90 99 100 100 100 89 79 71 68 47 36 17 17 17 18 19 32 56 62 71 81 69 74 80 86 99 98 95 94 86 74 89 87 92 91 91 85
66 72 90 98 100 100 97 90 100 100 100 100 100 82 68 64 56 23 17 17 18 18 22 21 24 45 53 64 69 64 72 74 83 98 98 98 98 97 96 94 95 96 94 93
73 70 97 97 97 93 84 85 100 100 100 100 100 89 79 68 65 32 25 24 26 31 26 28 26 23 27 35 42 48 51 57 74 80 89 95 100 98 93 89 100 100 98 95
82 100 99 98 100 99 82 93 100 100 100 100 100 100 92 85 81 47 38 35 34 40 36 28 31 28 31 37 40 40 40 38 35 31 33 42 61 91 96 98 100 93 95 96
99 100 100 100 100 97 81 90 92 92 100 98 99 100 87 70 68 68 44 37 44 46 39 32 30 34 36 37 39 38 38 41 38 37 39 34 30 30 55 79 98 100 98 94
100 100 92 100 96 100 99 85 81 81 93 100 100 100 85 70 54 52 60 61 57 48 39 35 29 30 34 32 32 36 40 44 50 53 49 48 45 39 44 58 77 82 82 83
90 94 97 96 90 82 75 83 80 80 75 85 98 90 67 64 60 60 63 67 59 50 40 42 35 32 34 35 38 42 48 55 60 63 69 58 57 54 50 48 67 71 82 86
78 72 72 89 90 94 82 76 75 77 73 75 83 76 70 75 71 67 56 40 34 31 39 40 33 30 31 39 41 48 57 56 58 70 70 66 71 78 64 59 61 49 51 56
70 80 87 92 77 82 76 82 78 66 63 63 62 61 64 60 62 62 59 51 40 35 27 29 30 29 35 41 52 62 67 64 65 86 76 77 76 81 64 59 55 52 52 59
72 74 85 100 94 82 84 82 70 57 52 63 73 70 64 55 54 32 37 36 33 36 27 26 26 38 49 58 68 73 77 78 75 92 100 96 88 72 65 58 56 55 62 83
57 82 79 98 100 96 89 83 76 65 53 68 65 62 59 54 51 52 58 60 49 52 53 56 58 66 73 78 74 72 78 74 84 85 92 100 95 88 81 73 71 67 61 52
53 48 62 84 90 94 96 87 77 68 61 58 58 57 56 53 49 46 47 51 54 58 62 61 59 74 80 82 80 81 88 86 98 89 78 84 83 70 71 86 82 75 75 75
72 66 55 46 38 43 61 85 71 56 52 62 61 56 62 63 62 60 58 59 61 60 60 59 64 72 73 78 77 88 95 88 90 96 82 84 82 82 80 81 84 92 65 65
77 85 87 80 59 47 45 48 55 53 56 57 57 54 56 61 60 64 66 69 70 70 70 73 74 74 73 75 82 77 70 73 73 77 75 68 59 60 58 72 79 80 75 75
76 86 88 92 94 91 83 76 74 77 71 64 60 60 56 64 57 70 81 83 82 81 78 71 67 66 64 67 75 81 83 80 76 67 54 60 63 68 96 100 100 98 92 87
68 76 83 81 89 87 85 88 86 88 85 76 79 76 56 62 55 67 82 87 90 90 91 84 78 72 69 66 71 89 62 58 57 62 71 77 82 83 91 100 99 99 98 93

GFSCGP_500_rhum_096.txt.gz
RH
74 100 100 79 82 97 100 100 100 86 97 100 99 92 98 95 95 92 39 26 26 21 20 18 17 16 18 31 44 88 82 81 94 64 46 54 71 94 93 87 74 63 49 32
58 80 100 100 100 91 100 98 100 100 92 98 94 98 100 96 77 86 30 26 25 19 18 18 19 18 17 20 33 42 90 83 74 83 88 60 64 66 80 92 96 96 90 48
82 87 100 100 100 100 100 82 100 98 95 90 100 99 100 96 76 55 58 23 24 18 18 19 20 20 20 19 16 12 42 81 94 73 83 98 82 72 78 86 90 90 95 95
92 84 94 100 100 100 100 82 100 100 95 85 78 86 94 91 72 39 25 24 22 21 19 18 20 22 22 22 20 35 18 50 89 88 78 94 94 97 94 90 88 96 94 96
99 82 86 100 100 100 95 84 98 90 96 100 100 99 98 100 77 50 18 13 16 17 17 16 18 22 24 18 22 37 39 40 65 90 91 94 95 98 97 85 72 94 95 94
93 88 94 97 100 100 100 80 100 91 98 100 85 82 99 74 62 25 23 20 17 15 16 17 19 24 22 16 14 15 31 68 99 69 84 88 96 97 96 96 96 93 79 69
85 83 75 93 100 100 100 100 100 98 100 69 88 96 88 88 95 44 24 23 20 17 16 18 21 25 22 19 15 16 30 48 88 98 94 86 79 96 80 83 97 98 95 92
82 84 76 72 99 100 100 94 95 100 98 100 82 86 96 81 76 83 55 46 35 25 20 21 22 24 21 19 14 11 15 44 68 89 83 69 63 95 97 96 98 96 95 97
100 96 63 87 95 100 100 89 98 70 93 100 76 70 99 68 66 45 23 21 20 20 21 19 24 24 19 17 15 14 15 34 49 84 94 84 73 83 91 97 97 100 90 92
99 77 48 66 100 100 87 87 88 86 90 100 83 94 100 96 74 26 25 23 20 23 21 21 18 18 17 17 21 22 28 35 54 80 79 91 91 95 98 99 94 85 88 93
78 96 46 91 100 89 86 85 100 100 100 98 100 97 70 88 82 50 23 22 23 19 18 18 16 13 11 28 44 46 44 68 67 79 81 67 85 88 88 87 79 73 77 78
71 90 70 93 88 78 91 83 89 93 99 94 100 77 79 64 64 95 70 37 29 26 42 25 15 14 12 33 60 65 72 84 83 91 81 79 72 70 90 92 90 74 68 62
59 74 80 86 84 83 89 87 93 100 100 100 100 97 89 80 90 85 73 76 23 26 26 17 18 17 14 15 34 56 71 78 72 74 84 93 100 95 98 100 100 96 100 98
70 84 100 99 95 100 96 85 98 100 100 98 98 100 100 97 97 82 40 21 17 18 19 24 26 22 24 24 20 26 40 44 44 40 36 35 46 65 74 75 77 76 83 87
77 97 100 100 100 92 76 87 100 100 100 100 100 100 83 71 81 77 72 38 27 27 33 38 40 29 27 26 25 26 31 38 41 39 38 37 37 34 34 31 29 34 41 76
69 69 91 100 97 100 87 98 97 96 98 100 100 98 83 76 78 79 77 55 42 40 40 50 49 36 31 30 37 41 45 44 37 36 37 42 49 44 47 42 40 36 29 34
100 92 98 94 96 95 100 100 89 85 97 99 100 92 78 84 80 81 77 86 78 65 63 64 48 40 30 29 34 34 32 31 32 35 42 52 56 59 60 60 46 46 48 42
75 86 91 98 94 81 86 78 65 70 72 73 68 78 92 83 79 77 74 66 64 68 68 61 51 45 42 36 34 32 32 30 31 40 47 51 50 54 74 71 56 50 56 61
65 72 73 70 70 79 76 80 84 84 80 74 76 75 77 74 75 69 62 64 60 50 40 34 31 37 43 37 32 30 30 32 40 48 53 59 61 68 84 77 75 73 75 63
68 73 78 80 77 58 83 72 72 75 70 62 56 54 55 55 54 54 60 63 62 59 52 44 34 28 29 30 30 30 34 48 56 61 67 66 59 66 87 92 91 78 72 64
45 47 75 86 81 83 92 86 82 73 66 71 60 63 66 66 55 51 52 48 48 47 42 36 39 36 30 33 35 38 54 61 64 59 61 66 69 74 81 87 90 95 88 74
64 60 50 80 95 92 100 100 95 84 78 70 61 58 58 57 57 54 50 50 54 58 58 53 54 58 63 69 62 68 76 73 65 65 60 64 83 78 79 81 74 71 71 83
81 85 80 66 58 73 90 100 100 96 84 71 59 53 54 54 53 56 55 51 50 52 55 57 60 64 64 63 66 74 79 73 69 72 73 78 80 84 86 87 80 79 76 76
75 89 85 95 83 60 50 46 52 78 89 74 57 58 62 56 52 56 59 59 60 61 59 59 59 59 62 62 60 67 69 72 73 71 70 73 74 77 67 60 61 62 57 86
79 79 93 91 91 96 87 74 58 52 52 55 55 64 64 62 60 59 63 63 72 79 79 76 74 72 71 71 71 74 74 78 80 81 82 79 75 67 59 62 63 63 87 93
78 85 83 98 100 100 100 100 98 91 84 79 74 69 63 59 61 58 61 58 72 83 84 86 85 86 83 76 70 67 67 66 66 71 65 62 62 69 71 85 93 92 90 95

GFSCGP_500_rhum_099.txt.gz
RH
48 100 87 100 100 90 81 100 90 97 100 98 87 97 100 98 97 99 97 66 62 68 40 39 37 35 32 35 44 71 76 70 54 70 65 54 50 62 67 67 72 80 77 71
48 95 96 100 100 100 98 100 100 96 100 99 99 98 99 94 100 98 98 95 54 59 45 36 31 22 19 23 31 43 77 82 71 60 63 63 72 74 52 48 61 70 81 94
74 84 91 100 100 100 100 98 100 99 86 93 98 100 100 98 94 96 94 88 95 58 39 31 27 21 21 24 21 29 56 75 95 69 66 81 85 94 98 89 50 61 66 88
96 65 96 100 100 100 97 94 87 96 100 97 98 92 93 87 99 100 90 74 86 74 34 26 25 23 21 20 19 21 27 55 79 87 83 81 72 58 72 96 97 94 85 88
82 82 87 87 91 88 98 83 95 100 100 97 100 98 85 97 98 91 89 85 79 69 48 25 22 20 20 19 20 20 20 20 19 34 46 54 50 72 61 60 74 94 95 95
94 94 100 100 100 100 60 100 97 100 95 86 88 94 82 81 71 67 65 73 74 65 48 25 22 18 20 21 23 24 24 24 24 37 62 52 24 32 69 77 84 82 80 76
94 98 99 100 100 100 99 100 100 100 98 100 100 100 97 70 77 57 61 63 56 54 74 35 27 18 19 21 26 32 29 24 31 31 40 64 73 61 59 74 84 96 93 97
96 100 100 100 99 100 98 100 94 93 81 66 96 93 77 98 74 48 47 54 47 22 31 45 31 21 18 17 20 23 29 27 24 30 25 22 34 65 73 78 98 95 85 65
98 99 96 98 100 96 100 99 76 74 86 79 53 49 59 60 72 49 50 62 53 29 20 16 17 16 16 17 20 22 24 25 18 14 13 14 26 60 71 86 96 87 85 97
87 85 94 91 100 100 99 98 99 73 81 77 60 76 61 58 59 48 65 58 29 28 26 24 22 20 19 18 21 25 26 24 16 15 12 30 44 56 70 81 94 78 76 82
72 63 64 82 95 94 100 96 100 90 84 82 76 64 69 59 76 80 77 79 61 41 37 35 37 28 21 24 27 24 26 19 16 16 16 20 33 54 86 93 87 94 97 98
50 41 35 76 79 86 86 97 96 70 60 66 67 81 83 82 97 78 62 40 50 51 20 19 20 26 31 29 20 15 12 13 25 32 56 70 60 62 75 82 79 73 75 84
58 28 38 68 57 77 85 90 100 99 100 100 92 92 94 89 95 52 44 29 23 33 38 29 26 26 31 30 13 11 12 28 47 53 74 80 78 87 85 93 100 98 88 68
62 61 66 69 74 76 90 95 95 99 100 100 100 100 100 75 55 81 55 39 28 22 20 22 36 40 28 16 14 14 16 17 35 52 64 72 68 61 53 49 50 49 68 84
62 67 74 70 76 79 86 97 96 100 100 100 100 97 80 83 52 58 57 81 88 74 54 24 22 19 18 22 19 22 22 19 20 28 34 38 40 40 36 32 32 30 28 28
45 54 74 85 76 86 91 84 76 99 98 97 100 96 100 88 98 99 97 66 40 67 42 20 24 29 35 33 27 26 23 23 30 34 37 35 29 30 34 42 42 40 35 35
48 43 50 80 88 97 100 100 100 100 100 96 84 92 89 100 100 100 100 98 76 41 32 34 42 50 52 38 33 29 32 36 35 34 33 33 33 33 36 42 48 46 46 52
88 72 89 79 73 93 99 98 94 88 91 99 96 95 91 100 100 100 100 100 100 96 76 59 60 62 56 39 35 36 38 39 36 33 31 33 34 36 39 41 45 48 47 55
64 79 73 73 86 83 71 73 80 88 94 94 85 84 86 96 92 86 90 89 90 88 93 96 92 76 61 49 44 38 35 33 32 32 33 31 28 38 47 52 56 52 55 70
45 57 67 67 66 72 82 79 72 78 77 71 62 63 70 82 88 80 80 80 72 69 70 64 52 46 38 37 46 45 41 37 32 31 31 31 38 54 60 62 56 56 62 80
47 49 50 64 75 77 85 90 84 81 79 79 73 67 55 57 63 64 66 63 68 69 67 65 60 50 46 39 33 31 33 31 31 35 40 47 61 64 57 55 49 56 61 70
60 62 72 69 56 84 100 100 100 100 100 92 78 68 62 59 65 64 66 64 60 60 64 64 60 55 50 44 45 45 40 39 45 57 67 67 72 68 61 53 58 71 68 70
67 73 82 82 85 65 86 97 100 100 100 90 80 74 68 61 57 56 57 59 59 56 56 57 62 69 72 72 69 72 74 76 73 78 83 80 73 69 65 70 73 73 71 73
70 78 91 86 90 92 84 70 82 97 99 100 97 86 66 56 55 55 52 53 57 60 60 60 60 60 60 61 64 67 66 67 70 69 69 71 68 73 71 70 70 70 60 51
54 82 86 80 84 97 100 100 90 65 62 61 74 85 80 63 54 59 63 57 58 61 62 67 69 70 71 72 71 70 70 72 73 77 80 80 81 79 80 77 73 67 57 59
46 85 89 90 76 89 94 96 100 100 100 94 80 71 75 74 74 69 67 66 60 62 62 69 77 78 77 78 78 78 77 73 71 69 68 68 68 76 71 66 64 62 69 82

GFSCGP_500_rhum_102.txt.gz
RH
47 67 98 100 100 100 87 100 62 74 84 95 100 97 98 100 99 97 81 60 62 54 88 76 68 78 89 87 84 83 79 98 96 95 96 73 94 92 98 66 58 68 63 63
50 52 94 97 100 100 68 88 98 81 98 96 97 94 98 97 98 79 86 90 92 72 78 83 64 52 63 73 82 88 82 72 73 90 97 93 85 79 81 75 68 76 75 70
81 53 91 100 100 100 75 73 94 98 97 99 99 98 98 99 99 98 98 97 99 99 95 88 67 52 49 47 54 71 62 56 62 73 86 98 92 89 80 72 67 72 74 76
93 59 81 100 100 99 93 84 100 99 100 98 100 96 88 94 99 95 98 98 98 93 96 88 56 46 44 48 56 60 58 45 35 63 62 99 92 94 96 89 91 95 85 95
69 64 86 100 96 100 100 100 98 99 91 95 95 90 100 99 97 94 86 98 98 100 99 81 73 48 44 44 45 61 42 46 35 34 50 66 46 51 74 63 79 67 63 70
99 56 96 97 100 100 96 94 100 93 100 97 89 94 100 95 83 91 100 98 98 96 89 95 84 60 40 41 42 39 43 49 26 22 45 46 36 38 53 72 84 95 95 96
78 74 98 94 100 98 100 98 99 100 100 85 82 93 100 96 97 90 96 97 94 85 98 83 73 52 36 34 43 36 50 56 55 49 45 53 49 29 35 64 69 83 90 94
100 82 62 85 88 70 96 95 100 100 87 82 77 71 96 89 95 88 90 90 92 94 92 72 59 63 35 36 41 35 52 50 53 52 57 51 43 37 34 28 32 46 73 81
92 93 95 86 98 63 61 89 100 88 80 100 86 94 82 68 68 85 80 80 62 64 56 56 49 60 40 38 44 44 38 43 53 53 48 38 28 22 19 16 16 18 17 35
91 74 88 97 99 98 89 90 100 99 92 87 86 93 78 67 66 47 48 51 44 38 34 37 34 47 45 27 29 26 22 22 33 41 32 24 25 23 15 13 12 13 22 44
83 86 86 81 76 95 59 82 77 70 65 79 61 56 53 61 47 64 76 59 38 39 41 43 34 44 63 41 28 22 18 17 20 22 25 27 27 23 16 14 12 14 27 56
57 72 97 100 72 93 100 69 49 52 40 42 49 40 35 33 35 39 41 49 50 36 54 57 32 24 22 22 21 19 18 18 21 24 28 28 27 16 12 14 19 29 38 64
39 47 51 76 94 74 99 96 81 70 62 54 48 45 39 42 40 40 47 45 44 56 59 35 32 26 27 28 22 20 20 23 28 29 29 15 11 18 24 36 58 72 91 94
28 27 34 62 70 79 94 79 85 70 63 53 47 51 51 46 46 48 45 61 71 74 79 43 29 27 33 29 26 29 29 25 27 18 12 19 30 33 47 58 64 60 54 49
33 22 25 49 68 79 89 86 92 100 100 96 79 91 76 60 69 69 73 70 58 36 42 65 58 25 26 25 22 20 20 19 12 14 14 16 19 27 34 42 41 37 35 30
40 42 42 53 52 55 62 86 89 80 91 100 98 96 96 99 89 90 81 72 58 46 28 24 34 48 33 20 20 22 20 16 20 20 18 16 15 17 21 26 28 26 30 35
36 40 44 55 52 71 80 91 85 94 100 88 100 100 100 100 89 55 79 89 81 78 84 54 36 22 22 23 25 25 24 24 24 22 19 18 20 24 25 25 26 25 23 28
66 63 66 77 76 92 100 100 98 99 98 92 98 100 100 96 100 100 88 90 91 91 84 88 93 91 59 29 40 36 35 30 27 24 24 25 29 30 29 28 24 25 32 38
58 73 89 86 95 88 93 100 100 82 86 98 100 100 100 100 100 100 100 100 100 100 94 65 59 52 44 56 56 51 43 37 33 32 33 36 34 29 26 27 26 29 44 47
51 54 63 71 82 98 99 86 80 80 81 85 100 94 87 94 98 100 100 100 100 98 100 100 97 75 76 77 69 56 46 41 37 36 38 39 36 30 27 26 29 36 42 50
50 53 48 58 75 83 88 91 92 90 88 92 82 74 74 69 63 74 94 99 100 100 100 99 100 99 97 99 93 71 57 51 47 48 46 43 37 33 31 32 40 49 53 53
46 54 59 60 54 67 93 96 97 97 91 83 82 81 76 71 70 73 73 74 83 91 93 97 92 83 83 75 63 63 64 58 45 42 39 36 33 32 38 51 69 71 61 53
34 47 65 77 69 79 74 84 100 100 100 97 94 92 93 87 77 72 71 68 68 68 65 65 70 75 74 74 69 64 59 50 49 51 52 55 61 67 74 78 73 69 58 58
14 28 57 71 83 90 97 95 80 89 100 100 100 100 93 85 78 71 65 62 61 61 62 61 59 59 60 63 67 70 73 76 76 76 77 76 72 65 63 63 60 62 62 63
10 23 41 71 79 76 80 92 98 97 83 79 95 98 100 100 93 74 62 65 66 58 57 61 64 64 65 65 65 64 64 66 68 68 66 66 66 68 71 71 68 68 66 64
6 8 21 56 72 79 71 76 94 98 100 100 99 85 72 66 69 76 73 63 63 65 62 59 62 63 66 69 72 75 76 77 77 77 77 76 74 72 69 69 69 69 69 68

GFSCGP_500_rhum_108.txt.gz
RH
72 96 70 69 88 96 98 100 100 99 100 58 30 74 98 98 98 100 88 67 86 89 88 97 95 96 97 97 93 80 72 71 68 77 80 98 96 36 30 34 36 70 80 58
70 96 62 64 90 95 100 100 85 87 100 90 49 93 96 98 99 99 95 74 90 91 83 98 96 96 96 96 96 96 96 84 88 82 74 94 78 42 47 52 59 64 92 56
75 88 47 63 99 100 100 100 100 84 100 98 82 99 98 98 97 98 79 64 78 97 97 97 96 96 97 96 94 95 94 96 92 94 96 75 67 54 69 66 60 70 96 98
90 62 51 86 100 100 99 100 97 92 99 100 99 100 99 97 98 100 97 91 82 88 91 97 97 95 96 96 97 93 92 91 90 95 95 96 96 96 95 96 97 95 96 96
66 48 59 98 100 100 100 95 97 100 96 100 100 97 94 98 99 97 98 99 93 93 97 98 96 93 86 92 94 96 95 86 98 96 96 96 96 95 96 96 97 95 97 93
50 79 97 100 100 88 88 90 84 95 100 100 97 100 99 99 96 97 89 92 99 93 86 88 95 92 74 60 58 94 93 96 94 94 95 96 95 90 96 95 93 64 74 73
93 99 100 100 100 90 50 63 87 84 93 95 96 99 99 92 98 99 89 97 85 99 86 87 84 82 80 75 69 90 96 95 97 93 96 97 96 99 96 96 97 90 90 92
100 84 99 96 100 100 48 44 76 88 80 71 95 100 97 94 95 90 79 94 97 88 100 94 87 84 88 77 65 67 80 89 93 92 95 88 97 96 96 93 78 61 61 64
83 96 97 98 99 100 70 56 93 100 84 69 76 69 97 94 92 96 96 98 97 99 100 90 82 91 75 67 75 82 91 90 81 80 78 85 75 65 70 64 47 59 66 56
51 66 62 90 85 100 99 96 96 87 83 66 61 56 62 76 83 82 100 98 98 96 98 79 84 98 84 92 96 89 79 81 80 82 72 59 56 55 65 66 74 63 61 57
35 46 62 81 48 98 93 69 59 74 62 51 50 67 52 62 69 67 79 97 98 98 99 100 96 98 100 100 94 97 100 100 96 84 75 60 53 54 56 70 75 67 64 53
35 31 38 47 62 74 88 100 91 80 80 81 61 57 45 49 58 66 71 91 100 100 90 97 98 98 99 94 86 85 77 77 81 82 80 58 49 50 50 59 73 73 62 47
62 25 24 35 50 64 56 66 100 100 100 100 100 98 88 89 84 72 89 82 83 94 93 95 94 98 96 94 85 90 78 75 79 61 56 57 44 43 46 51 61 58 46 24
29 52 56 24 44 50 66 67 77 85 64 92 74 66 72 62 66 76 92 100 95 88 96 94 85 83 88 87 88 98 68 61 61 55 56 56 53 54 49 44 41 34 24 22
22 32 29 57 84 89 76 74 66 52 51 46 42 39 48 49 68 59 49 49 58 63 64 64 65 62 68 82 79 76 78 60 44 48 45 44 47 38 23 26 23 21 21 28
21 29 31 39 54 54 50 63 69 63 54 42 46 55 47 37 33 37 42 43 34 38 39 34 39 46 42 44 44 49 50 42 37 34 32 31 44 42 34 50 50 31 24 29
24 26 38 48 50 56 58 58 66 66 63 70 51 56 57 49 42 36 32 31 27 24 23 33 41 36 41 46 51 56 64 66 46 33 29 31 37 34 27 29 21 22 29 42
32 40 44 37 43 51 52 61 71 78 84 77 73 79 80 70 66 76 63 55 41 39 40 44 46 46 50 69 55 44 39 38 54 39 28 28 26 23 22 27 35 30 41 20
47 48 36 39 54 63 79 82 92 79 81 81 89 83 86 92 100 100 93 95 83 81 75 90 85 79 58 50 45 44 41 33 26 24 24 24 24 28 35 36 26 26 22 19
34 51 55 65 59 72 78 84 91 98 100 94 95 94 92 93 90 92 100 100 100 100 86 69 96 96 92 75 63 52 54 52 45 43 48 55 62 54 44 54 76 58 25 24
7 13 33 48 53 60 72 75 82 95 92 99 96 97 100 100 98 96 97 100 100 100 100 95 77 82 88 100 87 80 70 59 66 55 60 52 56 55 45 41 44 32 34 32
6 7 10 23 39 47 52 58 70 80 85 86 85 88 93 99 100 100 100 100 100 100 100 100 100 100 100 100 100 100 91 88 96 90 94 76 68 75 82 70 59 48 45 41
8 7 7 8 11 20 34 49 50 56 64 68 69 70 70 79 87 84 80 83 90 89 88 92 94 100 100 100 100 100 100 100 100 100 100 100 98 97 98 94 80 68 61 61
11 10 8 8 7 9 19 33 43 47 52 55 67 74 68 66 68 77 86 89 84 80 81 78 81 81 80 85 87 94 99 100 100 100 100 100 100 98 98 88 77 79 80 71
16 14 11 9 8 7 7 16 34 44 48 55 64 64 65 74 79 81 75 77 82 89 85 83 76 71 70 72 78 82 87 94 100 100 100 100 100 100 100 96 90 82 72 65
19 18 16 12 10 9 8 8 9 16 36 44 51 54 64 70 73 80 83 83 89 92 96 92 80 76 76 70 70 72 76 83 86 87 90 91 89 87 85 81 74 70 67 62

GFSCGP_500_rhum_111.txt.gz
RH
100 100 76 97 65 68 73 83 98 66 95 75 52 49 28 29 85 96 97 58 70 87 90 97 97 96 95 92 81 77 94 97 96 80 89 83 89 75 62 48 37 28 26 27
96 64 83 63 70 73 75 100 78 77 87 96 67 100 29 51 92 98 91 59 60 74 84 95 96 96 92 83 74 79 64 89 90 97 97 96 82 67 60 48 37 29 28 24
64 56 64 85 97 100 90 100 100 100 100 82 90 100 66 79 98 99 100 80 54 58 64 90 91 82 87 78 72 80 63 65 86 96 97 90 88 72 62 49 29 26 34 40
44 61 100 89 97 100 100 94 84 100 100 96 73 48 99 85 97 99 89 92 62 49 62 84 94 89 96 96 93 96 97 73 76 79 91 95 89 94 86 77 40 32 40 72
54 55 98 81 100 99 100 98 70 88 100 100 64 80 70 77 92 94 93 93 70 48 69 83 89 86 97 96 96 97 96 89 96 94 96 94 95 96 96 94 95 94 94 93
92 97 100 100 98 91 86 100 80 85 100 100 100 100 91 93 99 99 100 98 94 50 62 71 83 88 92 97 95 97 96 96 96 96 96 97 96 96 96 98 99 96 97 96
100 97 88 84 52 90 97 73 98 96 100 100 99 87 91 92 98 100 99 97 98 61 70 70 95 93 96 95 98 97 95 96 96 96 96 96 96 97 96 98 97 97 97 96
81 98 100 100 61 38 57 99 97 88 100 100 100 98 93 78 89 95 93 98 86 97 82 76 85 90 97 95 98 97 96 95 93 96 96 97 96 96 96 95 97 96 97 97
81 95 86 96 98 58 54 100 99 82 92 82 91 97 90 93 97 98 99 100 100 91 75 78 83 77 96 88 94 97 94 92 92 96 96 96 95 96 98 96 96 97 96 92
49 54 80 99 82 79 97 100 99 99 70 71 87 86 91 82 99 96 96 86 98 80 90 88 88 86 77 87 84 86 78 74 73 66 86 95 95 95 95 95 96 94 93 61
31 42 77 75 96 100 100 100 92 89 75 51 64 62 69 64 87 94 91 94 97 95 90 84 88 85 81 85 79 75 73 74 72 66 67 74 74 82 89 93 95 89 63 60
30 32 46 51 90 100 97 100 100 94 65 66 54 65 67 57 67 79 94 96 99 97 98 96 92 87 73 85 82 77 74 72 70 69 64 56 64 77 96 82 69 60 55 50
33 24 25 24 58 73 87 97 98 100 74 85 86 96 100 96 63 63 67 72 87 95 98 93 99 99 91 82 82 81 82 92 92 94 95 90 85 84 89 82 75 59 49 45
48 46 26 25 37 49 68 98 90 96 98 100 93 91 85 100 88 67 60 56 57 96 97 97 98 99 100 99 98 100 99 93 86 82 78 74 76 77 75 72 66 48 45 46
30 27 44 67 82 53 56 64 63 72 76 81 64 81 75 65 80 84 86 77 64 57 66 86 93 94 91 96 96 92 90 89 88 76 69 68 67 64 65 60 56 49 52 52
20 26 40 46 59 53 52 55 54 49 43 45 44 36 42 47 66 66 61 65 85 82 66 53 60 73 80 91 82 83 92 91 96 89 70 54 48 43 44 44 47 46 43 31
24 28 33 43 42 46 50 55 51 56 51 44 44 38 34 29 28 38 48 56 54 47 54 63 71 76 79 79 75 69 64 66 68 69 64 54 46 37 39 40 43 44 38 30
30 30 31 32 36 43 44 55 63 70 53 47 50 46 37 38 36 26 26 22 25 27 32 36 36 38 39 46 54 53 50 52 67 64 50 45 43 41 35 32 32 35 35 31
34 35 31 33 34 41 47 53 65 73 45 46 43 52 59 64 59 51 45 42 20 20 24 19 20 21 18 24 31 31 34 39 45 48 48 49 52 52 46 33 30 28 26 24
8 19 37 46 49 51 54 59 76 71 63 59 57 58 67 61 62 61 70 64 50 50 48 63 58 48 49 57 54 45 42 39 38 44 46 47 45 42 45 37 28 26 25 26
7 7 10 18 37 42 53 58 61 78 73 75 84 87 82 70 61 63 63 61 58 59 66 70 70 72 60 79 84 81 76 63 57 48 48 56 60 43 31 33 37 42 49 49
11 9 7 7 11 24 28 42 52 58 65 69 72 74 76 76 77 76 79 86 77 71 76 85 78 76 76 72 75 78 87 91 83 82 61 64 69 58 63 63 64 65 66 64
13 14 12 10 7 6 9 13 26 41 42 46 53 56 58 63 66 74 87 95 92 91 91 89 94 100 100 100 89 89 95 95 99 93 85 82 82 87 96 89 72 72 80 92
18 17 16 15 15 11 8 7 7 13 26 33 37 41 44 49 55 55 53 57 68 82 88 90 90 88 83 85 90 95 99 99 100 100 100 100 100 100 100 100 100 100 100 100
19 20 20 19 19 18 16 11 8 7 8 12 22 35 44 48 48 50 56 65 68 70 72 72 78 82 85 88 86 85 86 89 96 100 100 100 99 99 100 100 100 100 100 100
22 22 22 22 22 21 20 20 16 13 10 8 8 11 22 36 49 58 66 70 73 78 84 86 93 96 93 85 83 78 73 76 85 92 97 98 99 100 100 100 100 100 100 100

GFSCGP_500_rhum_114.txt.gz
RH
49 62 56 46 47 61 66 65 68 71 91 67 69 52 40 51 32 22 98 87 63 73 86 91 92 96 96 97 95 93 96 87 73 69 82 89 77 67 63 64 64 62 57 52
39 38 53 82 99 100 84 87 97 100 87 42 92 80 38 55 30 41 90 100 93 82 88 94 96 93 96 95 97 96 96 96 96 85 86 92 91 91 94 79 73 68 58 50
90 79 84 97 100 99 95 100 97 68 65 87 76 61 34 43 17 22 48 81 95 84 82 94 92 93 96 96 96 96 95 93 98 100 93 94 89 92 93 88 81 61 48 39
44 55 62 81 96 98 100 100 80 90 99 77 70 96 39 37 19 38 67 82 100 100 74 88 88 96 96 95 96 97 99 94 88 96 96 96 97 83 92 94 79 66 52 45
66 72 100 96 92 94 97 99 100 100 100 98 46 100 100 52 43 71 100 100 91 65 67 71 93 96 95 96 96 97 95 90 98 96 95 97 91 87 96 97 92 85 66 61
72 72 56 78 75 85 100 98 100 100 100 100 66 100 100 90 82 93 87 100 93 51 48 71 83 96 96 96 96 96 97 97 91 82 75 97 98 94 94 99 95 93 86 90
94 100 42 34 78 62 91 76 97 100 100 100 100 89 100 85 60 91 89 100 82 36 44 61 62 82 97 96 96 97 95 97 97 99 95 88 94 96 96 96 96 95 94 93
92 80 92 37 47 60 99 94 96 100 100 100 100 100 83 78 86 97 90 92 59 25 36 53 66 90 97 96 94 96 96 97 97 96 96 96 96 94 97 97 96 96 97 93
82 96 85 28 46 88 95 96 95 100 97 100 100 100 94 77 93 96 92 99 99 40 40 68 73 91 97 99 96 97 96 97 96 95 96 96 96 97 95 96 96 96 97 96
51 79 71 47 92 98 100 79 76 86 93 99 100 95 89 85 91 99 99 94 97 71 49 61 59 79 90 95 96 97 96 96 96 96 97 96 96 96 96 96 96 96 97 97
33 45 97 98 100 100 97 100 95 86 76 94 94 99 88 91 92 99 98 98 90 98 73 57 70 89 84 91 98 97 95 96 99 96 92 93 93 91 91 96 96 96 95 96
30 36 80 100 88 95 100 95 94 76 92 75 62 86 74 71 80 97 97 100 99 94 96 86 79 87 85 83 90 95 99 97 96 90 80 84 95 90 96 94 99 95 96 93
37 32 50 86 100 86 100 100 100 94 100 92 49 72 70 61 54 88 94 98 98 100 92 76 68 73 79 72 79 86 96 95 93 90 87 92 95 94 93 92 91 92 96 93
42 69 63 55 72 98 96 99 99 100 98 97 73 49 49 49 51 53 78 93 98 98 98 100 93 74 82 83 89 92 94 93 93 89 88 96 94 93 93 94 94 96 97 98
50 59 82 75 63 86 65 69 71 100 73 74 69 78 56 47 56 48 46 53 86 92 99 98 100 96 100 99 100 99 92 90 77 98 97 95 92 91 94 99 97 96 92 86
36 43 57 65 68 58 59 49 43 46 51 55 44 63 63 67 81 84 75 68 47 56 54 93 97 98 97 99 99 96 95 100 100 99 100 96 90 87 89 83 86 80 68 67
26 32 42 44 49 47 47 43 45 38 24 26 25 25 26 30 45 62 63 58 61 62 51 53 63 74 92 99 96 98 99 97 96 99 98 95 92 90 78 56 50 50 46 46
25 28 26 30 38 47 43 53 52 32 33 24 22 23 22 21 22 22 29 39 48 54 52 49 50 49 45 53 54 51 55 63 67 67 74 79 76 79 75 59 53 47 43 41
25 27 24 23 24 29 31 34 42 44 26 24 25 28 29 27 26 21 14 14 15 15 22 29 38 41 45 48 52 54 61 66 57 52 51 50 54 56 58 56 52 48 51 47
7 11 21 28 26 24 24 28 32 39 30 25 26 27 32 34 35 36 30 25 22 16 16 15 20 22 21 22 24 23 26 34 40 42 47 52 53 55 56 58 65 73 70 58
9 7 7 9 14 20 26 25 20 34 34 37 38 41 46 48 43 35 34 37 41 44 46 45 42 33 24 22 20 18 16 21 38 39 39 39 41 46 52 49 44 38 33 28
14 13 10 8 7 9 10 18 28 20 43 39 44 44 50 58 58 51 53 44 40 39 42 46 44 45 50 51 39 32 36 32 44 51 59 60 60 56 52 48 52 58 58 46
17 16 17 15 12 10 8 6 7 11 21 28 34 37 43 48 54 58 57 56 51 48 50 54 56 58 64 68 78 74 65 54 61 66 70 70 72 77 68 62 68 73 70 64
19 19 19 18 20 19 17 14 10 8 6 6 10 14 20 26 28 30 33 39 44 47 50 60 66 65 68 77 85 88 97 100 98 89 88 84 82 84 89 86 81 77 78 80
20 20 20 20 21 21 22 22 20 17 14 12 10 8 7 6 6 12 22 30 36 43 51 56 55 55 64 70 74 79 84 89 92 94 98 98 97 98 100 100 100 100 100 100
21 21 22 22 22 22 24 25 25 25 23 21 18 16 13 11 8 7 7 10 22 38 47 53 59 69 74 77 78 78 82 81 80 85 87 95 99 100 100 100 100 99 100 99

GFSCGP_500_rhum_117.txt.gz
RH
11 10 14 25 45 58 56 53 42 61 92 90 96 97 62 46 35 39 39 33 43 83 100 92 82 88 67 95 96 96 96 96 95 94 91 85 86 85 76 67 60 56 51 47
29 46 45 53 66 79 91 95 91 61 63 74 84 84 79 47 64 53 43 31 56 83 95 76 88 70 68 92 96 96 94 95 95 94 92 96 94 90 81 69 60 54 51 46
38 47 63 91 96 95 100 100 100 100 100 90 60 66 49 30 55 84 68 40 70 87 98 92 92 75 72 92 93 95 96 96 99 95 93 90 91 88 83 74 64 55 50 48
52 77 56 64 81 89 94 100 98 77 90 51 59 70 19 23 45 59 48 22 36 82 100 100 91 78 53 89 92 97 97 96 96 92 83 90 88 88 80 67 58 56 71 81
38 41 64 63 62 79 90 97 95 96 87 100 100 100 67 34 46 42 35 30 32 73 99 96 71 64 74 94 97 96 96 95 96 91 83 93 92 92 85 84 75 82 93 94
99 73 35 49 54 87 100 100 100 100 84 91 100 100 100 90 71 32 33 67 61 81 97 78 65 48 87 94 96 97 97 97 96 96 95 93 95 96 94 92 89 91 97 94
79 99 30 51 58 71 93 98 100 100 90 89 100 100 100 100 84 100 77 69 79 84 97 56 72 80 96 95 96 98 96 96 97 97 96 100 91 90 88 97 94 96 94 91
100 91 44 48 62 68 89 100 100 100 100 88 93 96 100 100 100 74 71 93 93 86 83 58 82 94 95 95 96 96 97 95 97 96 96 96 92 90 95 97 96 96 91 89
92 45 30 97 67 77 79 82 100 100 100 100 100 100 100 100 100 81 88 96 82 73 55 52 76 79 78 93 97 96 96 96 96 97 96 96 99 98 96 97 96 96 96 96
95 57 86 100 100 94 48 53 78 99 100 100 100 100 100 99 98 87 97 96 46 35 35 49 79 81 89 86 92 97 96 96 96 96 96 96 96 97 97 97 96 96 97 97
58 93 100 100 96 99 82 57 76 99 90 100 100 100 100 99 99 100 90 78 46 29 34 56 58 67 87 87 94 96 97 99 97 96 97 96 96 97 96 97 96 96 97 97
58 99 82 90 100 93 76 72 93 93 100 98 100 100 99 100 100 100 100 99 89 46 44 40 41 49 73 79 97 94 96 96 97 97 98 95 94 97 96 93 98 96 96 96
49 84 100 62 100 99 85 87 100 100 100 80 68 86 80 76 95 100 100 100 97 100 29 40 47 59 78 81 92 95 94 96 96 97 95 95 94 94 90 90 93 97 95 97
56 80 100 76 99 100 100 100 100 100 100 86 45 46 53 58 93 97 99 98 97 98 96 52 45 61 75 74 94 96 83 91 96 96 95 98 96 92 93 95 96 92 91 93
56 74 100 83 68 83 100 84 80 90 88 82 64 65 70 57 65 93 95 97 100 98 99 92 99 93 88 100 95 88 88 89 93 97 94 88 90 87 86 94 97 97 96 95
62 62 72 72 58 44 59 61 66 49 62 66 64 68 75 76 69 51 56 75 94 95 98 98 98 97 98 97 91 89 94 91 91 95 90 88 89 89 77 79 88 94 95 92
52 52 49 49 53 54 53 44 30 33 28 27 26 35 35 45 55 53 49 36 41 52 78 90 96 96 97 100 99 97 95 97 96 96 97 94 95 100 97 85 92 95 87 79
34 43 46 47 51 46 52 50 44 30 24 22 20 20 19 22 19 27 45 43 40 38 43 49 60 53 79 97 95 97 95 97 97 99 100 100 99 99 100 99 97 94 82 66
27 25 28 35 33 35 43 48 49 31 25 20 17 16 14 13 19 25 20 18 26 24 25 31 26 32 31 36 70 77 63 65 74 60 62 74 78 71 76 82 88 92 87 71
11 16 24 27 27 28 34 32 37 38 25 20 16 14 14 15 15 14 14 20 18 17 21 21 17 30 34 34 37 41 43 40 44 46 46 45 42 42 46 49 46 45 46 54
7 8 9 11 13 16 20 22 20 32 20 23 21 22 24 22 24 20 20 19 19 22 22 22 21 21 19 19 21 22 23 23 26 27 30 38 47 51 52 53 51 48 46 51
12 10 9 8 10 12 10 12 11 8 10 12 14 18 19 18 18 20 21 25 25 24 22 23 27 32 36 38 40 43 40 36 27 27 25 22 24 29 40 42 44 45 44 46
16 16 14 12 11 11 11 11 10 8 8 8 7 8 8 10 12 13 14 12 13 16 21 28 30 27 27 30 39 43 46 56 68 68 60 67 78 76 81 76 72 71 63 55
18 18 17 16 17 16 15 14 14 13 12 11 10 9 8 8 7 6 6 6 10 14 19 22 24 29 34 36 39 42 53 62 66 75 91 92 82 85 94 94 98 100 100 94
19 19 18 18 19 19 19 18 17 17 16 16 15 13 12 11 9 8 8 7 6 6 6 6 8 17 27 35 40 44 56 69 77 84 90 94 100 100 100 99 100 99 99 100
20 20 21 21 20 20 20 22 22 22 20 19 20 19 18 15 14 12 12 11 9 8 8 8 8 8 8 10 19 34 47 62 76 85 96 100 100 100 100 100 100 100 100 100

GFSCGP_500_rhum_120.txt.gz
RH
11 14 16 25 36 37 42 59 57 72 45 22 43 35 56 70 67 54 55 53 47 43 29 30 26 68 43 29 96 97 98 93 84 94 94 90 86 80 76 74 69 64 56 47
38 41 46 60 63 61 63 69 91 90 99 74 54 56 95 65 66 64 52 41 50 52 40 38 43 25 34 35 96 100 95 96 94 95 96 96 93 83 82 77 71 65 60 53
38 36 36 43 47 52 64 46 72 61 100 89 48 58 69 68 51 45 39 56 46 48 39 54 46 47 49 46 88 97 97 96 97 96 96 94 92 84 82 78 76 71 72 59
46 33 38 40 44 50 66 56 68 70 64 64 64 90 100 60 33 29 66 100 90 48 41 50 36 100 60 72 89 99 96 96 96 97 97 96 91 80 82 88 84 85 78 64
85 68 35 34 45 54 70 74 97 100 70 71 96 100 70 29 31 47 56 94 93 82 56 38 60 99 99 63 87 96 96 96 96 97 95 95 97 96 95 95 95 94 72 60
99 84 32 31 35 56 66 94 100 100 76 94 100 100 100 71 86 48 41 62 72 62 57 42 35 99 63 82 82 96 97 97 96 97 97 98 97 95 93 94 92 87 80 66
97 64 40 36 55 71 94 98 100 99 86 100 100 100 100 100 100 92 53 28 35 48 29 56 73 98 61 80 77 87 96 94 96 93 96 96 94 96 96 97 91 86 73 68
75 43 54 43 50 83 100 100 100 100 100 100 100 100 100 94 95 95 78 63 80 58 40 42 85 84 67 66 83 93 92 98 97 96 96 96 97 97 97 95 94 83 80 80
60 98 100 72 41 66 100 100 100 84 93 100 100 100 100 100 100 98 88 100 100 45 49 56 80 97 74 86 94 95 96 94 95 95 96 96 96 97 94 97 98 95 97 93
91 98 90 76 42 44 78 100 100 100 100 99 100 99 100 100 100 100 100 93 79 66 66 75 85 92 82 97 96 96 96 96 96 96 96 95 96 96 96 97 96 97 97 95
75 92 100 93 70 46 58 99 100 92 98 100 95 100 100 100 100 100 89 67 54 50 54 55 72 79 96 92 92 96 97 96 96 96 96 97 96 96 97 95 97 96 97 97
62 78 100 100 76 68 86 82 99 94 100 98 97 100 100 100 100 100 100 97 96 39 48 61 65 85 95 96 96 98 94 96 95 96 96 96 97 96 96 97 97 96 97 96
73 57 91 100 93 80 95 87 99 100 100 98 94 100 100 100 99 99 100 99 68 69 70 86 93 97 97 96 95 97 93 94 96 97 98 97 96 97 96 96 97 95 96 97
84 82 96 98 100 100 100 100 100 100 98 100 100 100 98 98 99 99 99 99 97 100 53 71 93 80 96 93 93 96 96 96 96 97 97 94 96 96 95 96 97 89 96 96
98 78 84 100 85 87 86 83 88 94 91 83 90 91 89 95 98 100 98 97 97 100 86 69 74 71 80 82 79 76 91 95 95 95 94 89 93 92 86 85 88 90 93 79
74 66 55 57 97 78 59 67 75 58 59 62 64 62 70 56 51 68 100 96 96 97 100 96 85 64 60 64 68 72 80 90 97 91 84 76 80 75 68 83 100 89 85 82
48 51 51 48 60 59 55 54 35 31 29 34 32 36 44 51 45 35 45 49 89 92 93 97 99 98 100 100 100 98 98 90 88 90 84 90 82 70 72 84 84 95 95 91
45 47 50 50 57 54 50 42 38 28 21 23 21 20 20 20 21 25 27 21 19 43 56 73 90 95 95 93 93 96 100 100 100 96 95 99 99 97 93 93 99 98 100 96
28 30 33 38 38 46 55 39 32 27 27 20 17 16 16 14 25 21 19 16 17 17 12 14 12 23 35 41 46 35 39 66 95 97 96 98 100 96 94 100 98 99 100 100
20 20 22 22 21 25 32 30 25 26 22 30 28 23 24 22 20 22 20 14 12 14 15 14 17 16 20 26 28 26 39 43 30 20 28 29 34 77 89 82 92 91 75 74
10 12 14 16 17 18 22 30 34 28 19 17 18 19 21 22 21 22 23 26 23 18 18 15 14 13 12 14 15 17 23 26 31 37 38 35 41 48 49 49 55 62 58 53
10 9 10 10 10 12 12 12 10 9 10 10 10 9 10 12 13 13 11 12 13 16 16 14 16 19 22 20 19 23 26 28 26 24 22 24 26 28 32 43 53 59 62 71
13 12 11 10 10 10 9 9 9 10 9 9 9 9 9 8 9 8 7 6 6 6 6 7 8 12 18 19 19 25 30 31 31 32 39 38 36 38 30 29 30 30 33 44
16 15 14 14 15 14 13 13 13 13 13 13 12 12 12 11 11 11 10 10 10 10 10 9 8 8 7 7 8 8 11 24 38 45 53 60 60 61 65 69 74 71 68 76
16 16 16 16 17 17 18 18 19 19 19 18 17 16 15 15 15 14 14 14 14 15 15 15 15 13 10 9 8 10 12 11 9 9 20 46 68 87 92 96 96 96 89 88
18 18 19 18 16 16 17 18 19 19 19 20 20 20 19 20 20 20 20 20 21 19 20 18 16 16 14 12 10 10 11 14 20 19 14 10 14 43 81 90 96 100 99 92

GFSCGP_500_rhum_126.txt.gz
RH
19 16 15 14 12 10 8 7 9 17 6 6 5 4 4 3 3 3 3 3 4 5 8 12 17 18 21 23 22 22 18 14 9 5 3 4 4 4 74 70 84 97 88 77
32 31 30 27 22 17 13 24 35 28 19 10 18 14 14 16 13 5 3 2 2 2 2 2 3 4 5 6 9 13 13 10 9 5 3 3 4 11 51 89 97 94 97 89
32 35 29 28 38 29 43 46 48 42 24 23 27 22 20 33 27 18 10 8 5 3 2 2 2 2 2 2 3 3 4 4 4 3 2 2 3 18 56 48 84 96 96 97
66 53 27 36 43 41 46 42 30 32 44 60 46 34 38 32 38 29 22 21 26 41 53 34 18 6 4 3 2 3 3 3 3 2 2 2 3 4 15 39 56 90 96 96
73 31 31 33 34 38 61 38 35 43 49 47 48 43 50 46 44 45 46 31 35 58 61 76 43 28 26 23 18 9 8 4 3 2 2 3 5 45 53 81 91 96 96 97
45 32 33 34 39 49 50 35 34 42 48 54 56 48 53 57 58 66 68 42 44 49 58 64 70 47 47 51 42 24 20 5 3 2 5 40 56 39 79 90 93 95 97 96
33 34 35 65 68 63 41 40 41 52 58 56 62 61 44 53 61 73 79 61 79 88 99 100 64 62 63 43 29 20 14 12 19 19 100 72 83 91 92 95 92 96 94 95
33 32 54 92 77 51 35 32 50 53 77 88 93 84 67 68 66 86 97 86 76 91 83 71 61 59 76 64 53 25 56 67 53 98 76 96 96 96 94 93 96 96 96 96
60 36 56 79 68 50 37 43 64 72 95 100 99 96 100 100 99 96 69 92 100 99 100 99 67 69 88 100 100 100 52 82 87 98 69 94 96 96 96 96 93 97 97 96
59 41 57 95 78 55 51 63 95 99 100 100 96 88 83 99 97 96 87 67 57 68 90 84 54 60 67 100 100 100 75 98 97 99 97 95 96 96 95 96 96 91 96 97
60 68 97 99 96 83 78 94 100 95 96 100 90 87 100 99 96 94 92 97 75 83 72 76 99 100 92 93 98 85 82 97 97 96 96 96 97 93 95 96 94 96 97 96
62 51 64 89 85 87 90 100 100 100 96 100 91 97 100 99 89 75 85 95 86 92 98 100 99 98 97 96 95 95 97 95 94 97 98 98 98 97 96 91 93 90 89 96
44 41 51 58 70 81 99 98 100 100 100 97 92 99 100 100 100 94 98 94 57 48 87 96 98 98 96 97 98 97 97 96 97 97 96 95 94 86 96 96 96 96 94 87
54 51 66 63 65 77 82 90 100 98 98 100 98 100 100 99 100 99 99 97 96 96 99 98 98 96 95 94 98 99 98 97 96 93 96 98 98 96 99 96 97 97 97 97
56 54 55 58 61 70 80 96 86 98 98 99 98 100 99 98 98 99 99 96 98 99 98 98 98 97 96 98 98 97 95 93 96 94 94 95 96 98 97 97 97 97 97 97
48 50 50 51 56 68 72 72 67 64 69 96 96 100 99 98 98 99 97 98 97 97 97 96 98 95 94 91 91 93 96 95 96 96 76 87 91 90 95 94 93 96 96 95
38 36 54 53 58 58 53 46 45 45 46 50 77 90 95 98 98 98 97 97 97 83 83 86 93 94 98 93 100 100 98 95 91 88 76 67 67 71 76 80 82 87 72 71
31 29 48 51 47 39 34 26 25 24 22 24 34 55 50 36 93 97 97 96 99 95 96 98 97 98 98 99 96 97 94 81 66 58 62 64 65 80 78 74 80 89 87 86
21 23 26 30 27 24 23 23 21 16 21 18 21 18 24 15 67 86 74 86 70 42 54 89 90 95 93 86 77 75 45 53 46 42 35 42 43 50 63 63 64 88 86 89
14 14 15 15 15 16 19 19 22 20 20 19 20 16 11 10 10 12 10 10 10 12 19 19 20 22 19 14 17 22 18 22 32 42 38 46 62 63 55 67 68 70 60 65
9 9 9 9 12 14 17 20 17 15 17 14 11 10 8 6 6 6 6 6 6 6 6 6 6 6 6 7 7 7 7 8 8 12 18 23 37 60 87 100 98 91 82 89
11 11 12 11 10 10 10 10 9 10 10 10 9 10 10 10 12 13 14 13 13 13 14 14 13 12 12 13 13 14 13 12 12 11 11 10 9 7 8 22 36 57 75 92
11 11 12 12 13 13 13 13 14 14 14 15 15 15 16 17 18 17 17 16 14 15 15 15 12 11 11 10 8 8 11 12 10 12 13 11 13 14 14 14 13 11 8 10
12 12 12 13 14 14 15 16 17 18 19 18 18 17 17 17 15 14 14 15 13 13 12 12 14 16 15 12 12 11 11 13 14 16 15 15 17 18 18 17 18 18 18 16
12 12 11 12 11 13 13 12 12 13 12 12 13 15 14 13 14 13 15 14 13 12 10 11 10 10 9 9 8 9 10 8 10 11 13 14 19 21 22 24 24 22 23 24
10 10 10 10 10 10 11 10 12 15 15 13 12 12 14 15 15 14 14 12 10 9 9 9 8 8 8 8 8 8 8 8 9 11 16 16 17 24 24 26 28 29 30 31

GFSCGP_500_rhum_129.txt.gz
RH
84 78 62 58 60 38 42 35 36 55 64 59 54 48 46 48 47 44 46 44 40 38 39 38 40 46 45 44 42 43 40 41 36 24 18 16 11 7 12 75 97 53 60 98
64 46 43 25 23 19 18 15 14 11 11 17 13 11 8 7 8 9 11 14 21 28 30 28 33 36 38 42 42 41 43 41 41 34 22 16 10 7 28 20 50 19 39 33
31 29 28 25 28 27 30 44 40 28 17 17 17 18 16 12 13 9 9 7 6 5 5 9 14 15 21 25 30 37 44 45 43 39 30 19 13 12 34 26 8 6 6 14
38 58 46 28 36 40 49 53 42 35 31 35 22 25 24 21 19 17 20 23 21 14 6 4 3 3 4 5 7 14 23 39 43 40 35 26 18 14 12 7 16 12 6 56
61 36 30 39 47 42 49 42 32 40 44 41 26 22 41 23 27 31 36 34 43 44 19 7 5 4 3 2 2 3 4 8 26 38 31 28 21 16 11 8 10 6 3 15
50 29 35 52 54 49 46 34 37 38 43 44 37 28 33 35 30 36 45 41 43 54 35 26 40 44 40 17 7 3 2 3 3 11 16 17 15 13 10 8 7 4 3 7
35 35 71 88 61 46 39 39 42 44 52 43 36 39 35 25 28 34 45 71 77 63 46 40 47 53 58 43 16 8 4 3 3 3 4 7 9 12 13 8 5 4 3 3
34 68 87 64 54 41 45 41 49 60 50 44 39 36 48 42 58 67 58 61 93 79 59 62 79 79 60 56 58 30 14 9 7 12 4 3 4 4 4 4 4 3 2 4
44 82 82 72 59 48 32 42 51 58 59 54 47 70 88 77 80 90 76 66 96 99 66 64 46 46 58 58 48 36 23 19 26 44 12 3 3 3 3 3 3 5 3 20
47 72 98 96 76 56 55 55 68 69 77 64 71 89 81 73 62 99 99 94 79 52 51 82 61 72 79 83 64 23 25 23 19 25 20 7 3 2 2 3 12 14 34 90
77 75 92 100 86 67 66 71 78 94 91 88 94 95 92 88 66 84 69 45 61 52 60 58 71 85 100 98 96 100 98 99 99 97 16 33 18 23 22 56 68 80 94 96
79 100 95 94 84 96 98 88 92 98 97 98 100 98 92 95 66 89 83 54 54 65 77 87 92 97 97 97 100 98 99 96 96 100 99 83 97 98 99 98 94 97 97 97
70 92 86 84 72 78 98 94 94 99 100 100 98 97 100 93 100 70 94 98 98 99 98 97 96 98 98 97 99 97 96 99 83 95 91 97 96 97 96 96 97 96 96 95
71 76 79 75 65 69 96 100 100 100 100 100 100 99 83 87 79 98 98 97 98 98 98 98 99 97 99 85 100 96 93 96 97 96 96 94 96 99 97 96 97 95 94 96
82 74 64 64 59 84 89 95 99 100 100 99 100 98 92 99 93 95 96 97 97 96 95 96 97 98 98 97 98 95 96 98 98 97 97 97 98 95 96 95 95 95 96 95
63 56 51 59 61 63 68 65 95 92 97 99 99 100 99 98 100 96 97 99 97 98 97 97 98 98 97 96 97 98 98 98 98 96 96 97 97 96 97 98 96 96 97 97
52 49 48 50 51 56 49 43 29 56 88 99 98 99 98 97 99 99 98 98 97 98 95 94 97 94 98 98 98 98 98 92 83 80 87 90 87 92 96 94 93 92 96 97
42 48 45 46 43 39 33 25 21 24 49 89 45 98 97 97 98 97 99 96 98 98 97 98 98 97 98 98 96 93 94 68 56 61 53 62 66 80 73 78 80 66 76 85
33 32 29 31 32 23 24 18 15 13 15 31 24 69 84 94 92 96 85 88 92 84 95 93 90 88 87 92 90 75 77 97 95 83 86 100 100 98 94 97 73 68 86 90
22 19 17 18 15 13 10 8 9 10 12 14 14 27 70 29 18 20 17 47 98 95 76 66 74 79 59 56 57 20 24 25 30 58 60 57 57 68 71 95 100 94 100 100
10 9 10 13 13 13 10 9 9 8 7 7 6 6 6 6 6 6 7 8 8 8 8 8 9 9 8 8 7 7 8 8 8 8 7 7 6 6 6 10 18 37 74 94
10 10 10 10 10 10 10 10 10 10 11 12 13 13 13 13 13 14 13 13 14 12 12 12 12 13 13 13 12 10 8 8 7 8 8 8 8 8 7 7 7 9 9 9
12 12 12 13 13 14 15 16 16 16 16 15 13 12 12 14 14 14 14 13 12 13 13 14 11 8 8 8 8 8 7 7 7 7 7 7 7 7 7 8 9 9 10 13
11 13 13 14 15 15 16 16 16 16 16 15 15 12 10 9 8 7 7 6 6 7 8 9 9 10 10 11 11 11 11 10 9 8 8 8 7 7 7 7 7 7 8 11
10 10 10 11 11 11 10 12 13 12 10 10 13 13 11 9 8 8 8 8 9 9 9 9 10 11 13 14 15 15 14 14 13 12 11 10 9 9 8 7 8 9 10 15
9 10 10 10 10 10 10 10 10 10 10 10 12 12 12 12 14 13 13 13 13 12 12 14 15 16 16 17 17 16 15 13 13 12 11 10 9 9 9 7 7 6 7 10